[[{"header":{"parameterUnit":"m.s-1","parameterCategory":1,"la1":31.0,"la2":29.5877,"lo1":-88.7671,"lo2":-86.6584,"dy":0.0162,"dx":0.0185,"nx":115,"ny":88,"refTime":"2024-04-26T00:00:00:Z","depth":0,"parameterNumber":2,"parameterNumberName":"U-component_of_WINDS"},"data":[0.0,0.0,0.0,0.0,0.0,0.0,0.0,0.0,0.0,0.0,0.0,0.0,0.0,0.0,0.0,0.0,0.0,0.0,0.0,0.0,0.0,0.0,0.0,0.0,0.0,0.0,0.0,0.0,0.0,0.0,0.0,0.0,0.0,0.0,0.0,0.0,0.0,0.0,0.0,0.0,0.0,0.0,0.0,0.0,0.0,0.0,0.0,0.0,0.0,0.0,0.0,0.0,0.0,0.0,0.0,0.0,0.0,0.0,0.0,0.0,0.0,0.0,0.0,0.0,0.0,0.0,0.0,0.0,0.0,0.0,0.0,0.0,0.0,0.0,0.0,0.0,0.0,0.0,0.0,0.0,0.0,0.0,0.0,0.0,0.0,0.0,0.0,0.0,0.0,0.0,0.0,0.0,0.0,0.0,0.0,0.0,0.0,0.0,0.0,0.0,0.0,0.0,0.0,0.0,0.0,0.0,0.0,0.0,0.0,0.0,0.0,0.0,0.0,0.0,0.0,0.0,0.0,0.0,0.0,0.0,0.0,0.0,0.0,0.0,0.0,0.0,0.0,0.0,0.0,0.0,0.0,0.0,0.0,0.0,0.0,0.0,0.0,0.0,0.0,0.0,0.0,0.0,0.0,0.0,0.0,0.0,0.0,0.0,0.0,0.0,0.0,0.0,0.0,0.0,0.0,0.0,0.0,0.0,0.0,0.0,0.0,0.0,0.0,0.0,0.0,0.0,0.0,0.0,0.0,0.0,0.0,0.0,0.0,0.0,0.0,0.0,0.0,0.0,0.0,0.0,0.0,0.0,0.0,0.0,0.0,0.0,0.0,0.0,0.0,0.0,0.0,0.0,0.0,0.0,0.0,0.0,0.0,0.0,0.0,0.0,0.0,0.0,0.0,0.0,0.0,0.0,0.0,0.0,0.0,0.0,0.0,0.0,0.0,0.0,0.0,0.0,0.0,0.0,0.0,0.0,0.0,0.0,0.0,0.0,0.0,0.0,0.0,0.0,0.0,0.0,0.0,0.0,0.0,0.0,0.0,0.0,0.0,0.0,0.0,0.0,0.0,0.0,0.0,0.0,0.0,0.0,0.0,0.0,0.0,0.0,0.0,0.0,0.0,0.0,0.0,0.0,0.0,0.0,0.0,0.0,0.0,0.0,0.0,0.0,0.0,0.0,0.0,0.0,0.0,0.0,0.0,0.0,0.0,0.0,0.0,0.0,0.0,0.0,0.0,0.0,0.0,0.0,0.0,0.0,0.0,0.0,0.0,0.0,0.0,0.0,0.0,0.0,0.0,0.0,0.0,0.0,0.0,0.0,0.0,0.0,0.0,0.0,0.0,0.0,0.0,0.0,0.0,0.0,0.0,0.0,0.0,0.0,0.0,0.0,0.0,0.0,0.0,0.0,0.0,0.0,0.0,0.0,0.0,0.0,0.0,0.0,0.0,0.0,0.0,0.0,0.0,0.0,0.0,0.0,0.0,0.0,0.0,0.0,0.0,0.0,0.0,0.0,0.0,0.0,0.0,0.0,0.0,0.0,0.0,0.0,0.0,0.0,0.0,0.0,0.0,0.0,0.0,0.0,0.0,0.0,0.0,0.0,0.0,0.0,0.0,0.0,0.0,0.0,0.0,0.0,0.0,0.0,0.0,0.0,0.0,0.0,0.0,0.0,0.0,0.0,0.0,0.0,0.0,0.0,0.0,0.0,0.0,0.0,0.0,0.0,0.0,0.0,0.0,0.0,0.0,0.0,0.0,0.0,0.0,0.0,0.0,0.0,0.0,0.0,0.0,0.0,0.0,0.0,0.0,0.0,0.0,0.0,0.0,0.0,0.0,0.0,0.0,0.0,0.0,0.0,0.0,0.0,0.0,0.0,0.0,0.0,0.0,0.0,0.0,0.0,0.0,0.0,0.0,0.0,0.0,0.0,0.0,0.0,0.0,0.0,0.0,0.0,0.0,0.0,0.0,0.0,0.0,0.0,0.0,0.0,0.0,0.0,0.0,0.0,0.0,0.0,0.0,0.0,0.0,0.0,0.0,0.0,0.0,0.0,0.0,0.0,0.0,0.0,0.0,0.0,0.0,0.0,0.0,0.0,0.0,0.0,0.0,0.0,0.0,0.0,0.0,0.0,0.0,0.0,0.0,0.0,0.0,0.0,0.0,0.0,0.0,0.0,0.0,0.0,0.0,0.0,0.0,0.0,0.0,0.0,0.0,0.0,0.0,0.0,0.0,0.0,0.0,0.0,0.0,0.0,0.0,0.0,0.0,0.0,0.0,0.0,0.0,0.0,0.0,0.0,0.0,0.0,0.0,0.0,0.0,0.0,0.0,0.0,0.0,0.0,0.0,0.0,0.0,0.0,0.0,0.0,0.0,0.0,0.0,0.0,0.0,0.0,0.0,0.0,0.0,0.0,0.0,0.0,0.0,0.0,0.0,0.0,0.0,0.0,0.0,0.0,0.0,0.0,0.0,0.0,0.0,0.0,0.0,0.0,0.0,0.0,0.0,0.0,0.0,0.0,0.0,0.0,0.0,0.0,0.0,0.0,0.0,0.0,0.0,0.0,0.0,0.0,0.0,0.0,0.0,0.0,0.0,0.0,0.0,0.0,0.0,0.0,0.0,0.0,0.0,0.0,0.0,0.0,0.0,0.0,0.0,0.0,0.0,0.0,0.0,0.0,0.0,0.0,0.0,0.0,0.0,0.0,0.0,0.0,0.0,0.0,0.0,0.0,0.0,0.0,0.0,0.0,0.0,0.0,0.0,0.0,0.0,0.0,0.0,0.0,0.0,0.0,0.0,0.0,0.0,0.0,0.0,0.0,0.0,0.0,0.0,0.0,0.0,0.0,0.0,0.0,0.0,0.0,0.0,0.0,0.0,0.0,0.0,0.0,0.0,0.0,0.0,0.0,0.0,0.0,0.0,0.0,0.0,0.0,0.0,0.0,0.0,0.0,0.0,0.0,0.0,0.0,0.0,0.0,0.0,0.0,0.0,0.0,0.0,0.0,0.0,0.0,0.0,0.0,0.0,0.0,0.0,0.0,0.0,0.0,0.0,0.0,0.0,0.0,0.0,0.0,0.0,0.0,0.0,0.0,0.0,0.0,0.0,0.0,0.0,0.0,0.0,0.0,0.0,0.0,0.0,0.0,0.0,0.0,0.0,0.0,0.0,0.0,0.0,0.0,0.0,0.0,0.0,0.0,0.0,0.0,0.0,0.0,0.0,0.0,0.0,0.0,0.0,0.0,0.0,0.0,0.0,0.0,0.0,0.0,0.0,0.0,0.0,0.0,0.0,0.0,0.0,0.0,0.0,0.0,0.0,0.0,0.0,0.0,0.0,0.0,0.0,0.0,0.0,0.0,0.0,0.0,0.0,0.0,0.0,0.0,0.0,0.0,0.0,0.0,0.0,0.0,0.0,0.0,0.0,0.0,0.0,0.0,0.0,0.0,0.0,0.0,0.0,0.0,0.0,0.0,0.0,0.0,0.0,0.0,0.0,0.0,0.0,0.0,0.0,0.0,0.0,0.0,0.0,0.0,0.0,0.0,0.0,0.0,0.0,0.0,0.0,0.0,0.0,0.0,0.0,0.0,0.0,0.0,0.0,0.0,0.0,0.0,0.0,0.0,0.0,0.0,0.0,0.0,0.0,0.0,0.0,0.0,0.0,0.0,0.0,0.0,0.0,0.0,0.0,0.0,0.0,0.0,0.0,0.0,0.0,0.0,0.0,0.0,0.0,0.0,0.0,0.0,0.0,0.0,0.0,0.0,0.0,0.0,0.0,0.0,0.0,0.0,0.0,0.0,0.0,0.0,0.0,0.0,0.0,0.0,0.0,0.0,0.0,0.0,0.0,0.0,0.0,0.0,0.0,0.0,0.0,0.0,0.0,0.0,0.0,0.0,0.0,0.0,0.0,0.0,0.0,0.0,0.0,0.0,0.0,0.0,0.0,0.0,0.0,0.0,0.0,0.0,0.0,0.0,0.0,0.0,0.0,0.0,0.0,0.0,0.0,0.0,0.0,0.0,0.0,0.0,0.0,0.0,0.0,0.0,0.0,0.0,0.0,0.0,0.0,0.0,0.0,0.0,0.0,0.0,0.0,0.0,0.0,0.0,0.0,0.0,0.0,0.0,0.0,0.0,0.0,0.0,0.0,0.0,0.0,0.0,0.0,0.0,0.0,0.0,0.0,0.0,0.0,0.0,0.0,0.0,0.0,0.0,0.0,0.0,0.0,0.0,0.0,0.0,0.0,0.0,0.0,0.0,0.0,0.0,-2.2923,0.0,0.0,0.0,0.0,0.0,0.0,0.0,0.0,0.0,0.0,0.0,0.0,0.0,0.0,0.0,0.0,0.0,0.0,0.0,0.0,0.0,0.0,0.0,0.0,0.0,0.0,0.0,0.0,0.0,0.0,0.0,0.0,0.0,0.0,0.0,0.0,0.0,0.0,0.0,0.0,0.0,0.0,0.0,0.0,0.0,0.0,0.0,0.0,0.0,0.0,0.0,0.0,0.0,0.0,0.0,0.0,0.0,0.0,0.0,0.0,0.0,0.0,0.0,0.0,0.0,0.0,0.0,0.0,0.0,0.0,0.0,0.0,0.0,0.0,0.0,0.0,0.0,0.0,0.0,0.0,0.0,0.0,0.0,0.0,0.0,0.0,0.0,0.0,0.0,0.0,0.0,0.0,0.0,0.0,0.0,0.0,0.0,0.0,0.0,0.0,0.0,0.0,0.0,0.0,0.0,0.0,0.0,0.0,0.0,0.0,-2.5301,-2.3365,-2.802,-2.802,-2.2715,0.0,0.0,0.0,0.0,0.0,0.0,0.0,0.0,0.0,0.0,0.0,0.0,0.0,0.0,0.0,0.0,0.0,0.0,0.0,0.0,0.0,0.0,0.0,0.0,0.0,0.0,0.0,0.0,0.0,0.0,0.0,0.0,0.0,0.0,0.0,0.0,0.0,0.0,0.0,0.0,0.0,0.0,0.0,0.0,0.0,0.0,0.0,0.0,0.0,0.0,0.0,0.0,0.0,0.0,0.0,0.0,0.0,0.0,0.0,0.0,0.0,0.0,0.0,0.0,0.0,0.0,0.0,0.0,0.0,0.0,0.0,0.0,0.0,0.0,0.0,0.0,0.0,0.0,0.0,0.0,0.0,0.0,0.0,0.0,0.0,0.0,0.0,0.0,0.0,0.0,0.0,0.0,0.0,0.0,0.0,0.0,0.0,0.0,0.0,0.0,0.0,0.0,0.0,0.0,0.0,0.0,0.0,0.0,0.0,0.0,0.0,0.0,-2.7968,-2.7897,-2.3448,0.0,0.0,0.0,0.0,0.0,0.0,0.0,0.0,0.0,0.0,0.0,0.0,0.0,0.0,0.0,0.0,0.0,0.0,0.0,0.0,0.0,0.0,0.0,0.0,0.0,0.0,0.0,0.0,0.0,0.0,0.0,0.0,0.0,0.0,0.0,0.0,0.0,0.0,0.0,0.0,0.0,0.0,0.0,0.0,0.0,0.0,0.0,0.0,0.0,0.0,0.0,0.0,0.0,0.0,0.0,0.0,0.0,0.0,0.0,0.0,0.0,0.0,0.0,0.0,0.0,0.0,0.0,0.0,0.0,0.0,0.0,0.0,0.0,0.0,0.0,0.0,0.0,0.0,0.0,0.0,0.0,0.0,0.0,0.0,0.0,0.0,0.0,0.0,0.0,0.0,0.0,0.0,0.0,0.0,0.0,0.0,0.0,0.0,0.0,0.0,0.0,0.0,0.0,0.0,0.0,0.0,0.0,0.0,0.0,0.0,-2.4644,-2.702,-2.7105,0.0,-2.5506,0.0,0.0,0.0,0.0,0.0,0.0,0.0,0.0,0.0,0.0,0.0,0.0,0.0,0.0,0.0,0.0,0.0,0.0,0.0,0.0,0.0,0.0,0.0,0.0,0.0,0.0,0.0,0.0,0.0,0.0,0.0,0.0,0.0,0.0,0.0,0.0,0.0,0.0,0.0,0.0,0.0,0.0,0.0,0.0,0.0,0.0,0.0,0.0,0.0,0.0,0.0,0.0,0.0,0.0,0.0,0.0,0.0,0.0,0.0,0.0,0.0,0.0,0.0,0.0,0.0,0.0,0.0,0.0,0.0,0.0,0.0,0.0,0.0,0.0,0.0,0.0,0.0,0.0,0.0,0.0,0.0,0.0,0.0,0.0,0.0,0.0,0.0,0.0,0.0,0.0,0.0,0.0,0.0,0.0,0.0,0.0,0.0,0.0,0.0,0.0,0.0,0.0,0.0,0.0,0.0,0.0,0.0,0.0,0.0,0.0,-2.5301,-2.7438,-2.7288,-2.6608,0.0,0.0,0.0,0.0,0.0,0.0,0.0,0.0,0.0,0.0,0.0,0.0,0.0,0.0,0.0,0.0,0.0,0.0,0.0,0.0,0.0,0.0,0.0,0.0,0.0,0.0,0.0,0.0,0.0,0.0,0.0,0.0,0.0,0.0,0.0,0.0,0.0,0.0,0.0,0.0,0.0,0.0,0.0,0.0,0.0,0.0,0.0,0.0,0.0,0.0,0.0,0.0,0.0,0.0,0.0,0.0,0.0,0.0,0.0,0.0,0.0,0.0,0.0,0.0,0.0,0.0,0.0,0.0,0.0,0.0,0.0,0.0,0.0,0.0,0.0,0.0,0.0,0.0,0.0,0.0,0.0,0.0,0.0,0.0,0.0,0.0,0.0,0.0,0.0,0.0,0.0,0.0,0.0,0.0,0.0,0.0,0.0,0.0,0.0,0.0,0.0,0.0,0.0,0.0,0.0,0.0,0.0,0.0,0.0,0.0,-2.5829,-2.6582,-2.8273,-2.7516,-2.6608,-2.5694,0.0,0.0,0.0,0.0,0.0,0.0,0.0,0.0,0.0,0.0,0.0,0.0,0.0,0.0,0.0,0.0,0.0,0.0,0.0,0.0,0.0,0.0,0.0,0.0,0.0,0.0,0.0,0.0,0.0,0.0,0.0,0.0,0.0,0.0,0.0,0.0,0.0,0.0,0.0,0.0,0.0,0.0,0.0,0.0,0.0,0.0,0.0,0.0,0.0,0.0,0.0,0.0,0.0,0.0,0.0,0.0,0.0,0.0,0.0,0.0,0.0,0.0,0.0,0.0,0.0,0.0,0.0,0.0,0.0,0.0,0.0,0.0,0.0,0.0,0.0,0.0,0.0,0.0,0.0,0.0,0.0,0.0,0.0,0.0,0.0,0.0,0.0,0.0,0.0,0.0,0.0,0.0,0.0,0.0,0.0,0.0,0.0,0.0,0.0,0.0,0.0,0.0,0.0,0.0,0.0,0.0,0.0,0.0,-3.0487,-2.8551,-2.8516,-3.0607,-2.7654,-2.6341,0.0,0.0,0.0,0.0,0.0,0.0,0.0,0.0,0.0,0.0,0.0,0.0,0.0,0.0,0.0,0.0,0.0,0.0,0.0,0.0,0.0,0.0,0.0,0.0,0.0,0.0,0.0,0.0,0.0,0.0,0.0,0.0,0.0,0.0,0.0,0.0,0.0,0.0,0.0,0.0,0.0,0.0,0.0,0.0,0.0,0.0,0.0,0.0,0.0,0.0,0.0,0.0,0.0,0.0,0.0,0.0,0.0,0.0,0.0,0.0,0.0,0.0,0.0,0.0,0.0,0.0,0.0,0.0,0.0,0.0,0.0,0.0,0.0,0.0,0.0,0.0,0.0,0.0,0.0,0.0,0.0,0.0,0.0,0.0,0.0,0.0,0.0,0.0,0.0,0.0,0.0,0.0,0.0,0.0,0.0,0.0,0.0,0.0,0.0,0.0,0.0,0.0,0.0,0.0,0.0,0.0,0.0,0.0,0.0,-2.678,-2.9031,-3.0137,-2.9938,-2.9683,-2.9134,0.0,0.0,0.0,0.0,0.0,0.0,0.0,0.0,0.0,0.0,0.0,0.0,0.0,0.0,0.0,0.0,0.0,0.0,0.0,0.0,0.0,0.0,0.0,0.0,0.0,0.0,0.0,0.0,0.0,0.0,0.0,0.0,0.0,0.0,0.0,0.0,0.0,0.0,0.0,0.0,0.0,0.0,0.0,0.0,0.0,0.0,0.0,0.0,0.0,0.0,0.0,0.0,0.0,0.0,0.0,0.0,0.0,0.0,0.0,0.0,0.0,0.0,0.0,0.0,0.0,0.0,0.0,0.0,0.0,0.0,0.0,0.0,0.0,0.0,0.0,0.0,0.0,0.0,0.0,0.0,0.0,0.0,0.0,0.0,0.0,0.0,0.0,0.0,0.0,0.0,0.0,0.0,0.0,0.0,0.0,0.0,0.0,0.0,0.0,0.0,0.0,0.0,0.0,0.0,0.0,0.0,0.0,0.0,0.0,-2.686,0.0,-3.2528,-3.1325,-3.1078,-3.0085,0.0,0.0,0.0,0.0,0.0,0.0,0.0,0.0,0.0,0.0,0.0,0.0,0.0,0.0,0.0,0.0,0.0,0.0,0.0,0.0,0.0,0.0,0.0,0.0,0.0,0.0,0.0,0.0,0.0,0.0,0.0,0.0,0.0,0.0,0.0,0.0,0.0,0.0,0.0,0.0,0.0,0.0,0.0,0.0,0.0,0.0,0.0,0.0,0.0,0.0,0.0,0.0,0.0,0.0,0.0,0.0,0.0,0.0,0.0,0.0,0.0,0.0,0.0,0.0,0.0,0.0,0.0,0.0,0.0,0.0,0.0,0.0,0.0,0.0,0.0,0.0,0.0,0.0,0.0,0.0,0.0,0.0,0.0,0.0,0.0,0.0,0.0,0.0,0.0,0.0,0.0,0.0,0.0,0.0,0.0,0.0,0.0,0.0,0.0,0.0,0.0,0.0,0.0,0.0,0.0,0.0,0.0,0.0,-2.7232,-3.1803,-3.4585,-3.5678,-3.5208,-3.1496,-2.8856,0.0,0.0,0.0,0.0,0.0,0.0,0.0,0.0,0.0,0.0,0.0,0.0,0.0,0.0,0.0,0.0,0.0,0.0,0.0,0.0,0.0,0.0,0.0,0.0,0.0,0.0,0.0,0.0,0.0,0.0,0.0,0.0,0.0,0.0,0.0,0.0,0.0,0.0,0.0,0.0,0.0,0.0,0.0,0.0,0.0,0.0,0.0,0.0,0.0,0.0,0.0,0.0,0.0,0.0,0.0,0.0,0.0,0.0,0.0,0.0,0.0,0.0,0.0,0.0,0.0,0.0,0.0,0.0,0.0,0.0,0.0,0.0,0.0,0.0,0.0,0.0,0.0,0.0,0.0,0.0,0.0,0.0,0.0,0.0,0.0,0.0,0.0,0.0,0.0,0.0,0.0,0.0,0.0,0.0,0.0,0.0,0.0,0.0,0.0,0.0,0.0,0.0,0.0,0.0,0.0,0.0,0.0,0.0,0.0,-3.0262,-3.4491,-3.6436,-3.5783,-3.3117,-3.1287,0.0,0.0,0.0,0.0,0.0,0.0,0.0,0.0,0.0,0.0,0.0,0.0,0.0,0.0,0.0,0.0,0.0,0.0,0.0,0.0,0.0,0.0,0.0,0.0,0.0,0.0,0.0,0.0,0.0,0.0,0.0,0.0,0.0,0.0,0.0,0.0,0.0,0.0,0.0,0.0,0.0,0.0,0.0,0.0,0.0,0.0,0.0,0.0,0.0,0.0,0.0,0.0,0.0,0.0,0.0,0.0,0.0,0.0,0.0,0.0,0.0,0.0,0.0,0.0,0.0,0.0,0.0,0.0,0.0,0.0,0.0,0.0,0.0,0.0,0.0,0.0,0.0,0.0,0.0,0.0,0.0,0.0,0.0,0.0,0.0,0.0,0.0,0.0,0.0,0.0,0.0,0.0,0.0,0.0,0.0,0.0,0.0,0.0,0.0,0.0,0.0,0.0,0.0,0.0,0.0,0.0,0.0,0.0,0.0,-3.3052,-3.6593,-3.8318,-3.7717,-3.4685,-3.2751,-3.2032,0.0,0.0,0.0,0.0,0.0,0.0,0.0,0.0,0.0,0.0,0.0,0.0,0.0,0.0,0.0,0.0,0.0,0.0,0.0,0.0,0.0,0.0,0.0,0.0,0.0,0.0,0.0,0.0,0.0,0.0,0.0,0.0,0.0,0.0,0.0,0.0,0.0,0.0,0.0,0.0,0.0,0.0,0.0,0.0,0.0,0.0,0.0,0.0,0.0,0.0,0.0,0.0,0.0,0.0,0.0,0.0,0.0,0.0,0.0,0.0,0.0,0.0,0.0,0.0,0.0,0.0,0.0,0.0,0.0,0.0,0.0,0.0,0.0,0.0,0.0,0.0,0.0,0.0,0.0,0.0,0.0,0.0,0.0,0.0,0.0,0.0,0.0,0.0,0.0,0.0,0.0,0.0,0.0,0.0,0.0,0.0,0.0,0.0,0.0,0.0,0.0,0.0,0.0,0.0,0.0,0.0,0.0,0.0,-3.8815,-4.0566,-4.1141,-4.0435,-3.6044,-3.3352,0.0,0.0,0.0,0.0,0.0,0.0,0.0,0.0,0.0,0.0,0.0,0.0,0.0,0.0,0.0,0.0,0.0,0.0,0.0,0.0,0.0,0.0,0.0,0.0,0.0,0.0,0.0,0.0,0.0,0.0,0.0,0.0,0.0,0.0,0.0,0.0,0.0,0.0,0.0,0.0,0.0,0.0,0.0,0.0,0.0,0.0,0.0,0.0,0.0,0.0,0.0,0.0,0.0,0.0,0.0,0.0,0.0,0.0,0.0,0.0,0.0,0.0,0.0,0.0,0.0,0.0,0.0,0.0,0.0,0.0,0.0,0.0,0.0,0.0,0.0,0.0,0.0,0.0,0.0,0.0,0.0,0.0,0.0,0.0,0.0,0.0,0.0,0.0,0.0,0.0,0.0,0.0,0.0,0.0,0.0,0.0,0.0,0.0,0.0,0.0,0.0,0.0,0.0,0.0,0.0,0.0,0.0,0.0,0.0,-4.0758,-4.242,-4.2709,-4.1638,-3.6828,-3.3927,0.0,0.0,0.0,0.0,0.0,0.0,0.0,0.0,0.0,0.0,0.0,0.0,0.0,0.0,0.0,0.0,0.0,0.0,0.0,0.0,0.0,0.0,0.0,0.0,0.0,0.0,0.0,0.0,0.0,0.0,0.0,0.0,0.0,0.0,0.0,0.0,0.0,0.0,0.0,0.0,0.0,0.0,0.0,0.0,0.0,0.0,0.0,0.0,0.0,0.0,0.0,0.0,0.0,0.0,0.0,0.0,0.0,0.0,0.0,0.0,0.0,0.0,0.0,0.0,0.0,0.0,0.0,0.0,0.0,0.0,0.0,0.0,0.0,0.0,0.0,0.0,0.0,0.0,0.0,0.0,0.0,0.0,0.0,0.0,0.0,0.0,0.0,0.0,0.0,0.0,0.0,0.0,0.0,0.0,0.0,0.0,0.0,0.0,0.0,0.0,0.0,0.0,0.0,0.0,0.0,0.0,0.0,0.0,-3.9256,-4.289,-4.4017,-4.4304,-4.3624,-3.9547,-3.6227,0.0,0.0,0.0,0.0,0.0,0.0,0.0,0.0,0.0,0.0,0.0,0.0,0.0,0.0,0.0,0.0,0.0,0.0,0.0,0.0,0.0,0.0,0.0,0.0,0.0,0.0,0.0,0.0,0.0,0.0,0.0,0.0,0.0,0.0,0.0,0.0,0.0,0.0,0.0,0.0,0.0,0.0,0.0,0.0,0.0,0.0,0.0,0.0,0.0,0.0,0.0,0.0,0.0,0.0,0.0,0.0,0.0,0.0,0.0,0.0,0.0,0.0,0.0,0.0,0.0,0.0,0.0,0.0,0.0,0.0,0.0,0.0,0.0,0.0,0.0,0.0,0.0,0.0,0.0,0.0,0.0,0.0,0.0,0.0,0.0,0.0,0.0,0.0,0.0,0.0,0.0,0.0,0.0,0.0,0.0,0.0,0.0,0.0,0.0,0.0,0.0,0.0,0.0,0.0,0.0,0.0,0.0,0.0,-4.0821,-4.4959,-4.5584,-4.5872,-4.566,-4.284,-3.9128,0.0,0.0,0.0,0.0,0.0,0.0,0.0,0.0,0.0,0.0,0.0,0.0,0.0,0.0,0.0,0.0,0.0,0.0,0.0,0.0,0.0,0.0,0.0,0.0,0.0,0.0,0.0,0.0,0.0,0.0,0.0,0.0,0.0,0.0,0.0,0.0,0.0,0.0,0.0,0.0,0.0,0.0,0.0,0.0,0.0,0.0,0.0,0.0,0.0,0.0,0.0,0.0,0.0,0.0,0.0,0.0,0.0,0.0,0.0,0.0,0.0,0.0,0.0,0.0,0.0,0.0,0.0,0.0,0.0,0.0,0.0,0.0,0.0,0.0,0.0,0.0,0.0,0.0,0.0,0.0,0.0,0.0,0.0,0.0,0.0,0.0,0.0,0.0,0.0,0.0,0.0,0.0,0.0,0.0,0.0,0.0,0.0,0.0,0.0,0.0,0.0,0.0,0.0,0.0,0.0,0.0,0.0,0.0,-4.2592,-4.6656,-4.7362,-4.7414,-4.697,-4.284,-3.8981,0.0,0.0,0.0,0.0,0.0,0.0,0.0,0.0,0.0,0.0,0.0,0.0,0.0,0.0,0.0,0.0,0.0,0.0,0.0,0.0,0.0,0.0,0.0,0.0,0.0,0.0,0.0,0.0,0.0,0.0,0.0,0.0,0.0,0.0,0.0,0.0,0.0,0.0,0.0,0.0,0.0,0.0,0.0,0.0,0.0,0.0,0.0,0.0,-2.2628,0.0,0.0,0.0,0.0,0.0,0.0,0.0,0.0,0.0,0.0,0.0,0.0,0.0,0.0,0.0,0.0,0.0,0.0,0.0,0.0,0.0,0.0,0.0,0.0,0.0,0.0,0.0,0.0,0.0,0.0,0.0,0.0,0.0,0.0,0.0,0.0,0.0,0.0,0.0,0.0,0.0,0.0,0.0,0.0,0.0,0.0,0.0,0.0,0.0,0.0,0.0,0.0,0.0,0.0,0.0,0.0,0.0,0.0,0.0,-4.3967,-4.6813,-4.8015,-4.8198,-4.7226,-4.3986,-4.0216,0.0,0.0,0.0,0.0,0.0,0.0,0.0,0.0,0.0,0.0,0.0,0.0,0.0,0.0,0.0,0.0,0.0,0.0,0.0,0.0,0.0,0.0,0.0,0.0,0.0,0.0,0.0,0.0,0.0,0.0,0.0,0.0,0.0,0.0,0.0,0.0,0.0,0.0,0.0,0.0,0.0,0.0,0.0,0.0,0.0,0.0,0.0,0.0,0.0,0.0,0.0,0.0,0.0,0.0,0.0,0.0,0.0,0.0,0.0,0.0,0.0,0.0,0.0,0.0,0.0,0.0,0.0,0.0,0.0,0.0,0.0,0.0,0.0,0.0,0.0,0.0,0.0,0.0,0.0,0.0,0.0,0.0,0.0,0.0,0.0,0.0,0.0,0.0,0.0,0.0,0.0,0.0,0.0,0.0,0.0,0.0,0.0,0.0,0.0,0.0,0.0,0.0,0.0,0.0,0.0,0.0,0.0,-4.1667,-4.4913,-4.6765,-4.8355,-4.8643,-4.7435,-4.5356,-4.1673,-3.6289,0.0,0.0,0.0,0.0,0.0,0.0,0.0,0.0,0.0,0.0,0.0,0.0,0.0,0.0,0.0,0.0,0.0,0.0,0.0,0.0,0.0,0.0,0.0,0.0,0.0,0.0,0.0,0.0,0.0,0.0,0.0,0.0,0.0,0.0,0.0,0.0,0.0,0.0,-2.2194,-2.4237,0.0,0.0,0.0,0.0,0.0,0.0,0.0,0.0,-2.465,0.0,0.0,0.0,0.0,0.0,0.0,0.0,0.0,0.0,0.0,0.0,0.0,0.0,0.0,0.0,0.0,0.0,0.0,0.0,0.0,0.0,0.0,0.0,0.0,0.0,0.0,0.0,0.0,0.0,0.0,0.0,0.0,0.0,0.0,0.0,0.0,0.0,0.0,0.0,0.0,0.0,0.0,0.0,0.0,0.0,0.0,0.0,0.0,0.0,0.0,0.0,0.0,0.0,0.0,0.0,0.0,-3.8812,-4.1603,-4.4626,-4.7864,-4.9113,-4.9191,-4.8041,-4.5395,-4.1827,-3.7294,0.0,0.0,0.0,0.0,0.0,0.0,0.0,0.0,0.0,0.0,0.0,0.0,0.0,0.0,0.0,0.0,0.0,0.0,0.0,0.0,0.0,0.0,0.0,0.0,0.0,0.0,0.0,0.0,0.0,0.0,0.0,0.0,0.0,0.0,0.0,0.0,0.0,0.0,0.0,-2.6145,-2.6889,0.0,0.0,0.0,0.0,0.0,0.0,0.0,0.0,-2.5466,0.0,0.0,0.0,0.0,0.0,0.0,0.0,0.0,0.0,0.0,0.0,0.0,0.0,0.0,0.0,0.0,0.0,0.0,0.0,0.0,0.0,0.0,0.0,0.0,0.0,0.0,0.0,0.0,0.0,0.0,0.0,0.0,0.0,0.0,0.0,0.0,0.0,0.0,0.0,0.0,0.0,0.0,0.0,0.0,0.0,0.0,0.0,0.0,0.0,0.0,0.0,0.0,0.0,0.0,0.0,-3.9289,-4.2858,-4.57,-4.7675,-4.8878,-4.8714,-4.7106,-4.5309,-4.2054,0.0,0.0,0.0,0.0,0.0,0.0,0.0,0.0,0.0,0.0,0.0,0.0,0.0,0.0,0.0,0.0,0.0,0.0,0.0,0.0,0.0,0.0,0.0,0.0,0.0,0.0,0.0,0.0,0.0,0.0,0.0,0.0,0.0,0.0,0.0,0.0,0.0,0.0,0.0,0.0,-2.7352,-2.8068,-2.841,0.0,0.0,0.0,0.0,0.0,0.0,-2.6044,-2.5873,0.0,0.0,0.0,0.0,0.0,0.0,0.0,0.0,0.0,0.0,0.0,0.0,0.0,0.0,0.0,0.0,0.0,0.0,0.0,0.0,0.0,0.0,0.0,0.0,0.0,0.0,0.0,0.0,0.0,0.0,0.0,0.0,0.0,0.0,0.0,0.0,0.0,0.0,0.0,0.0,0.0,0.0,0.0,0.0,0.0,0.0,0.0,0.0,0.0,0.0,0.0,0.0,0.0,0.0,0.0,-3.9515,-4.3756,-4.6529,-4.7492,-4.8375,-4.7997,-4.6228,-4.5119,-4.2102,0.0,0.0,0.0,0.0,0.0,0.0,0.0,0.0,0.0,0.0,0.0,0.0,0.0,0.0,0.0,0.0,0.0,0.0,0.0,0.0,0.0,0.0,0.0,0.0,0.0,0.0,0.0,0.0,0.0,0.0,0.0,0.0,0.0,0.0,0.0,0.0,0.0,0.0,0.0,0.0,0.0,-2.9049,-2.9363,-2.8944,0.0,0.0,0.0,0.0,-2.6856,-2.7048,0.0,0.0,0.0,0.0,0.0,0.0,0.0,0.0,0.0,0.0,0.0,0.0,0.0,0.0,0.0,0.0,0.0,0.0,0.0,0.0,0.0,0.0,0.0,0.0,0.0,0.0,0.0,0.0,0.0,0.0,0.0,0.0,0.0,0.0,0.0,0.0,0.0,0.0,0.0,0.0,0.0,0.0,0.0,0.0,0.0,0.0,0.0,0.0,0.0,0.0,0.0,0.0,0.0,0.0,0.0,0.0,-3.9802,-4.2913,-4.5619,-4.7937,-4.799,-4.7555,-4.6797,-4.474,-4.1508,0.0,0.0,0.0,0.0,0.0,0.0,0.0,0.0,0.0,0.0,0.0,0.0,0.0,0.0,0.0,0.0,0.0,0.0,0.0,0.0,0.0,0.0,0.0,0.0,0.0,0.0,0.0,0.0,0.0,0.0,0.0,0.0,0.0,0.0,0.0,0.0,0.0,0.0,0.0,0.0,0.0,-2.9761,-2.8845,-2.864,-2.854,0.0,0.0,-2.8534,-2.909,-2.9929,0.0,0.0,0.0,0.0,0.0,0.0,0.0,0.0,0.0,0.0,0.0,0.0,0.0,0.0,0.0,0.0,0.0,0.0,0.0,0.0,0.0,0.0,0.0,0.0,0.0,0.0,0.0,0.0,0.0,0.0,0.0,0.0,0.0,0.0,0.0,0.0,0.0,0.0,0.0,0.0,0.0,0.0,0.0,0.0,0.0,0.0,0.0,0.0,0.0,0.0,0.0,0.0,0.0,0.0,0.0,-3.7651,-4.0333,-4.3389,-4.6062,-4.8068,-4.7594,-4.6921,-4.618,-4.473,-4.1656,0.0,0.0,0.0,0.0,0.0,0.0,0.0,0.0,0.0,0.0,0.0,0.0,0.0,0.0,0.0,0.0,0.0,0.0,0.0,0.0,0.0,0.0,0.0,0.0,0.0,0.0,0.0,0.0,0.0,0.0,0.0,0.0,0.0,0.0,0.0,0.0,0.0,0.0,0.0,0.0,0.0,0.0,-3.0882,-3.036,0.0,0.0,0.0,-3.0558,-2.9926,0.0,0.0,0.0,0.0,0.0,0.0,0.0,0.0,0.0,0.0,0.0,0.0,0.0,0.0,0.0,0.0,0.0,0.0,0.0,0.0,0.0,0.0,0.0,0.0,0.0,0.0,0.0,0.0,0.0,0.0,0.0,0.0,0.0,0.0,0.0,0.0,0.0,0.0,0.0,0.0,0.0,0.0,0.0,0.0,0.0,0.0,0.0,0.0,0.0,0.0,0.0,0.0,0.0,0.0,0.0,0.0,0.0,-4.0631,-4.4043,-4.6473,-4.7675,-4.6918,-4.614,-4.5417,-4.4667,0.0,0.0,0.0,0.0,0.0,0.0,0.0,0.0,0.0,0.0,0.0,0.0,0.0,0.0,0.0,0.0,0.0,0.0,0.0,0.0,0.0,0.0,0.0,0.0,0.0,0.0,0.0,-2.4275,0.0,0.0,0.0,0.0,0.0,0.0,0.0,0.0,0.0,0.0,0.0,0.0,0.0,0.0,-3.1508,-3.2363,-3.1725,-3.1333,0.0,0.0,-3.1889,-3.0969,-3.1952,-3.2211,0.0,0.0,0.0,0.0,0.0,0.0,0.0,0.0,0.0,0.0,0.0,0.0,0.0,0.0,0.0,0.0,0.0,0.0,0.0,0.0,0.0,0.0,0.0,0.0,0.0,0.0,0.0,0.0,0.0,0.0,0.0,0.0,0.0,0.0,0.0,0.0,0.0,0.0,0.0,0.0,0.0,0.0,0.0,0.0,0.0,0.0,0.0,0.0,0.0,0.0,0.0,0.0,0.0,0.0,0.0,-4.0514,-4.4382,-4.6473,-4.6578,-4.5805,-4.5133,-4.4745,-4.4464,-4.2055,0.0,0.0,0.0,0.0,0.0,0.0,0.0,0.0,0.0,0.0,0.0,0.0,0.0,0.0,0.0,0.0,0.0,0.0,0.0,0.0,0.0,0.0,0.0,0.0,0.0,0.0,0.0,0.0,0.0,0.0,0.0,0.0,0.0,0.0,0.0,0.0,0.0,0.0,0.0,0.0,0.0,-3.1688,-3.1772,-3.1709,-3.2197,0.0,0.0,-3.2072,-3.3048,-3.3613,-3.3655,-3.2602,0.0,0.0,0.0,0.0,0.0,0.0,0.0,0.0,0.0,0.0,0.0,0.0,0.0,0.0,0.0,0.0,0.0,0.0,0.0,0.0,0.0,0.0,0.0,0.0,0.0,0.0,0.0,0.0,0.0,0.0,0.0,0.0,0.0,0.0,0.0,0.0,0.0,0.0,0.0,0.0,0.0,0.0,0.0,0.0,0.0,0.0,0.0,0.0,0.0,0.0,0.0,0.0,0.0,-4.0421,-4.1507,-4.4774,-4.6756,-4.7178,-4.6207,-4.5613,-4.5431,-4.5011,-4.3068,0.0,0.0,0.0,0.0,0.0,0.0,0.0,0.0,0.0,0.0,0.0,0.0,0.0,0.0,0.0,0.0,0.0,0.0,0.0,0.0,0.0,0.0,0.0,0.0,0.0,0.0,0.0,0.0,-2.9845,-3.0278,-2.9292,0.0,0.0,0.0,0.0,0.0,0.0,0.0,0.0,0.0,0.0,-3.2773,-3.2773,-3.2965,0.0,0.0,-3.4007,-3.4066,-3.4256,-3.4443,-3.4339,-3.3658,-3.3223,0.0,0.0,0.0,0.0,0.0,0.0,0.0,0.0,0.0,0.0,0.0,0.0,0.0,0.0,0.0,0.0,0.0,0.0,0.0,0.0,0.0,0.0,0.0,0.0,0.0,0.0,0.0,0.0,0.0,0.0,0.0,0.0,0.0,0.0,0.0,0.0,0.0,0.0,0.0,0.0,0.0,0.0,0.0,0.0,0.0,0.0,0.0,0.0,0.0,0.0,0.0,0.0,-4.1021,-4.2211,-4.5138,-4.6898,-4.7419,-4.6398,-4.5776,-4.5664,-4.5461,-4.4004,0.0,0.0,0.0,0.0,0.0,0.0,0.0,0.0,0.0,0.0,0.0,0.0,0.0,0.0,0.0,0.0,0.0,0.0,0.0,0.0,0.0,0.0,0.0,0.0,0.0,0.0,0.0,0.0,-3.1456,-3.1601,-3.1096,0.0,0.0,0.0,0.0,0.0,0.0,0.0,0.0,0.0,0.0,-3.4114,-3.3862,-3.4132,-3.438,-3.4465,-3.49,-3.5066,-3.4691,-3.4608,-3.4463,-3.3986,0.0,0.0,0.0,0.0,0.0,0.0,0.0,0.0,0.0,0.0,0.0,0.0,0.0,0.0,0.0,0.0,0.0,0.0,0.0,0.0,0.0,0.0,0.0,0.0,0.0,0.0,0.0,0.0,0.0,0.0,-3.6691,0.0,0.0,0.0,0.0,0.0,0.0,0.0,0.0,0.0,0.0,0.0,0.0,0.0,0.0,0.0,0.0,0.0,0.0,0.0,0.0,0.0,0.0,-4.176,-4.2238,-4.5282,-4.6875,-4.6927,-4.6019,-4.5393,-4.5182,-4.5639,-4.468,-4.2238,0.0,0.0,0.0,0.0,0.0,0.0,0.0,0.0,0.0,0.0,0.0,0.0,0.0,0.0,0.0,0.0,0.0,0.0,0.0,0.0,0.0,0.0,0.0,0.0,0.0,0.0,-2.9508,-2.9869,-3.1048,0.0,0.0,0.0,0.0,0.0,0.0,0.0,0.0,0.0,0.0,-3.5219,-3.5776,-3.4875,-3.4795,-3.49,-3.5293,-3.5045,-3.4691,-3.4256,-3.4173,-3.3986,0.0,0.0,0.0,0.0,0.0,0.0,0.0,0.0,0.0,0.0,0.0,0.0,0.0,0.0,0.0,0.0,0.0,0.0,0.0,0.0,0.0,0.0,0.0,0.0,0.0,0.0,0.0,-4.0949,-4.0567,0.0,0.0,0.0,0.0,0.0,0.0,0.0,0.0,0.0,0.0,0.0,-4.9336,-4.991,0.0,0.0,0.0,0.0,0.0,0.0,0.0,0.0,0.0,0.0,0.0,0.0,-4.2313,-4.2606,-4.5545,-4.7056,-4.6857,-4.6611,-4.625,-4.5901,-4.6281,-4.5345,-4.2816,0.0,0.0,0.0,0.0,0.0,0.0,0.0,0.0,0.0,0.0,0.0,0.0,0.0,0.0,0.0,0.0,0.0,0.0,0.0,0.0,0.0,0.0,0.0,0.0,0.0,-3.2959,0.0,0.0,0.0,0.0,0.0,0.0,0.0,0.0,0.0,0.0,0.0,-3.5644,-3.5066,-3.5163,-3.5179,-3.4816,-3.5004,-3.5252,0.0,0.0,0.0,0.0,0.0,0.0,0.0,0.0,0.0,0.0,0.0,0.0,0.0,0.0,-3.2371,-3.2058,-3.1767,-3.1579,-3.1579,0.0,0.0,0.0,0.0,0.0,0.0,0.0,0.0,0.0,0.0,0.0,0.0,0.0,0.0,-4.4734,0.0,-4.3573,0.0,0.0,0.0,0.0,0.0,0.0,0.0,0.0,-4.9572,-5.1177,-5.1924,-5.2448,-5.2794,0.0,-5.2624,-5.1084,0.0,0.0,0.0,0.0,0.0,0.0,0.0,0.0,-4.3337,-4.3588,-4.6181,-4.7416,-4.7094,-4.7027,-4.6824,-4.6577,-4.6582,-4.5784,-4.389,-4.261,-4.1229,0.0,0.0,0.0,0.0,0.0,0.0,0.0,0.0,0.0,0.0,0.0,0.0,0.0,0.0,0.0,0.0,0.0,0.0,0.0,0.0,0.0,0.0,0.0,-3.5404,0.0,0.0,0.0,0.0,0.0,0.0,0.0,0.0,0.0,-3.5636,-3.6725,-3.7273,-3.6372,-3.6089,-3.5837,-3.5333,0.0,0.0,0.0,0.0,0.0,0.0,0.0,-3.5231,-3.5231,-3.4838,-3.4693,-3.5148,-3.5231,-3.5273,-3.5438,0.0,0.0,-3.3741,-3.3389,-3.3203,-3.3203,-3.321,-3.322,-3.3389,-3.3394,-3.3336,0.0,0.0,0.0,0.0,0.0,0.0,0.0,0.0,-4.9543,-4.9746,0.0,-4.7724,0.0,0.0,0.0,0.0,0.0,-4.613,0.0,0.0,-5.2201,-5.3685,-5.414,-5.4443,-5.4907,-5.5394,-5.429,-5.395,-5.4258,-5.0657,0.0,0.0,0.0,0.0,0.0,0.0,-4.4898,-4.5163,-4.7074,-4.793,-4.7542,-4.7288,-4.7104,-4.7018,-4.6577,-4.605,-4.5472,-4.394,-4.2559,-4.1404,-3.7765,0.0,0.0,0.0,0.0,0.0,0.0,0.0,0.0,0.0,0.0,0.0,0.0,0.0,0.0,0.0,0.0,0.0,0.0,0.0,0.0,-3.6507,0.0,0.0,0.0,0.0,0.0,0.0,0.0,0.0,0.0,0.0,-3.774,-3.8447,-3.8719,-3.7736,0.0,0.0,0.0,0.0,-3.5604,-3.608,-3.6142,-3.6121,-3.6121,-3.6121,-3.6121,-3.6121,0.0,0.0,-3.608,-3.6142,-3.6287,-3.6722,-3.6059,-3.519,-3.4401,-3.4235,-3.4113,-3.4173,-3.4445,-3.4694,-3.4452,-3.4677,-3.4901,-5.602,0.0,0.0,0.0,0.0,-5.0593,-5.1558,-5.3165,-5.3128,-5.2725,-5.2025,-5.1002,0.0,0.0,0.0,0.0,0.0,0.0,-5.0525,-5.2339,-5.3355,-5.4221,-5.5018,-5.5111,-5.524,-5.5395,-5.4686,-5.4394,-5.4488,-5.3392,-5.0654,-4.6531,0.0,0.0,0.0,0.0,-4.5887,-4.5866,-4.7482,-4.7932,-4.7034,-4.7329,-4.7172,-4.6552,-4.6401,-4.6225,-4.6075,-4.5623,-4.4468,-4.2585,-4.1078,0.0,0.0,0.0,0.0,0.0,0.0,0.0,0.0,0.0,0.0,0.0,0.0,0.0,0.0,0.0,0.0,0.0,0.0,0.0,-3.9247,-3.9442,-3.8887,0.0,0.0,0.0,0.0,0.0,0.0,0.0,0.0,0.0,-3.9267,-3.9325,-3.9206,0.0,0.0,-3.704,-3.6227,-3.5997,-3.608,-3.6535,0.0,0.0,0.0,-3.6597,-3.6597,-3.6618,-3.6763,-3.6949,-3.7074,-3.7094,-3.7136,-3.7281,-3.6804,-3.6308,-3.6059,-3.5459,-3.5086,-3.5045,-3.5148,-3.5355,-3.5521,-3.5706,-3.581,-6.1652,-5.6169,-5.4422,-5.4208,-5.4943,-5.4838,-5.5776,-5.7357,-5.7222,-5.6702,-5.5962,-5.4849,-5.3568,-5.2129,-5.0967,0.0,0.0,0.0,-5.3141,-5.4977,-5.5256,-5.5712,-5.6278,-5.5976,-5.5873,-5.5965,-5.5447,-5.5091,-5.488,-5.4892,-5.3103,-4.966,0.0,0.0,-4.5891,-4.6957,-4.7215,-4.6573,-4.7905,-4.817,-4.7258,-4.7561,-4.7262,-4.6351,-4.6326,-4.6326,-4.6326,-4.6326,-4.5698,-4.4342,-4.3137,-4.1882,0.0,0.0,0.0,0.0,0.0,0.0,0.0,0.0,0.0,0.0,0.0,-3.5931,-3.7188,0.0,0.0,0.0,-3.8989,-4.0198,-4.1084,-4.1058,0.0,0.0,0.0,0.0,0.0,0.0,0.0,-4.0174,-4.0755,-4.0826,-3.9849,-3.9732,-3.9449,-3.868,-3.7758,-3.6972,-3.6455,0.0,-3.6556,-3.7011,-3.7074,-3.7136,-3.7322,-3.7363,-3.7343,-3.7343,-3.757,-3.7757,-3.7777,-3.7777,-3.7777,-3.7736,-3.7529,-3.7363,-3.7343,-3.6887,-3.637,-3.6059,-3.6121,-3.6349,-3.6618,-3.6804,-3.6929,-6.658,-6.5144,-6.1373,-5.9841,-5.9753,-5.944,-6.0116,-6.1496,-6.1525,-6.1291,-6.0794,-5.9065,-5.7319,-5.5703,-5.3402,0.0,-5.4753,-5.4805,-5.5778,-5.7404,-5.77,-5.7862,-5.7783,-5.6937,-5.6623,-5.6795,-5.6317,-5.5842,-5.5342,-5.534,-5.4496,-5.2712,-5.1997,-5.117,-5.0079,-4.9489,-4.8633,-4.7496,-4.8461,-4.864,-4.7908,-4.7857,-4.7355,-4.6326,-4.6326,-4.6326,-4.6326,-4.6326,-4.6326,-4.625,-4.4342,-4.3263,-4.3162,0.0,0.0,0.0,0.0,0.0,0.0,0.0,0.0,0.0,0.0,0.0,0.0,0.0,0.0,0.0,-4.1348,0.0,-4.2241,-4.1791,0.0,0.0,0.0,-4.2035,-4.2982,-4.2455,-4.2049,-4.1976,0.0,0.0,-3.9966,0.0,-3.9423,-3.9001,-3.8174,-3.7483,-3.704,-3.6931,-3.7032,-3.7488,-3.755,-3.7695,-3.8026,-3.8109,-3.8109,-3.8109,-3.8191,-3.815,-3.815,-3.815,-3.8171,-3.815,-3.8171,-3.815,-3.8171,-3.8088,-3.7922,-3.7053,-3.7218,-3.7529,-3.7529,-3.7798,-3.8046,-6.9782,-6.9239,-6.6597,-6.496,-6.401,-6.3476,-6.3713,-6.4455,-6.4249,-6.3683,-6.2854,-6.241,-6.1173,-5.9391,-5.8758,-5.8353,-5.814,-5.8561,-5.8879,-5.9065,-5.8906,-5.862,-5.8172,-5.7944,-5.7111,-5.593,-5.662,-5.5944,-5.4024,-5.444,-5.3928,-5.2516,-5.1908,-5.1294,-5.0638,-5.0429,-5.0132,-4.9583,-4.9559,-4.9048,-4.7908,-4.7506,-4.7004,-4.6326,-4.6326,-4.6326,-4.6326,-4.6326,-4.6326,-4.6301,-4.5799,-4.5522,-4.5497,-4.3288,0.0,0.0,0.0,0.0,0.0,0.0,0.0,0.0,0.0,-4.0023,-4.12,0.0,-4.2585,0.0,-4.3294,-4.3804,-4.3722,-4.3333,0.0,0.0,-4.2743,-4.2421,-4.23,-4.2458,-4.2313,-4.1461,-4.1605,-4.1571,-4.0932,-3.9556,-3.8596,-3.847,-3.7977,-3.7818,-3.8359,-3.7756,-3.7488,-3.7902,-3.8005,-3.8067,-3.815,-3.8191,-3.8191,-3.8191,-3.8191,-3.8191,-3.8191,-3.8191,-3.8191,-3.8191,-3.8191,-3.8191,-3.8191,-3.8191,-3.8129,-3.7902,-3.7943,-3.8026,-3.8026,-3.8109,-3.8191,-7.1338,-7.1218,-6.9679,-6.8296,-6.7159,-6.6115,-6.5937,-6.6298,-6.5704,-6.4929,-6.3945,-6.3235,-6.2349,-6.1348,-6.1145,-6.0704,-6.018,-6.041,-6.0468,-6.0323,-5.9821,-5.956,-5.9335,-5.8494,-5.7624,-5.6753,-5.6992,-5.6335,-5.5045,-5.4987,-5.4611,-5.3714,-5.2638,-5.197,-5.1632,-5.0805,-5.01,-4.9693,-4.9453,-4.8989,-4.8309,-4.8008,-4.7481,-4.6702,-4.6677,-4.6552,-4.6326,-4.6326,-4.6326,-4.6326,-4.6326,-4.6326,-4.6301,-4.5146,-4.4769,0.0,0.0,0.0,0.0,0.0,0.0,0.0,0.0,0.0,0.0,0.0,-4.3714,-4.3714,-4.4267,-4.4527,-4.4411,-4.4236,-4.4135,-4.4205,-4.3815,-4.3395,-4.3103,-4.295,-4.2447,-4.1629,-4.1581,-4.1195,-4.0071,-3.938,-3.8679,-3.8122,-3.7972,-3.7822,-3.7721,-3.7689,-3.7839,-3.7881,-3.8046,-3.8191,-3.8191,-3.8191,-3.8191,-3.8191,-3.8191,-3.8191,-3.8191,-3.8191,-3.8191,-3.8191,-3.8191,-3.8191,-3.8191,-3.8191,-3.8191,-3.8191,-3.8191,-3.8191,-3.8191,-3.8191,-3.8191,-7.2026,-7.1966,-7.1218,-7.0395,-6.9511,-6.8062,-6.7411,-6.7245,-6.628,-6.5441,-6.4575,-6.3188,-6.257,-6.254,-6.2198,-6.1762,-6.141,-6.138,-6.1292,-6.1175,-6.0469,-6.0266,-6.0413,-5.8684,-5.7894,-5.7982,-5.7231,-5.6761,-5.6636,-5.5943,-5.5472,-5.5114,-5.3503,-5.2633,-5.2686,-5.0908,-4.9694,-4.903,-4.8951,-4.8837,-4.8786,-4.8786,-4.8234,-4.7205,-4.7068,-4.6878,-4.6351,-4.6326,-4.6326,-4.6326,-4.6326,-4.6326,-4.6326,-4.6326,-4.61,0.0,-4.5598,0.0,0.0,0.0,0.0,0.0,0.0,0.0,0.0,-4.4694,-4.4744,-4.4744,-4.4794,-4.4844,-4.4844,-4.4786,-4.4987,-4.5463,-4.4977,-4.4533,-4.441,-4.354,-4.2699,-4.2038,-4.1557,-4.0608,-3.9085,-3.9203,-3.9007,-3.8148,-3.7883,-3.7509,-3.6602,-3.7281,-3.7881,-3.7488,-3.7798,-3.8067,-3.815,-3.8191,-3.8191,-3.8191,-3.8191,-3.8191,-3.8191,-3.8191,-3.8191,-3.8191,-3.8191,-3.8191,-3.8191,-3.8191,-3.8191,-3.8191,-3.8191,-3.8191,-3.8191,-3.8191,-3.8191,-7.2714,-7.2595,-7.1398,-7.0764,-7.055,-6.9987,-6.8422,-6.6221,-6.5509,-6.5246,-6.5283,-6.5289,-6.5139,-6.4807,-6.3973,-6.3468,-6.311,-6.228,-6.1926,-6.1868,-6.0495,-5.9706,-5.9405,-5.8326,-5.7415,-5.6743,-5.7045,-5.6667,-5.5488,-5.4822,-5.4367,-5.4001,-5.2404,-5.1844,-5.2305,0.0,0.0,0.0,-4.9581,-4.9238,-4.8786,-4.8786,-4.8259,-4.7118,-4.7068,0.0,-4.6351,-4.6326,-4.6326,-4.6326,-4.6326,0.0,0.0,0.0,0.0,0.0,0.0,0.0,0.0,0.0,0.0,0.0,-4.5497,-4.4995,-4.4669,-4.5045,-4.5321,-4.5321,-4.5723,-4.5999,-4.5999,-4.5735,-4.5604,-4.5704,-4.5341,-4.4865,-4.4183,-4.3892,-4.3324,-4.2145,-4.1952,-4.1537,-4.0642,-3.9498,-3.8672,-3.8598,-3.7759,-3.6999,-3.6703,-3.7218,-3.7446,-3.7074,-3.7425,-3.7777,-3.8129,-3.8191,-3.8191,-3.8191,-3.8191,-3.8191,-3.8191,-3.8191,-3.8191,-3.8191,-3.8191,-3.8191,-3.8191,-3.8191,-3.8191,-3.8191,-3.8191,-3.8191,-3.8191,-3.8191,-3.8191,-7.2924,0.0,-7.1457,-7.058,0.0,-6.9957,-6.86,-6.6479,-6.6803,-6.6694,-6.6198,-6.5872,-6.5754,-6.5695,-6.4582,-6.3989,-6.3789,-6.2307,-6.181,-6.1992,-6.0642,-6.0114,-6.0374,-5.8902,-5.8095,-5.7729,-5.7287,-5.6605,-5.5885,-5.5195,-5.4734,-5.4311,-5.3011,-5.2573,-5.2884,-5.2068,-5.1339,-5.0705,-5.0207,-4.9866,-4.959,-4.9314,-4.8786,-4.7983,0.0,0.0,0.0,0.0,0.0,0.0,0.0,0.0,0.0,0.0,0.0,-4.6728,-4.6954,-4.7104,-4.7079,-4.6828,-4.6803,-4.7079,-4.6853,-4.6326,-4.5522,-4.5723,-4.5899,-4.5899,-4.615,-4.6326,-4.6301,-4.612,-4.6059,-4.6024,-4.5635,-4.5049,-4.4352,-4.3929,-4.3276,-4.2241,-4.1966,-4.1633,-4.0584,-3.9674,-3.8701,-3.8089,-3.7734,-3.7128,-3.6392,-3.7136,-3.7715,-3.7529,-3.7653,-3.7922,-3.8129,-3.8191,-3.8191,-3.8191,-3.8191,-3.8191,-3.8191,-3.8191,-3.8191,-3.8191,-3.8191,-3.8191,-3.8191,-3.8191,-3.8191,-3.8191,-3.8191,-3.8191,-3.8191,-3.8191,-3.8191,-7.2924,-7.2804,-7.1457,-7.0395,-6.966,-6.966,-6.8907,-6.7732,0.0,0.0,0.0,-6.6025,-6.579,-6.604,-6.4856,-6.4392,-6.4295,-6.2489,-6.1964,-6.2352,-6.0938,-6.0701,-6.1257,-5.9447,-5.8682,-5.8933,-5.7374,-5.6577,-5.6563,-5.571,-5.5206,-5.482,-5.3861,-5.341,-5.3316,-5.2614,-5.2026,-5.1574,-5.0921,-5.0519,-5.0419,-4.9967,-4.9439,-4.8786,-4.8786,-4.851,-4.7933,-4.7506,-4.728,-4.7255,-4.6828,-4.6602,-4.6602,-4.7029,-4.7193,-4.7218,-4.7682,-4.7908,-4.7908,-4.7908,-4.7908,-4.7908,-4.7908,-4.7531,-4.6652,-4.6602,-4.6602,-4.6602,-4.6502,-4.6451,-4.6451,-4.6376,-4.6326,-4.6326,-4.5817,-4.5255,-4.4691,-4.4098,-4.3373,-4.2458,-4.2206,-4.1659,-4.0399,-4.0012,-3.9199,-3.7813,-3.7749,-3.7549,-3.6269,-3.6846,-3.7715,-3.7881,-3.7922,-3.8046,-3.8171,-3.8191,-3.8191,-3.8191,-3.8191,-3.8191,-3.8191,-3.8191,-3.8191,-3.8191,-3.8191,-3.8191,-3.8191,-3.8191,-3.8191,-3.8191,-3.8191,-3.8191,-3.8191,-3.8191,-3.8191,-7.2924,-7.2804,-7.1457,-7.0829,-7.0704,-7.0704,-7.0585,-7.0127,-6.7876,-6.674,-6.6562,-6.6411,-6.6382,-6.6382,-6.589,-6.5706,-6.5683,-6.4354,-6.3736,0.0,-6.166,-6.0534,-6.032,-5.8682,-5.8056,-5.8179,-5.665,-5.6101,-5.6379,-5.498,-5.4309,-5.4443,-5.3521,-5.2998,-5.2998,-5.2854,-5.2779,-5.2678,-5.1674,-5.0921,-5.0444,-5.0343,-4.9816,-4.8837,-4.8786,-4.8485,-4.7933,-4.7857,-4.7782,-4.7807,-4.7732,-4.7682,-4.7682,-4.7757,-4.7807,-4.7807,-4.7857,-4.7908,-4.7908,-4.7908,-4.7908,-4.7908,-4.7908,-4.7832,-4.7707,-4.7682,-4.7682,-4.7657,-4.723,-4.6943,-4.6918,-4.6577,-4.6326,-4.6301,-4.618,-4.5914,-4.5244,-4.4669,-4.4001,-4.3301,-4.2904,-4.2423,-4.1683,-4.0834,-3.9836,-3.8857,-3.7906,-3.7336,-3.6728,-3.6473,-3.6763,-3.7384,-3.7591,-3.7757,-3.8088,-3.8191,-3.8191,-3.8191,-3.8191,-3.8191,-3.8191,-3.815,-3.8129,-3.8171,-3.8129,-3.815,-3.815,-3.8191,-3.8191,-3.8191,-3.8191,-3.8191,-3.8191,-3.8191,-3.8191,-7.2924,-7.2744,-7.1457,-7.0919,-7.0919,-7.0919,-7.0919,-7.0769,-6.9146,-6.8363,-6.8303,-6.743,-6.7135,-6.7138,-6.5834,-6.5261,-6.5388,-6.3754,-6.3313,-6.3608,-6.1318,-6.0365,-6.0442,-5.8541,-5.7681,-5.7797,-5.6422,-5.5713,-5.5657,-5.4578,-5.3861,-5.3657,-5.311,-5.2861,-5.2861,-5.2861,-5.2861,-5.2929,-5.2151,-5.1448,-5.0896,-5.0569,-5.0017,-4.9238,-4.9213,-4.9088,-4.8837,-4.8535,-4.8385,-4.8385,-4.8083,-4.7908,-4.7908,-4.8209,-4.836,-4.8385,-4.8661,-4.8837,-4.8812,-4.8837,-4.8812,-4.8812,-4.8837,-4.8812,-4.8812,-4.8259,-4.7782,-4.7506,-4.7193,-4.7004,-4.6728,-4.6451,-4.6326,-4.6326,-4.5999,-4.5635,-4.5306,-4.4768,-4.4147,-4.3614,-4.3313,-4.288,-4.2062,-4.0678,-3.9522,-3.8656,-3.7436,-3.6499,-3.6744,-3.6639,-3.6701,-3.7363,-3.7695,-3.7922,-3.815,-3.8191,-3.8191,-3.8191,-3.8191,-3.8191,-3.8171,-3.8026,-3.7839,-3.7798,-3.7819,-3.7819,-3.7839,-3.8026,-3.815,-3.8191,-3.8191,-3.8191,-3.8191,-3.8191,-3.8191,-7.2924,-7.2804,-7.1457,-7.0919,-7.0919,-7.0919,-7.0829,-7.0649,-7.032,-7.0021,-6.9602,-6.8181,-6.7585,-6.7441,-6.5716,-6.5088,-6.5064,-6.3515,-6.31,-6.3395,-6.1093,-6.0256,-6.0641,-5.8613,-5.7602,-5.7515,-5.6401,-5.5456,-5.4835,-5.4106,-5.3452,-5.2929,-5.2861,-5.2861,-5.2861,-5.2861,-5.2861,-5.2836,-5.2503,-5.1975,-5.1297,-5.0845,-5.0293,-4.964,-4.959,-4.959,-4.9565,-4.9188,-4.8962,-4.8937,-4.8535,-4.8284,-4.8309,-4.8711,-4.8962,-4.8987,-4.9364,-4.959,-4.959,-4.959,-4.959,-4.959,-4.949,-4.9414,-4.9339,-4.8485,-4.7807,-4.7556,-4.7431,-4.7154,-4.6803,-4.6577,-4.6502,-4.6441,-4.593,-4.5576,-4.5294,-4.4779,-4.4264,-4.377,-4.3697,-4.3252,-4.1947,-4.0542,-3.9288,-3.8049,-3.6526,-3.5956,-3.6494,-3.6784,-3.7136,-3.7446,-3.7881,-3.815,-3.8191,-3.8191,-3.8191,-3.8191,-3.8191,-3.8191,-3.8129,-3.7881,-3.7695,-3.7715,-3.7695,-3.7736,-3.7715,-3.7922,-3.815,-3.8191,-3.8191,-3.8191,-3.8191,-3.8191,-3.8191,-7.2894,-7.2714,-7.1457,-7.0919,-7.0919,-7.0919,-7.059,-7.0201,-7.059,-7.0141,-6.9064,-6.8002,-6.7222,-6.6687,-6.6384,-6.6295,-6.6204,-6.5214,-6.4502,-6.3789,-6.1585,-6.0455,-6.0238,-5.9052,-5.8242,-5.7569,-5.652,-5.5472,-5.4604,-5.3546,-5.2998,-5.2929,-5.2861,-5.2861,-5.2861,-5.2861,-5.2861,-5.2861,-5.2879,-5.2352,-5.1348,-5.1222,-5.0695,-4.964,-4.959,-4.959,-4.959,-4.9565,-4.9515,-4.9515,-4.9439,-4.9414,-4.9414,-4.949,-4.9515,-4.9515,-4.9565,-4.959,-4.959,-4.959,-4.959,-4.9565,-4.9138,-4.8887,-4.8862,-4.8284,-4.8134,-4.8309,-4.8058,-4.7707,-4.7732,-4.728,-4.6892,-4.6781,-4.6525,-4.618,-4.5368,-4.4963,-4.4631,-4.4275,-4.4141,-4.3559,-4.1831,-4.0921,-3.9764,-3.7301,-3.641,-3.5976,-3.6246,-3.6846,-3.7322,-3.7529,-3.7881,-3.815,-3.8191,-3.8191,-3.8191,-3.8191,-3.8191,-3.8191,-3.815,-3.8109,-3.8088,-3.786,-3.8005,-3.7984,-3.8026,-3.8171,-3.8171,-3.8191,-3.8191,-3.8191,-3.8191,-3.8191,-3.8191,-7.2325,-7.2206,-7.1308,-7.0919,-7.0919,-7.0919,-7.056,-7.0021,-7.0231,-6.9632,-6.8465,-6.7951,-6.762,-6.7352,-6.6994,-6.6691,-6.6414,-6.565,-6.4948,-6.4096,-6.2097,-6.0931,-6.0457,-5.9027,-5.8208,-5.7738,-5.6238,-5.5403,-5.5086,-5.4003,-5.3231,-5.2955,-5.2861,-5.2861,-5.2861,-5.2861,-5.2861,-5.2861,-5.2861,-5.2553,-5.1825,-5.1448,-5.0745,-4.9741,-4.959,-4.959,-4.959,-4.959,-4.959,-4.959,-4.959,-4.959,-4.959,-4.959,-4.959,-4.959,-4.959,-4.959,-4.959,-4.959,-4.959,-4.959,-4.9088,-4.8786,-4.8736,-4.8234,-4.7908,-4.7782,-4.7581,-4.733,-4.7029,-4.6778,-4.6531,-4.6348,-4.6043,-4.5638,-4.5073,-4.4717,-4.447,-4.4347,-4.4285,-4.3626,-4.1862,-4.0173,-3.8363,-3.6427,-3.5811,-3.5832,-3.6101,-3.668,-3.7156,-3.7488,-3.7902,-3.815,-3.8191,-3.8191,-3.8191,-3.8191,-3.8191,-3.8191,-3.8171,-3.7922,-3.7777,-3.7798,-3.7839,-3.7839,-3.7736,-3.8046,-3.8191,-3.8191,-3.8191,-3.8191,-3.8191,-3.8191,-3.8191,-7.1876,-7.1787,-7.1188,-7.0919,-7.0889,-7.0709,-7.029,-6.9752,-6.9722,-6.8974,-6.7777,-6.7867,-6.7929,-6.7657,-6.7178,-6.6814,-6.629,-6.5664,-6.4851,-6.3945,-6.2286,-6.1219,-6.064,-5.9144,-5.8154,-5.7583,-5.6012,-5.5076,-5.4996,-5.4105,-5.3306,-5.298,-5.2861,-5.2861,-5.2861,-5.2861,-5.2861,-5.2861,-5.2861,-5.2653,-5.2126,-5.1724,-5.0971,-4.9941,-4.9816,-4.9741,-4.9615,-4.959,-4.959,-4.959,-4.959,-4.959,-4.959,-4.959,-4.959,-4.959,-4.959,-4.959,-4.959,-4.959,-4.959,-4.9565,-4.9088,-4.8786,-4.8661,-4.8109,-4.7556,-4.723,-4.6943,-4.6753,-4.6627,-4.6527,-4.6406,-4.6163,-4.5797,-4.538,-4.4988,-4.4594,-4.4223,-4.395,-4.3826,-4.3177,-4.1285,-3.9066,-3.698,-3.5936,-3.5749,-3.5894,-3.6266,-3.6722,-3.7177,-3.7612,-3.7984,-3.815,-3.8191,-3.8191,-3.8191,-3.8191,-3.8191,-3.8191,-3.8191,-3.786,-3.7695,-3.7943,-3.7757,-3.7715,-3.786,-3.8088,-3.8191,-3.8191,-3.8191,-3.8191,-3.8191,-3.8191,-3.8125,-7.1876,-7.1787,-7.1188,-7.0919,-7.0859,-7.032,-6.9662,-6.9123,-6.9064,-6.8315,-6.7238,-6.7687,-6.7627,-6.7089,-6.6999,-6.6661,-6.604,-6.5348,-6.4358,-6.3101,-6.1978,-6.1156,-6.0468,-5.9347,-5.8322,-5.7486,-5.5982,-5.4603,-5.3262,-5.3099,-5.2955,-5.2861,-5.2861,-5.2861,-5.2861,-5.2861,-5.2861,-5.2861,-5.2861,-5.2678,-5.2201,-5.2101,-5.1548,-5.0544,-5.0368,-5.0092,-4.9665,-4.959,-4.959,-4.959,-4.959,-4.959,-4.959,-4.959,-4.959,-4.959,-4.959,-4.959,-4.959,-4.959,-4.959,-4.954,-4.9088,-4.8761,-4.8636,-4.7807,-4.7143,-4.7104,-4.6652,-4.6552,-4.6903,-4.6817,-4.6892,-4.6856,-4.639,-4.5835,-4.5319,-4.4717,-4.3888,-4.324,-4.3028,-4.2063,-3.9601,-3.7826,-3.6916,-3.635,-3.6453,-3.6722,-3.6804,-3.7156,-3.7591,-3.7943,-3.815,-3.8191,-3.8191,-3.8191,-3.8191,-3.8191,-3.8191,-3.8191,-3.8191,-3.8171,-3.8129,-3.8129,-3.8067,-3.8067,-3.8129,-3.8171,-3.8191,-3.8191,-3.8191,-3.8191,-3.8191,-3.8191,-3.8125,-7.1637,-7.1248,-7.1009,-7.0919,-7.0889,-7.0679,-6.9991,-6.9034,-6.9004,-6.8256,-6.7178,-6.7238,-6.7208,-6.6999,-6.6999,-6.66,-6.5915,-6.5002,-6.4024,-6.2877,-6.1847,-6.1134,-6.0578,-5.9359,-5.8601,-5.7974,-5.6375,-5.4796,-5.3602,-5.3783,-5.3607,-5.3005,-5.2861,-5.2861,-5.2861,-5.2861,-5.2861,-5.2861,-5.2861,-5.2804,-5.2628,-5.2628,-5.2251,-5.1523,-5.0795,-5.0142,-4.9615,-4.959,-4.959,-4.959,-4.959,-4.959,-4.959,-4.959,-4.959,-4.959,-4.959,-4.959,-4.959,-4.959,-4.959,-4.9565,-4.9088,-4.8611,-4.8184,-4.7556,-4.6943,-4.6677,-4.6451,-4.6426,-4.6527,-4.6602,-4.6481,-4.6298,-4.603,-4.5674,-4.5135,-4.4779,-4.4385,-4.3826,-4.324,-4.181,-3.971,-3.853,-3.7805,-3.6787,-3.6701,-3.6929,-3.7198,-3.7405,-3.7674,-3.8046,-3.8191,-3.8191,-3.8191,-3.8191,-3.8191,-3.8191,-3.8191,-3.8191,-3.8191,-3.8191,-3.815,-3.815,-3.8191,-3.8191,-3.8171,-3.8171,-3.8191,-3.8191,-3.8191,-3.8191,-3.8191,-3.8191,-3.8104,-7.1308,-7.0949,-7.0919,-7.0919,-7.0859,-7.047,-6.9812,-6.8974,-6.8525,-6.7837,-6.7089,-6.6876,-6.6785,-6.6691,-6.6538,-6.604,-6.5348,-6.4746,-6.3908,-6.2753,-6.1979,-6.1397,-6.0715,-5.9284,-5.8546,-5.8226,-5.6346,-5.4682,-5.3828,-5.3934,-5.3632,-5.298,-5.2861,-5.2861,-5.2861,-5.2861,-5.2854,-5.2729,-5.2829,-5.2854,-5.2729,-5.2854,-5.2653,-5.2101,-5.1348,-5.0695,-5.0167,-5.0142,-5.0142,-5.0142,-5.0142,-5.0067,-4.9891,-4.969,-4.959,-4.959,-4.959,-4.959,-4.959,-4.959,-4.959,-4.959,-4.9264,-4.8837,-4.8435,-4.7807,-4.7255,-4.6878,-4.6451,-4.6326,-4.6326,-4.6326,-4.618,-4.5939,-4.5757,-4.5453,-4.5025,-4.4779,-4.4323,-4.3639,-4.246,-4.1005,-3.9627,-3.898,-3.8184,-3.7159,-3.7032,-3.7177,-3.7425,-3.7508,-3.7653,-3.8088,-3.8191,-3.8191,-3.8191,-3.8191,-3.8191,-3.8191,-3.8191,-3.8191,-3.8191,-3.8191,-3.8191,-3.8191,-3.8191,-3.8191,-3.8191,-3.8191,-3.8191,-3.8191,-3.8191,-3.8191,-3.8191,-3.8191,-3.8104,-7.0919,-7.0919,-7.0919,-7.0919,-7.0769,-6.9812,-6.9123,-6.8824,-6.7747,-6.7268,-6.7029,-6.6691,-6.6382,-6.604,-6.5727,-6.4967,-6.4232,-6.4518,-6.3871,-6.2448,-6.218,-6.1777,-6.0975,-5.9062,-5.8158,-5.8127,-5.5873,-5.4381,-5.3808,-5.3406,-5.308,-5.2886,-5.2861,-5.2861,-5.2861,-5.2836,-5.2653,-5.2377,-5.2628,-5.2603,-5.2226,-5.2528,-5.2553,-5.2151,-5.2,-5.1749,-5.1297,-5.1222,-5.1122,-5.1172,-5.1172,-5.0971,-5.0444,-5.0017,-4.9665,-4.9741,-4.969,-4.9665,-4.964,-4.9665,-4.969,-4.959,-4.9565,-4.9464,-4.9138,-4.846,-4.7832,-4.7531,-4.6928,-4.6351,-4.6326,-4.6326,-4.6326,-4.624,-4.5757,-4.5392,-4.5208,-4.4717,-4.3888,-4.2862,-4.1377,-3.9888,-3.9495,-3.8993,-3.8232,-3.7722,-3.7488,-3.7508,-3.7591,-3.7612,-3.7736,-3.8046,-3.8191,-3.8191,-3.8191,-3.8191,-3.8191,-3.8191,-3.8191,-3.8191,-3.8191,-3.8191,-3.8191,-3.8191,-3.8191,-3.8191,-3.8191,-3.8191,-3.8191,-3.8191,-3.8191,-3.8191,-3.8191,-3.8191,-3.7971,-7.0919,-7.0919,-7.0919,-7.0919,-7.0859,-7.047,-6.9842,-6.9004,-6.8525,-6.7867,-6.7057,-6.6629,-6.6165,-6.5635,-6.5256,-6.4425,-6.3254,-6.3413,-6.3018,-6.2018,-6.1207,-6.066,-5.9916,-5.8402,-5.7318,-5.6794,-5.5779,-5.4838,-5.4285,-5.3733,-5.3306,-5.3005,-5.2861,-5.2861,-5.2861,-5.2836,-5.2653,-5.2201,-5.2277,-5.2076,-5.1599,-5.1699,-5.1875,-5.2101,-5.2101,-5.2176,-5.2352,-5.1699,-5.1297,-5.1297,-5.1272,-5.1197,-5.1021,-5.0845,-5.077,-5.077,-5.0745,-5.0544,-5.0218,-5.0142,-4.9967,-4.969,-4.959,-4.9389,-4.9088,-4.8736,-4.8159,-4.7581,-4.7054,-4.6753,-4.6401,-4.6326,-4.6376,-4.6326,-4.5878,-4.5514,-4.5208,-4.4717,-4.3576,-4.2166,-4.1761,-4.0926,-3.9407,-3.8769,-3.875,-3.8117,-3.7943,-3.7943,-3.7964,-3.7922,-3.7984,-3.8171,-3.8191,-3.8191,-3.8191,-3.8191,-3.8191,-3.8191,-3.8191,-3.8191,-3.8191,-3.8191,-3.8191,-3.8191,-3.8191,-3.8191,-3.8191,-3.8191,-3.8191,-3.8191,-3.8191,-3.8191,-3.8191,-3.8104,-3.7904,-7.0919,-7.0919,-7.0919,-7.0919,-7.0859,-7.052,-6.9833,-6.897,-6.8579,-6.7862,-6.7057,-6.6629,-6.5978,-6.51,-6.4653,-6.3777,-6.2592,-6.2487,-6.1991,-6.1247,-6.0591,-5.983,-5.9105,-5.7901,-5.6768,-5.6012,-5.5566,-5.5114,-5.4561,-5.4185,-5.3658,-5.3055,-5.313,-5.3105,-5.2886,-5.2836,-5.2603,-5.195,-5.2,-5.1724,-5.1172,-5.1172,-5.1448,-5.1749,-5.18,-5.1975,-5.2251,-5.1624,-5.1473,-5.1749,-5.1724,-5.1599,-5.1574,-5.1398,-5.1272,-5.1272,-5.1247,-5.0996,-5.0519,-5.0368,-5.0167,-4.9715,-4.959,-4.9464,-4.9113,-4.8937,-4.8385,-4.7908,-4.7531,-4.728,-4.6979,-4.6903,-4.6842,-4.6745,-4.598,-4.5416,-4.4963,-4.4594,-4.3912,-4.2799,-4.227,-4.1271,-4.017,-3.888,-3.9012,-3.8304,-3.8191,-3.8191,-3.8191,-3.8171,-3.8191,-3.8191,-3.8191,-3.8191,-3.8191,-3.8191,-3.8191,-3.8191,-3.8191,-3.8191,-3.8191,-3.8191,-3.8191,-3.8191,-3.8191,-3.8191,-3.8191,-3.8191,-3.8191,-3.8191,-3.8191,-3.8191,-3.8191,-3.7971,-3.777,-7.0919,-7.0919,-7.0919,-7.0919,-7.0764,-6.9997,-6.9372,-6.8817,-6.7872,-6.7156,-6.6781,-6.6352,-6.5509,-6.4396,-6.3944,-6.3122,-6.1951,-6.1749,-6.1138,-6.0384,-5.99,-5.9342,-5.8212,-5.7426,-5.6573,-5.5713,-5.544,-5.5139,-5.4712,-5.4436,-5.4009,-5.3155,-5.3356,-5.3406,-5.3005,-5.2861,-5.2402,-5.1574,-5.18,-5.1473,-5.0494,-5.082,-5.1172,-5.1222,-5.1222,-5.1297,-5.1398,-5.1348,-5.1774,-5.2603,-5.2327,-5.2151,-5.2051,-5.1649,-5.1498,-5.1523,-5.1398,-5.1122,-5.067,-5.0569,-5.0268,-4.969,-4.959,-4.959,-4.949,-4.9138,-4.8837,-4.8586,-4.8209,-4.7908,-4.7832,-4.772,-4.7533,-4.7221,-4.6143,-4.5196,-4.4457,-4.4271,-4.3764,-4.3451,-4.242,-4.1055,-4.056,-3.9144,-3.8503,-3.8258,-3.8191,-3.8191,-3.8212,-3.8233,-3.8233,-3.8233,-3.8253,-3.8253,-3.8274,-3.8191,-3.8191,-3.8191,-3.8191,-3.8191,-3.8191,-3.8191,-3.8191,-3.8191,-3.8191,-3.8191,-3.8191,-3.8191,-3.8191,-3.8191,-3.8191,-3.8191,-3.8037,-3.7837,-3.7549,-7.0919,-7.0919,-7.0919,-7.0919,-7.0824,-7.0319,-6.9541,-6.856,-6.7489,-6.647,-6.5651,-6.5383,-6.4461,-6.3028,-6.3357,-6.2659,-6.1411,-6.1098,-6.0246,-5.9131,-5.892,-5.8141,-5.7065,-5.6631,-5.6337,-5.5942,-5.5616,-5.5315,-5.5114,-5.4411,-5.3833,-5.3507,-5.3281,-5.3105,-5.2929,-5.2861,-5.2352,-5.1448,-5.1398,-5.0971,-5.0042,-4.9967,-5.0243,-5.0619,-5.0645,-5.0845,-5.1222,-5.1272,-5.1574,-5.2251,-5.2628,-5.2703,-5.2628,-5.2477,-5.2352,-5.2402,-5.2402,-5.2026,-5.1247,-5.1021,-5.0594,-4.9741,-4.9615,-4.959,-4.959,-4.9464,-4.9188,-4.8887,-4.8611,-4.8385,-4.7996,-4.7733,-4.7356,-4.6665,-4.6075,-4.5386,-4.4828,-4.3852,-4.2925,-4.2102,-4.0991,-4.0105,-3.9341,-3.8769,-3.8191,-3.8191,-3.8212,-3.8233,-3.8316,-3.8543,-3.8647,-3.844,-3.8378,-3.8357,-3.8336,-3.8233,-3.8191,-3.8191,-3.8191,-3.8191,-3.8191,-3.8191,-3.8191,-3.8191,-3.8191,-3.8191,-3.8191,-3.8171,-3.8191,-3.8125,-3.8058,-3.7971,-3.7837,-3.7616,-3.728,-7.0919,-7.0919,-7.0919,-7.0919,-7.0854,-7.0397,-6.9673,-6.8654,-6.7298,-6.6172,-6.5303,-6.4705,-6.3684,-6.2403,-6.2763,-6.1963,-6.0453,-6.0618,-5.9787,-5.8141,-5.7641,-5.6993,-5.6365,-5.6219,-5.6219,-5.6194,-5.5892,-5.5616,-5.534,-5.4687,-5.421,-5.3733,-5.3406,-5.3155,-5.2861,-5.2836,-5.2377,-5.1498,-5.1247,-5.072,-4.969,-4.959,-4.9741,-5.0042,-5.0067,-5.0268,-5.0544,-5.077,-5.1172,-5.1674,-5.2051,-5.2352,-5.2578,-5.2603,-5.2703,-5.281,-5.2861,-5.2427,-5.1548,-5.1272,-5.087,-5.0117,-4.9766,-4.9741,-4.9816,-4.9766,-4.9389,-4.9188,-4.9113,-4.8937,-4.8673,-4.8192,-4.7681,-4.7231,-4.6512,-4.5812,-4.5149,-4.3734,-4.2696,-4.1761,-4.0668,-3.9517,-3.8814,-3.8524,-3.8258,-3.8233,-3.8398,-3.844,-3.8543,-3.8807,-3.8993,-3.8854,-3.8667,-3.8647,-3.8502,-3.8378,-3.8212,-3.8212,-3.8191,-3.8191,-3.8191,-3.8191,-3.8191,-3.8191,-3.8191,-3.8191,-3.8191,-3.8104,-3.7904,-3.7837,-3.7837,-3.7703,-3.7482,-3.728,-3.6924,-7.0824,-7.0824,-7.0824,-7.0854,-7.0694,-7.017,-6.9618,-6.8903,-6.7033,-6.5963,-6.5302,-6.4214,-6.3026,-6.2113,-6.1884,-6.1125,-5.9525,-6.0039,-5.9131,-5.7784,-5.6848,-5.6292,-5.6292,-5.6219,-5.6219,-5.6194,-5.6219,-5.5917,-5.5591,-5.539,-5.4787,-5.4059,-5.3758,-5.3406,-5.2961,-5.2861,-5.2327,-5.1473,-5.1272,-5.0695,-4.9816,-4.959,-4.964,-4.9665,-4.969,-4.969,-4.9841,-5.0117,-5.0569,-5.1071,-5.1197,-5.1599,-5.2,-5.2026,-5.2302,-5.2678,-5.2729,-5.2352,-5.1599,-5.1423,-5.1147,-5.0569,-5.0092,-4.9967,-5.0318,-5.0193,-4.9891,-4.969,-4.969,-4.9525,-4.9207,-4.8828,-4.8297,-4.7693,-4.7075,-4.6247,-4.5095,-4.3709,-4.2749,-4.2494,-4.078,-3.993,-3.9405,-3.8898,-3.8274,-3.844,-3.8605,-3.873,-3.8957,-3.933,-3.9364,-3.9282,-3.9096,-3.8931,-3.8771,-3.8523,-3.8357,-3.8233,-3.8191,-3.8191,-3.8191,-3.8191,-3.8191,-3.8191,-3.8191,-3.8191,-3.8171,-3.8037,-3.777,-3.7616,-3.7549,-3.7348,-3.7011,-3.6856,-3.6654,-7.0498,-7.0498,-7.0498,-7.0498,-7.0433,-7.0038,-6.9222,-6.8078,-6.6525,-6.5283,-6.4051,-6.2933,-6.1904,-6.0865,-6.0657,-5.9793,-5.885,-5.892,-5.8284,-5.7426,-5.6558,-5.6219,-5.6219,-5.6219,-5.6219,-5.6219,-5.6219,-5.6143,-5.5942,-5.5541,-5.5064,-5.4461,-5.3884,-5.3457,-5.303,-5.2904,-5.2402,-5.1498,-5.1297,-5.072,-4.9866,-4.9615,-4.959,-4.959,-4.959,-4.959,-4.9615,-4.9715,-4.9841,-5.0117,-5.0745,-5.1247,-5.1398,-5.1448,-5.1724,-5.2151,-5.2302,-5.2176,-5.1975,-5.1825,-5.1699,-5.1172,-5.0921,-5.0971,-5.1046,-5.0971,-5.0645,-5.0368,-5.0218,-4.9821,-4.9017,-4.8706,-4.8313,-4.7731,-4.713,-4.6264,-4.508,-4.3697,-4.2544,-4.1484,-4.0412,-3.9443,-3.9088,-3.8979,-3.8641,-3.8662,-3.8807,-3.8972,-3.9323,-3.9785,-3.9868,-3.9847,-3.9633,-3.9406,-3.8978,-3.8688,-3.8378,-3.8295,-3.8295,-3.8316,-3.8316,-3.8274,-3.8295,-3.8253,-3.8191,-3.8191,-3.8171,-3.7837,-3.7549,-3.7415,-3.728,-3.6944,-3.6674,-3.6519,-3.6403,-7.0397,-7.0397,-7.0397,-7.0397,-7.0331,-7.0068,-6.9265,-6.8017,-6.6441,-6.4875,-6.3398,-6.2004,-6.0827,-5.9924,-5.944,-5.8797,-5.7999,-5.7569,-5.7426,-5.7065,-5.6558,-5.6219,-5.6219,-5.6219,-5.6219,-5.6219,-5.6219,-5.6219,-5.6068,-5.5691,-5.5239,-5.4888,-5.4135,-5.3632,-5.3256,-5.3055,-5.2503,-5.18,-5.1398,-5.0845,-5.0117,-4.9715,-4.959,-4.959,-4.959,-4.959,-4.959,-4.9615,-4.9615,-4.9741,-5.0167,-5.0645,-5.0845,-5.0896,-5.1172,-5.1624,-5.2,-5.1925,-5.1825,-5.195,-5.1975,-5.1699,-5.1448,-5.1473,-5.1498,-5.1448,-5.0996,-5.0569,-5.0278,-4.9997,-4.8976,-4.8666,-4.8313,-4.787,-4.7323,-4.6404,-4.4863,-4.3511,-4.2327,-4.1204,-4.0209,-3.9577,-3.9247,-3.9117,-3.9117,-3.9117,-3.9516,-3.9612,-3.9847,-4.0199,-4.0365,-4.0344,-4.022,-3.9889,-3.922,-3.8833,-3.8378,-3.8357,-3.844,-3.8523,-3.8585,-3.8523,-3.846,-3.8357,-3.8253,-3.8191,-3.8125,-3.777,-3.7348,-3.7213,-3.6944,-3.6606,-3.6336,-3.6268,-3.6219,-7.0331,-7.0331,-7.0265,-7.0265,-7.02,-6.9936,-6.9241,-6.8248,-6.6518,-6.4704,-6.3027,-6.1158,-5.9849,-5.913,-5.8401,-5.7739,-5.7138,-5.6631,-5.6631,-5.6848,-5.6485,-5.6219,-5.6219,-5.6219,-5.6219,-5.6219,-5.6219,-5.6219,-5.6093,-5.5767,-5.5516,-5.5214,-5.4386,-5.3833,-5.3607,-5.3181,-5.2628,-5.2051,-5.1674,-5.1197,-5.0619,-5.0167,-4.9967,-4.9791,-4.964,-4.9615,-4.959,-4.959,-4.959,-4.959,-4.959,-4.9841,-5.0142,-5.0318,-5.0619,-5.1222,-5.1699,-5.1875,-5.1925,-5.2076,-5.2251,-5.2201,-5.185,-5.18,-5.2026,-5.1875,-5.1373,-5.077,-5.0393,-4.9912,-4.9212,-4.8772,-4.8445,-4.8026,-4.7696,-4.6473,-4.4664,-4.3421,-4.2523,-4.1255,-4.0486,-3.9979,-3.9744,-3.9571,-3.9571,-3.9633,-3.9964,-4.0282,-4.0427,-4.053,-4.0634,-4.0696,-4.0551,-4.0303,-3.9744,-3.8972,-3.8564,-3.8688,-3.875,-3.8854,-3.8957,-3.8869,-3.8765,-3.8393,-3.8249,-3.8187,-3.7924,-3.7482,-3.7146,-3.6944,-3.6674,-3.6287,-3.6152,-3.6035,-3.6055,-7.0002,-6.9936,-6.9604,-6.947,-6.947,-6.9404,-6.8567,-6.7305,-6.5977,-6.4324,-6.2298,-6.0305,-5.9024,-5.8221,-5.7102,-5.651,-5.6412,-5.6292,-5.6292,-5.6485,-5.6292,-5.6219,-5.6219,-5.6219,-5.6219,-5.6219,-5.6219,-5.6219,-5.6194,-5.6093,-5.5767,-5.534,-5.4712,-5.4185,-5.3658,-5.3181,-5.2703,-5.2277,-5.1975,-5.1599,-5.1222,-5.087,-5.0494,-5.0142,-4.9766,-4.9615,-4.959,-4.959,-4.959,-4.959,-4.959,-4.9665,-4.9766,-4.9791,-5.0268,-5.0996,-5.1398,-5.1699,-5.2277,-5.2628,-5.2779,-5.2779,-5.2603,-5.2578,-5.2703,-5.2603,-5.1975,-5.1122,-5.0293,-4.9561,-4.9162,-4.8837,-4.8445,-4.8026,-4.7497,-4.654,-4.4755,-4.3776,-4.2911,-4.1291,-4.0771,-4.0468,-4.0261,-4.0116,-4.0116,-4.0116,-4.0261,-4.051,-4.0655,-4.0737,-4.08,-4.082,-4.082,-4.053,-4.0179,-3.9413,-3.8874,-3.9164,-3.922,-3.9282,-3.9364,-3.9364,-3.9179,-3.8842,-3.8341,-3.8007,-3.7677,-3.7233,-3.7011,-3.6876,-3.6471,-3.6035,-3.6055,-3.6074,-3.6133,-6.9604,-6.9537,-6.9001,-6.8972,-6.9136,-6.8431,-6.7512,-6.6441,-6.5209,-6.3396,-6.1253,-5.9673,-5.8516,-5.7588,-5.6664,-5.6219,-5.6219,-5.6219,-5.6219,-5.6219,-5.6219,-5.6219,-5.6219,-5.6219,-5.6219,-5.6219,-5.6219,-5.6219,-5.6219,-5.6194,-5.5917,-5.539,-5.4838,-5.426,-5.3708,-5.3181,-5.2829,-5.2503,-5.2251,-5.2,-5.1624,-5.1247,-5.0569,-5.0067,-4.9791,-4.9615,-4.959,-4.959,-4.959,-4.959,-4.959,-4.959,-4.959,-4.969,-4.9967,-5.072,-5.1122,-5.1624,-5.2427,-5.2729,-5.2836,-5.2861,-5.2861,-5.2861,-5.2861,-5.2804,-5.2402,-5.1398,-5.0293,-4.9525,-4.9396,-4.8927,-4.851,-4.8182,-4.7431,-4.6001,-4.4595,-4.3769,-4.2538,-4.1289,-4.0921,-4.0675,-4.0655,-4.0572,-4.0572,-4.0572,-4.0551,-4.0675,-4.0862,-4.0882,-4.0882,-4.082,-4.0779,-4.0551,-4.0282,-3.9785,-3.933,-3.9599,-3.9736,-3.9798,-3.9749,-3.968,-3.9548,-3.9265,-3.8753,-3.8065,-3.7543,-3.7166,-3.6944,-3.6742,-3.6336,-3.6035,-3.6094,-3.6152,-3.625,-6.9203,-6.9001,-6.8363,-6.8363,-6.8499,-6.7541,-6.6469,-6.5467,-6.4255,-6.2305,-5.9836,-5.8974,-5.7943,-5.7019,-5.647,-5.6219,-5.6219,-5.6219,-5.6219,-5.6219,-5.6219,-5.6219,-5.6219,-5.6219,-5.6219,-5.6219,-5.6219,-5.6219,-5.6219,-5.6219,-5.5968,-5.5541,-5.4963,-5.4386,-5.3884,-5.3281,-5.3055,-5.2804,-5.2528,-5.2251,-5.1875,-5.1147,-5.0318,-4.9791,-4.9665,-4.959,-4.959,-4.959,-4.959,-4.959,-4.959,-4.959,-4.959,-4.959,-4.9866,-5.0393,-5.0971,-5.1548,-5.2226,-5.2653,-5.2861,-5.2861,-5.2861,-5.2861,-5.2854,-5.2729,-5.2352,-5.1473,-5.0645,-4.9941,-4.9761,-4.9206,-4.8764,-4.8313,-4.7232,-4.5731,-4.4549,-4.3492,-4.2538,-4.1643,-4.1147,-4.0841,-4.0779,-4.0779,-4.0737,-4.0717,-4.0717,-4.0717,-4.0882,-4.0882,-4.0841,-4.0737,-4.0634,-4.0489,-4.0282,-4.0046,-3.9889,-4.0054,-4.017,-4.0274,-4.0133,-3.9991,-3.9748,-3.9393,-3.8838,-3.8154,-3.7602,-3.7092,-3.6861,-3.6522,-3.6259,-3.6181,-3.6289,-3.6426,-3.6543,-6.8905,-6.8295,-6.7953,-6.7472,-6.6986,-6.6637,-6.5763,-6.4265,-6.3035,-6.1237,-5.9048,-5.7945,-5.707,-5.6445,-5.6294,-5.6219,-5.6219,-5.6219,-5.6219,-5.6219,-5.6219,-5.6219,-5.6219,-5.6219,-5.6219,-5.6219,-5.6219,-5.6219,-5.6219,-5.6219,-5.6118,-5.5767,-5.5013,-5.4507,-5.4059,-5.3306,-5.2886,-5.2929,-5.2854,-5.2578,-5.2076,-5.1448,-5.0845,-5.0318,-4.9866,-4.959,-4.959,-4.959,-4.959,-4.959,-4.959,-4.959,-4.959,-4.959,-4.9891,-5.0393,-5.0996,-5.1724,-5.2528,-5.2854,-5.2861,-5.2861,-5.2861,-5.2861,-5.2829,-5.2503,-5.2201,-5.2076,-5.1348,-5.0795,-5.0287,-4.9636,-4.9175,-4.8467,-4.7593,-4.6116,-4.4778,-4.3492,-4.2468,-4.1764,-4.1147,-4.0933,-4.0841,-4.0862,-4.0862,-4.0862,-4.0882,-4.0882,-4.0882,-4.0882,-4.0882,-4.0779,-4.0717,-4.0551,-4.051,-4.0303,-4.0303,-4.0468,-4.0572,-4.0625,-4.0299,-4.0024,-3.9729,-3.9333,-3.8768,-3.8307,-3.7788,-3.7222,-3.6798,-3.6475,-3.6348,-3.6436,-3.6562,-3.6719,-3.6934,-6.8227,-6.7856,-6.7333,-6.6945,-6.6455,-6.522,-6.4039,-6.297,-6.1848,-6.0008,-5.8171,-5.7748,-5.7047,-5.6344,-5.6219,-5.6219,-5.6219,-5.6219,-5.6219,-5.6219,-5.6219,-5.6219,-5.6219,-5.6219,-5.6219,-5.6219,-5.6219,-5.6219,-5.6219,-5.6143,-5.5993,-5.5315,-5.4813,-5.416,-5.3934,-5.3206,-5.2911,-5.2861,-5.281,-5.2628,-5.2101,-5.1574,-5.1021,-5.0444,-4.9891,-4.9665,-4.959,-4.959,-4.959,-4.959,-4.959,-4.959,-4.959,-4.9665,-4.9941,-5.0845,-5.1122,-5.1649,-5.2327,-5.2729,-5.2836,-5.2861,-5.2861,-5.2861,-5.2829,-5.2477,-5.2126,-5.2101,-5.1599,-5.1197,-5.0763,-4.9934,-4.9643,-4.9047,-4.7973,-4.6779,-4.5279,-4.3744,-4.2608,-4.1905,-4.1289,-4.1075,-4.0882,-4.0882,-4.0882,-4.0882,-4.0882,-4.0882,-4.0882,-4.0882,-4.0882,-4.0862,-4.08,-4.0717,-4.0717,-4.0655,-4.0613,-4.0696,-4.0717,-4.0678,-4.0341,-3.9993,-3.9625,-3.9318,-3.8838,-3.8391,-3.7876,-3.7341,-3.6887,-3.6661,-3.6524,-3.6729,-3.6953,-3.7344,-3.7578,-6.7166,-6.6749,-6.6215,-6.5933,-6.555,-6.3465,-6.2344,-6.1737,-6.0749,-5.9133,-5.7699,-5.7374,-5.6922,-5.6394,-5.6219,-5.6219,-5.6219,-5.6219,-5.6219,-5.6219,-5.6219,-5.6219,-5.6219,-5.6219,-5.6219,-5.6219,-5.6219,-5.6219,-5.6219,-5.6143,-5.5817,-5.4963,-5.4988,-5.4361,-5.3607,-5.3256,-5.313,-5.2861,-5.2861,-5.2628,-5.2151,-5.1749,-5.1122,-5.0544,-5.0042,-4.9741,-4.9615,-4.959,-4.959,-4.959,-4.959,-4.959,-4.959,-4.964,-4.9866,-5.0594,-5.0946,-5.1423,-5.2,-5.2452,-5.276,-5.2861,-5.2861,-5.2861,-5.2879,-5.2503,-5.2302,-5.2377,-5.2076,-5.1682,-5.1222,-5.0404,-4.9952,-4.9266,-4.8208,-4.7181,-4.6013,-4.4492,-4.2829,-4.1643,-4.1075,-4.1004,-4.0882,-4.0882,-4.0882,-4.0882,-4.0882,-4.0882,-4.0882,-4.0882,-4.0882,-4.0882,-4.0841,-4.08,-4.082,-4.0862,-4.0882,-4.0811,-4.0811,-4.0525,-4.0022,-3.9734,-3.9385,-3.9063,-3.8793,-3.8387,-3.7909,-3.7445,-3.6953,-3.6945,-3.6925,-3.707,-3.7383,-3.7793,-3.8066,-6.5707,-6.4419,-6.4374,-6.3938,-6.3306,-6.1864,-6.1126,-6.0782,-5.9709,-5.8803,-5.7725,-5.6872,-5.642,-5.6244,-5.6219,-5.6219,-5.6219,-5.6219,-5.6219,-5.6219,-5.6219,-5.6219,-5.6219,-5.6219,-5.6219,-5.6219,-5.6219,-5.6219,-5.6219,-5.6219,-5.6143,-5.6043,-5.5415,-5.4963,-5.4361,-5.3733,-5.3281,-5.2961,-5.2861,-5.2703,-5.2302,-5.195,-5.1523,-5.072,-5.0393,-5.0142,-4.964,-4.9615,-4.959,-4.959,-4.959,-4.959,-4.959,-4.959,-4.9816,-5.0167,-5.0896,-5.1322,-5.1749,-5.2402,-5.276,-5.2861,-5.2861,-5.2861,-5.2836,-5.2861,-5.2785,-5.2779,-5.2553,-5.2197,-5.1675,-5.1111,-5.045,-4.9757,-4.8714,-4.749,-4.6357,-4.5175,-4.3502,-4.172,-4.1037,-4.1203,-4.1048,-4.1089,-4.0924,-4.0903,-4.0882,-4.0882,-4.0882,-4.0882,-4.0882,-4.0882,-4.0882,-4.0862,-4.0862,-4.0882,-4.0668,-4.0596,-4.0525,-4.0094,-3.9538,-3.9248,-3.9228,-3.8938,-3.8627,-3.8301,-3.8105,-3.7832,-3.7578,-3.7344,-3.7324,-3.75,-3.7754,-3.8125,-3.834,-6.4779,-6.4056,-6.2688,-6.2194,-6.2268,-6.1262,-6.0629,-6.0148,-5.9566,-5.8757,-5.7826,-5.6771,-5.6219,-5.6219,-5.6219,-5.6219,-5.6219,-5.6219,-5.6219,-5.6219,-5.6219,-5.6219,-5.6219,-5.6219,-5.6219,-5.6219,-5.6219,-5.6219,-5.6219,-5.6219,-5.6219,-5.6043,-5.5691,-5.5114,-5.4561,-5.4009,-5.3457,-5.308,-5.2861,-5.2779,-5.2653,-5.2226,-5.19,-5.1548,-5.0594,-5.0393,-5.0092,-4.9741,-4.964,-4.959,-4.959,-4.959,-4.959,-4.959,-4.9741,-5.0017,-5.082,-5.1272,-5.1724,-5.2402,-5.2836,-5.2861,-5.2861,-5.2861,-5.2861,-5.2861,-5.2861,-5.2861,-5.2861,-5.2523,-5.2173,-5.1457,-5.0749,-5.0198,-4.9173,-4.7866,-4.6652,-4.5412,-4.4146,-4.234,-4.1783,-4.1783,-4.1597,-4.1338,-4.1131,-4.0944,-4.0903,-4.0882,-4.0882,-4.0882,-4.0882,-4.0882,-4.0811,-4.074,-4.0811,-4.0668,-4.0525,-4.031,-4.0258,-3.9754,-3.9248,-3.9248,-3.9103,-3.8793,-3.8574,-3.8437,-3.834,-3.834,-3.8144,-3.7812,-3.7754,-3.7871,-3.8164,-3.8437,-3.8516,-6.3546,-6.2984,-6.1167,-6.0813,-6.1368,-6.0378,-5.9845,-5.9718,-5.9236,-5.8654,-5.7826,-5.6746,-5.6219,-5.6219,-5.6219,-5.6219,-5.6219,-5.6219,-5.6219,-5.6219,-5.6219,-5.6219,-5.6219,-5.6219,-5.6219,-5.6219,-5.6219,-5.6219,-5.6219,-5.6219,-5.6219,-5.6093,-5.5817,-5.5365,-5.4787,-5.4059,-5.3507,-5.3231,-5.298,-5.2861,-5.2854,-5.2578,-5.2201,-5.2051,-5.1322,-5.0745,-5.0444,-5.0067,-4.9791,-4.9665,-4.959,-4.959,-4.959,-4.964,-4.9816,-5.0218,-5.0695,-5.1222,-5.1674,-5.2427,-5.281,-5.2861,-5.2861,-5.2861,-5.2861,-5.2861,-5.2861,-5.2861,-5.2861,-5.2698,-5.2283,-5.1615,-5.1101,-5.0543,-4.9227,-4.7932,-4.6728,-4.5567,-4.4359,-4.2982,-4.2638,-4.2136,-4.2032,-4.1804,-4.1431,-4.111,-4.0903,-4.0882,-4.0882,-4.0882,-4.0882,-4.0811,-4.074,-4.074,-4.0668,-4.0525,-4.031,-3.9827,-3.9682,-3.9538,-3.9176,-3.9103,-3.903,-3.872,-3.8574,-3.8574,-3.8535,-3.8476,-3.834,-3.8184,-3.8184,-3.8203,-3.8301,-3.8516,-3.8535,-6.2168,-6.0737,-5.9946,-6.0022,-6.0532,-5.8757,-5.863,-5.9335,-5.8529,-5.7976,-5.7675,-5.6671,-5.6219,-5.6219,-5.6219,-5.6219,-5.6219,-5.6219,-5.6219,-5.6219,-5.6219,-5.6219,-5.6219,-5.6219,-5.6219,-5.6219,-5.6219,-5.6219,-5.6219,-5.6219,-5.6219,-5.6219,-5.6068,-5.5792,-5.529,-5.426,-5.3733,-5.3632,-5.3231,-5.3055,-5.3005,-5.2879,-5.2553,-5.2277,-5.195,-5.1373,-5.0896,-5.0393,-5.0092,-4.9841,-4.964,-4.9615,-4.959,-4.959,-4.9665,-4.9741,-5.0218,-5.0519,-5.067,-5.2076,-5.2678,-5.2785,-5.2854,-5.2829,-5.2836,-5.2861,-5.2861,-5.2861,-5.2861,-5.2515,-5.2144,-5.1702,-5.1282,-5.0363,-4.9012,-4.7748,-4.6508,-4.5347,-4.4049,-4.3373,-4.2846,-4.2343,-4.2343,-4.2198,-4.1762,-4.141,-4.1007,-4.0882,-4.0903,-4.0882,-4.0882,-4.0811,-4.074,-4.0596,-4.0453,-4.0382,-4.0094,-3.9538,-3.9248,-3.9176,-3.8938,-3.8793,-3.872,-3.8574,-3.8574,-3.8574,-3.8574,-3.8574,-3.8457,-3.8379,-3.8457,-3.8496,-3.8574,-3.8574,-3.8574,-6.1167,-6.066,-5.9792,-5.9663,-5.9793,-5.8831,-5.8855,-5.9232,-5.8403,-5.7675,-5.7223,-5.6495,-5.6219,-5.6219,-5.6219,-5.6219,-5.6219,-5.6219,-5.6219,-5.6219,-5.6219,-5.6219,-5.6219,-5.6219,-5.6219,-5.6219,-5.6219,-5.6219,-5.6219,-5.6219,-5.6219,-5.6219,-5.6168,-5.5917,-5.5465,-5.4888,-5.4712,-5.4235,-5.3783,-5.3432,-5.3406,-5.313,-5.2829,-5.2603,-5.2302,-5.19,-5.1398,-5.0896,-5.0444,-5.0117,-4.9916,-4.9665,-4.964,-4.964,-4.959,-4.969,-5.0117,-5.082,-5.1172,-5.2,-5.2176,-5.2477,-5.2628,-5.2603,-5.2829,-5.2861,-5.2861,-5.2861,-5.2723,-5.2377,-5.1935,-5.1516,-5.093,-4.9533,-4.8217,-4.7029,-4.5836,-4.4667,-4.3627,-4.3552,-4.3159,-4.287,-4.2766,-4.258,-4.2239,-4.1866,-4.1483,-4.111,-4.1027,-4.0924,-4.0882,-4.0811,-4.0668,-4.0453,-4.031,-4.0166,-3.9806,-3.9321,-3.9103,-3.9103,-3.8865,-3.8647,-3.8574,-3.8574,-3.8574,-3.8574,-3.8574,-3.8574,-3.8574,-3.8574,-3.8574,-3.8574,-3.8574,-3.8574,-3.8574,-6.0405,-5.9998,-5.9462,-5.9106,-5.8905,-5.8579,-5.8554,-5.8529,-5.7901,-5.7374,-5.6972,-5.647,-5.6219,-5.6219,-5.6219,-5.6219,-5.6219,-5.6219,-5.6219,-5.6219,-5.6219,-5.6219,-5.6219,-5.6219,-5.6219,-5.6219,-5.6219,-5.6219,-5.6219,-5.6219,-5.6219,-5.6219,-5.6219,-5.6043,-5.5691,-5.544,-5.5164,-5.4662,-5.4185,-5.3658,-5.3507,-5.3256,-5.2861,-5.2804,-5.2603,-5.2277,-5.195,-5.1473,-5.0896,-5.0619,-5.0243,-4.9891,-4.9841,-4.969,-4.964,-4.9741,-4.9941,-5.0619,-5.1071,-5.0896,-5.1247,-5.2101,-5.2101,-5.2302,-5.2628,-5.2779,-5.2836,-5.2792,-5.2535,-5.2213,-5.1771,-5.1397,-5.0624,-4.9223,-4.7945,-4.6824,-4.5937,-4.4816,-4.3725,-4.3594,-4.3573,-4.3346,-4.3201,-4.2973,-4.2683,-4.2331,-4.1979,-4.1586,-4.1193,-4.1048,-4.0944,-4.0801,-4.0638,-4.0474,-4.0187,-3.993,-3.959,-3.9083,-3.8958,-3.8885,-3.8793,-3.8574,-3.8574,-3.8574,-3.8574,-3.8574,-3.8574,-3.8574,-3.8574,-3.8574,-3.8574,-3.8574,-3.8574,-3.8574,-3.8574,-5.9871,-5.8755,-5.8704,-5.8403,-5.7976,-5.7926,-5.7575,-5.7072,-5.6998,-5.7047,-5.6947,-5.6394,-5.6219,-5.6219,-5.6219,-5.6219,-5.6219,-5.6219,-5.6219,-5.6219,-5.6219,-5.6219,-5.6219,-5.6219,-5.6219,-5.6219,-5.6219,-5.6219,-5.6219,-5.6219,-5.6219,-5.6219,-5.6219,-5.6143,-5.5968,-5.5742,-5.5465,-5.5039,-5.4411,-5.3909,-5.3632,-5.3206,-5.2911,-5.2879,-5.2804,-5.2578,-5.2302,-5.195,-5.1649,-5.1272,-5.072,-5.0469,-5.0218,-4.9866,-4.969,-4.9615,-4.9665,-5.0167,-5.0544,-5.0318,-5.0619,-5.1624,-5.1875,-5.2026,-5.2151,-5.2377,-5.2452,-5.2391,-5.2092,-5.1921,-5.1698,-5.1279,-5.0787,-4.9415,-4.814,-4.7192,-4.6477,-4.5362,-4.405,-4.3615,-4.3615,-4.3511,-4.3491,-4.3325,-4.3035,-4.2745,-4.2393,-4.2051,-4.1638,-4.1214,-4.1059,-4.0925,-4.074,-4.0443,-4.0115,-3.9734,-3.9373,-3.8865,-3.8793,-3.872,-3.8647,-3.8574,-3.8574,-3.8574,-3.8574,-3.8574,-3.8574,-3.8574,-3.8574,-3.8574,-3.8574,-3.8574,-3.8574,-3.8574,-3.8574,-5.9008,-5.8679,-5.8303,-5.8052,-5.7851,-5.7449,-5.6972,-5.652,-5.6747,-5.6846,-5.642,-5.6294,-5.6219,-5.6219,-5.6219,-5.6219,-5.6219,-5.6219,-5.6219,-5.6219,-5.6219,-5.6219,-5.6219,-5.6219,-5.6219,-5.6219,-5.6219,-5.6219,-5.6219,-5.6219,-5.6219,-5.6219,-5.6219,-5.6219,-5.6143,-5.6043,-5.5742,-5.529,-5.4587,-5.416,-5.3683,-5.3231,-5.303,-5.2861,-5.2861,-5.2754,-5.2653,-5.2302,-5.2026,-5.18,-5.0921,-5.0444,-5.0368,-4.9916,-4.9615,-4.9665,-4.9967,-5.0419,-5.082,-5.0519,-5.0619,-5.1373,-5.1649,-5.1498,-5.1574,-5.1699,-5.185,-5.184,-5.1526,-5.1284,-5.1137,-5.0819,-5.0381,-4.944,-4.8194,-4.7118,-4.633,-4.5084,-4.3843,-4.3615,-4.3615,-4.3615,-4.3615,-4.3573,-4.3304,-4.3056,-4.2733,-4.2348,-4.1977,-4.1534,-4.1203,-4.1017,-4.0801,-4.0523,-3.9907,-3.9413,-3.9103,-3.872,-3.8647,-3.8574,-3.8574,-3.8574,-3.8574,-3.8574,-3.8574,-3.8574,-3.8574,-3.8574,-3.8574,-3.8574,-3.8574,-3.8574,-3.8574,-3.8574,-3.8574,-5.8278,-5.8027,-5.77,-5.7449,-5.7198,-5.6872,-5.6495,-5.6294,-5.657,-5.6495,-5.6244,-5.6219,-5.6219,-5.6219,-5.6219,-5.6219,-5.6219,-5.6219,-5.6219,-5.6219,-5.6219,-5.6219,-5.6219,-5.6219,-5.6219,-5.6219,-5.6219,-5.6219,-5.6219,-5.6219,-5.6219,-5.6219,-5.6219,-5.6219,-5.6194,-5.6143,-5.5892,-5.539,-5.4838,-5.4411,-5.3909,-5.3356,-5.303,-5.2886,-5.2886,-5.2886,-5.2836,-5.2503,-5.2452,-5.2277,-5.1348,-5.077,-5.067,-5.0268,-5.0167,-5.0268,-5.0569,-5.0896,-5.1122,-5.0971,-5.1222,-5.1448,-5.1348,-5.1021,-5.1071,-5.1222,-5.1348,-5.1356,-5.0861,-5.0481,-5.0479,-5.0312,-4.9883,-4.9416,-4.8125,-4.6898,-4.5735,-4.4579,-4.3974,-4.3691,-4.3615,-4.3615,-4.3615,-4.3615,-4.3491,-4.3139,-4.2774,-4.2398,-4.2027,-4.1647,-4.1314,-4.1008,-4.0878,-4.0643,-3.9931,-3.9202,-3.8997,-3.8739,-3.8647,-3.8574,-3.8574,-3.8574,-3.8574,-3.8574,-3.8574,-3.8574,-3.8574,-3.8574,-3.8574,-3.8574,-3.8574,-3.8574,-3.8574,-3.8574,-3.8574,-5.7524,-5.7072,-5.6923,-5.6721,-5.6269,-5.6244,-5.6244,-5.6219,-5.6244,-5.6219,-5.6219,-5.6219,-5.6219,-5.6219,-5.6219,-5.6219,-5.6219,-5.6219,-5.6219,-5.6219,-5.6219,-5.6219,-5.6219,-5.6219,-5.6219,-5.6219,-5.6219,-5.6219,-5.6219,-5.6219,-5.6219,-5.6219,-5.6219,-5.6219,-5.6219,-5.6219,-5.5993,-5.5616,-5.5089,-5.4637,-5.431,-5.3683,-5.303,-5.303,-5.303,-5.3005,-5.2886,-5.2836,-5.2861,-5.2553,-5.2076,-5.1398,-5.1021,-5.0946,-5.0971,-5.1021,-5.1222,-5.1348,-5.1448,-5.1398,-5.1448,-5.1373,-5.0921,-5.0845,-5.1021,-5.0745,-5.0745,-5.0829,-5.0431,-5.027,-5.0204,-4.9869,-4.9421,-4.8733,-4.7709,-4.6636,-4.5623,-4.4475,-4.3593,-4.3366,-4.3366,-4.3408,-4.3615,-4.3615,-4.3421,-4.3105,-4.2761,-4.2426,-4.2038,-4.1703,-4.1379,-4.1022,-4.0941,-4.07,-3.9838,-3.9273,-3.8983,-3.8779,-3.8686,-3.8574,-3.8574,-3.8574,-3.8574,-3.8574,-3.8574,-3.8574,-3.8574,-3.8594,-3.8594,-3.8574,-3.8574,-3.8574,-3.8594,-3.8652,-3.8613,-5.7148,-5.6997,-5.6595,-5.6319,-5.6219,-5.6219,-5.6219,-5.6219,-5.6219,-5.6219,-5.6219,-5.6219,-5.6219,-5.6219,-5.6219,-5.6219,-5.6219,-5.6219,-5.6219,-5.6219,-5.6219,-5.6219,-5.6219,-5.6219,-5.6219,-5.6219,-5.6219,-5.6219,-5.6219,-5.6219,-5.6219,-5.6219,-5.6219,-5.6219,-5.6219,-5.6219,-5.6068,-5.5867,-5.5491,-5.5013,-5.4662,-5.4436,-5.4034,-5.3708,-5.3507,-5.3256,-5.313,-5.2929,-5.2861,-5.2754,-5.2277,-5.1749,-5.1297,-5.1523,-5.1523,-5.1423,-5.1724,-5.185,-5.19,-5.195,-5.2051,-5.2176,-5.195,-5.1498,-5.1071,-5.0419,-5.0167,-5.0237,-5.024,-5.0157,-4.9928,-4.9547,-4.8964,-4.8123,-4.7291,-4.6346,-4.5478,-4.4369,-4.3193,-4.3097,-4.3097,-4.3242,-4.3449,-4.3477,-4.3324,-4.3043,-4.2604,-4.2255,-4.1999,-4.1701,-4.1223,-4.0928,-4.1012,-4.0698,-3.9849,-3.9421,-3.919,-3.8955,-3.8823,-3.8672,-3.8594,-3.8574,-3.8574,-3.8574,-3.8574,-3.8652,-3.8691,-3.8613,-3.8613,-3.8672,-3.8789,-3.8887,-3.8887,-3.8945,-3.8789,-5.6671,-5.662,-5.6344,-5.6219,-5.6219,-5.6219,-5.6219,-5.6219,-5.6219,-5.6219,-5.6219,-5.6219,-5.6219,-5.6219,-5.6219,-5.6219,-5.6219,-5.6219,-5.6219,-5.6219,-5.6219,-5.6219,-5.6219,-5.6219,-5.6219,-5.6219,-5.6219,-5.6219,-5.6219,-5.6219,-5.6219,-5.6219,-5.6219,-5.6219,-5.6219,-5.6219,-5.6219,-5.6168,-5.5842,-5.5566,-5.5139,-5.4863,-5.4511,-5.411,-5.3808,-5.3582,-5.3331,-5.3105,-5.2929,-5.2779,-5.2352,-5.2051,-5.1774,-5.1875,-5.2051,-5.2151,-5.2327,-5.2477,-5.2452,-5.2477,-5.2578,-5.2653,-5.2427,-5.1774,-5.1649,-5.1046,-5.0494,-5.0579,-5.0489,-5.038,-5.0173,-4.984,-4.9118,-4.8263,-4.7281,-4.6271,-4.4909,-4.3518,-4.2849,-4.2621,-4.2642,-4.2663,-4.289,-4.3139,-4.3009,-4.3057,-4.2659,-4.2206,-4.1988,-4.1689,-4.1178,-4.0904,-4.1042,-4.085,-4.0249,-3.9821,-3.9567,-3.9238,-3.8945,-3.8809,-3.873,-3.8633,-3.8574,-3.8769,-3.8887,-3.8887,-3.8887,-3.8926,-3.8906,-3.8984,-3.9121,-3.9258,-3.9258,-3.9277,-3.9258,-5.6219,-5.6219,-5.6219,-5.6219,-5.6219,-5.6219,-5.6219,-5.6219,-5.6219,-5.6219,-5.6219,-5.6219,-5.6219,-5.6219,-5.6219,-5.6219,-5.6219,-5.6219,-5.6219,-5.6219,-5.6219,-5.6219,-5.6219,-5.6219,-5.6219,-5.6219,-5.6219,-5.6219,-5.6219,-5.6219,-5.6219,-5.6219,-5.6219,-5.6219,-5.6219,-5.6219,-5.6219,-5.6219,-5.6093,-5.6168,-5.5767,-5.5315,-5.4938,-5.4561,-5.4235,-5.3909,-5.3683,-5.3381,-5.3105,-5.2854,-5.2628,-5.2377,-5.2251,-5.2302,-5.2477,-5.2628,-5.2729,-5.2804,-5.2785,-5.276,-5.281,-5.2804,-5.2402,-5.2151,-5.2026,-5.1749,-5.1197,-5.0822,-5.0796,-5.056,-5.0419,-5.0015,-4.9243,-4.7861,-4.6843,-4.577,-4.422,-4.2911,-4.2642,-4.2352,-4.2364,-4.2384,-4.2435,-4.2683,-4.2774,-4.2823,-4.2645,-4.2307,-4.1911,-4.1632,-4.1264,-4.103,-4.105,-4.0798,-4.0469,-4.0254,-3.9922,-3.9648,-3.9375,-3.9101,-3.8926,-3.9043,-3.9141,-3.9219,-3.9297,-3.9316,-3.9375,-3.9473,-3.9434,-3.9394,-3.9414,-3.957,-3.9668,-3.9707,-3.9824,-5.6219,-5.6219,-5.6219,-5.6219,-5.6219,-5.6219,-5.6219,-5.6219,-5.6219,-5.6219,-5.6219,-5.6219,-5.6219,-5.6219,-5.6219,-5.6219,-5.6219,-5.6219,-5.6219,-5.6219,-5.6219,-5.6219,-5.6219,-5.6219,-5.6219,-5.6219,-5.6219,-5.6219,-5.6219,-5.6219,-5.6219,-5.6219,-5.6219,-5.6219,-5.6219,-5.6219,-5.6219,-5.6219,-5.6219,-5.6219,-5.6219,-5.5867,-5.5666,-5.5365,-5.5139,-5.4787,-5.4411,-5.3833,-5.3632,-5.3406,-5.3055,-5.2779,-5.2678,-5.2678,-5.2779,-5.2829,-5.2861,-5.2861,-5.2861,-5.2861,-5.2861,-5.2861,-5.2603,-5.2477,-5.2427,-5.2477,-5.189,-5.132,-5.1166,-5.0752,-5.0485,-5.004,-4.9286,-4.6894,-4.5311,-4.441,-4.3198,-4.287,-4.2704,-4.2456,-4.2343,-4.2302,-4.2281,-4.2435,-4.2493,-4.2508,-4.2377,-4.2059,-4.1939,-4.1674,-4.1268,-4.121,-4.1112,-4.0858,-4.0586,-4.0586,-4.0332,-4.0059,-3.9824,-3.959,-3.9531,-3.9668,-3.9746,-3.9746,-3.9766,-3.9785,-3.9863,-4.0098,-4.0039,-4.0,-3.9844,-3.9863,-4.0019,-4.0215,-4.041]},{"header":{"parameterUnit":"m.s-1","parameterCategory":1,"la1":31.0,"la2":29.5877,"lo1":-88.7671,"lo2":-86.6584,"dy":0.0162,"dx":0.0185,"nx":115,"ny":88,"refTime":"2024-04-26T00:00:00:Z","depth":0,"parameterNumber":3,"parameterNumberName":"V-component_of_WINDS"},"data":[0.0,0.0,0.0,0.0,0.0,0.0,0.0,0.0,0.0,0.0,0.0,0.0,0.0,0.0,0.0,0.0,0.0,0.0,0.0,0.0,0.0,0.0,0.0,0.0,0.0,0.0,0.0,0.0,0.0,0.0,0.0,0.0,0.0,0.0,0.0,0.0,0.0,0.0,0.0,0.0,0.0,0.0,0.0,0.0,0.0,0.0,0.0,0.0,0.0,0.0,0.0,0.0,0.0,0.0,0.0,0.0,0.0,0.0,0.0,0.0,0.0,0.0,0.0,0.0,0.0,0.0,0.0,0.0,0.0,0.0,0.0,0.0,0.0,0.0,0.0,0.0,0.0,0.0,0.0,0.0,0.0,0.0,0.0,0.0,0.0,0.0,0.0,0.0,0.0,0.0,0.0,0.0,0.0,0.0,0.0,0.0,0.0,0.0,0.0,0.0,0.0,0.0,0.0,0.0,0.0,0.0,0.0,0.0,0.0,0.0,0.0,0.0,0.0,0.0,0.0,0.0,0.0,0.0,0.0,0.0,0.0,0.0,0.0,0.0,0.0,0.0,0.0,0.0,0.0,0.0,0.0,0.0,0.0,0.0,0.0,0.0,0.0,0.0,0.0,0.0,0.0,0.0,0.0,0.0,0.0,0.0,0.0,0.0,0.0,0.0,0.0,0.0,0.0,0.0,0.0,0.0,0.0,0.0,0.0,0.0,0.0,0.0,0.0,0.0,0.0,0.0,0.0,0.0,0.0,0.0,0.0,0.0,0.0,0.0,0.0,0.0,0.0,0.0,0.0,0.0,0.0,0.0,0.0,0.0,0.0,0.0,0.0,0.0,0.0,0.0,0.0,0.0,0.0,0.0,0.0,0.0,0.0,0.0,0.0,0.0,0.0,0.0,0.0,0.0,0.0,0.0,0.0,0.0,0.0,0.0,0.0,0.0,0.0,0.0,0.0,0.0,0.0,0.0,0.0,0.0,0.0,0.0,0.0,0.0,0.0,0.0,0.0,0.0,0.0,0.0,0.0,0.0,0.0,0.0,0.0,0.0,0.0,0.0,0.0,0.0,0.0,0.0,0.0,0.0,0.0,0.0,0.0,0.0,0.0,0.0,0.0,0.0,0.0,0.0,0.0,0.0,0.0,0.0,0.0,0.0,0.0,0.0,0.0,0.0,0.0,0.0,0.0,0.0,0.0,0.0,0.0,0.0,0.0,0.0,0.0,0.0,0.0,0.0,0.0,0.0,0.0,0.0,0.0,0.0,0.0,0.0,0.0,0.0,0.0,0.0,0.0,0.0,0.0,0.0,0.0,0.0,0.0,0.0,0.0,0.0,0.0,0.0,0.0,0.0,0.0,0.0,0.0,0.0,0.0,0.0,0.0,0.0,0.0,0.0,0.0,0.0,0.0,0.0,0.0,0.0,0.0,0.0,0.0,0.0,0.0,0.0,0.0,0.0,0.0,0.0,0.0,0.0,0.0,0.0,0.0,0.0,0.0,0.0,0.0,0.0,0.0,0.0,0.0,0.0,0.0,0.0,0.0,0.0,0.0,0.0,0.0,0.0,0.0,0.0,0.0,0.0,0.0,0.0,0.0,0.0,0.0,0.0,0.0,0.0,0.0,0.0,0.0,0.0,0.0,0.0,0.0,0.0,0.0,0.0,0.0,0.0,0.0,0.0,0.0,0.0,0.0,0.0,0.0,0.0,0.0,0.0,0.0,0.0,0.0,0.0,0.0,0.0,0.0,0.0,0.0,0.0,0.0,0.0,0.0,0.0,0.0,0.0,0.0,0.0,0.0,0.0,0.0,0.0,0.0,0.0,0.0,0.0,0.0,0.0,0.0,0.0,0.0,0.0,0.0,0.0,0.0,0.0,0.0,0.0,0.0,0.0,0.0,0.0,0.0,0.0,0.0,0.0,0.0,0.0,0.0,0.0,0.0,0.0,0.0,0.0,0.0,0.0,0.0,0.0,0.0,0.0,0.0,0.0,0.0,0.0,0.0,0.0,0.0,0.0,0.0,0.0,0.0,0.0,0.0,0.0,0.0,0.0,0.0,0.0,0.0,0.0,0.0,0.0,0.0,0.0,0.0,0.0,0.0,0.0,0.0,0.0,0.0,0.0,0.0,0.0,0.0,0.0,0.0,0.0,0.0,0.0,0.0,0.0,0.0,0.0,0.0,0.0,0.0,0.0,0.0,0.0,0.0,0.0,0.0,0.0,0.0,0.0,0.0,0.0,0.0,0.0,0.0,0.0,0.0,0.0,0.0,0.0,0.0,0.0,0.0,0.0,0.0,0.0,0.0,0.0,0.0,0.0,0.0,0.0,0.0,0.0,0.0,0.0,0.0,0.0,0.0,0.0,0.0,0.0,0.0,0.0,0.0,0.0,0.0,0.0,0.0,0.0,0.0,0.0,0.0,0.0,0.0,0.0,0.0,0.0,0.0,0.0,0.0,0.0,0.0,0.0,0.0,0.0,0.0,0.0,0.0,0.0,0.0,0.0,0.0,0.0,0.0,0.0,0.0,0.0,0.0,0.0,0.0,0.0,0.0,0.0,0.0,0.0,0.0,0.0,0.0,0.0,0.0,0.0,0.0,0.0,0.0,0.0,0.0,0.0,0.0,0.0,0.0,0.0,0.0,0.0,0.0,0.0,0.0,0.0,0.0,0.0,0.0,0.0,0.0,0.0,0.0,0.0,0.0,0.0,0.0,0.0,0.0,0.0,0.0,0.0,0.0,0.0,0.0,0.0,0.0,0.0,0.0,0.0,0.0,0.0,0.0,0.0,0.0,0.0,0.0,0.0,0.0,0.0,0.0,0.0,0.0,0.0,0.0,0.0,0.0,0.0,0.0,0.0,0.0,0.0,0.0,0.0,0.0,0.0,0.0,0.0,0.0,0.0,0.0,0.0,0.0,0.0,0.0,0.0,0.0,0.0,0.0,0.0,0.0,0.0,0.0,0.0,0.0,0.0,0.0,0.0,0.0,0.0,0.0,0.0,0.0,0.0,0.0,0.0,0.0,0.0,0.0,0.0,0.0,0.0,0.0,0.0,0.0,0.0,0.0,0.0,0.0,0.0,0.0,0.0,0.0,0.0,0.0,0.0,0.0,0.0,0.0,0.0,0.0,0.0,0.0,0.0,0.0,0.0,0.0,0.0,0.0,0.0,0.0,0.0,0.0,0.0,0.0,0.0,0.0,0.0,0.0,0.0,0.0,0.0,0.0,0.0,0.0,0.0,0.0,0.0,0.0,0.0,0.0,0.0,0.0,0.0,0.0,0.0,0.0,0.0,0.0,0.0,0.0,0.0,0.0,0.0,0.0,0.0,0.0,0.0,0.0,0.0,0.0,0.0,0.0,0.0,0.0,0.0,0.0,0.0,0.0,0.0,0.0,0.0,0.0,0.0,0.0,0.0,0.0,0.0,0.0,0.0,0.0,0.0,0.0,0.0,0.0,0.0,0.0,0.0,0.0,0.0,0.0,0.0,0.0,0.0,0.0,0.0,0.0,0.0,0.0,0.0,0.0,0.0,0.0,0.0,0.0,0.0,0.0,0.0,0.0,0.0,0.0,0.0,0.0,0.0,0.0,0.0,0.0,0.0,0.0,0.0,0.0,0.0,0.0,0.0,0.0,0.0,0.0,0.0,0.0,0.0,0.0,0.0,0.0,0.0,0.0,0.0,0.0,0.0,0.0,0.0,0.0,0.0,0.0,0.0,0.0,0.0,0.0,0.0,0.0,0.0,0.0,0.0,0.0,0.0,0.0,0.0,0.0,0.0,0.0,0.0,0.0,0.0,0.0,0.0,0.0,0.0,0.0,0.0,0.0,0.0,0.0,0.0,0.0,0.0,0.0,0.0,0.0,0.0,0.0,0.0,0.0,0.0,0.0,0.0,0.0,0.0,0.0,0.0,0.0,0.0,0.0,0.0,0.0,0.0,0.0,0.0,0.0,0.0,0.0,0.0,0.0,0.0,0.0,0.0,0.0,0.0,0.0,0.0,0.0,0.0,0.0,0.0,0.0,0.0,0.0,0.0,0.0,0.0,0.0,0.0,0.0,0.0,0.0,0.0,0.0,0.0,0.0,0.0,0.0,0.0,0.0,0.0,0.0,0.0,0.0,0.0,0.0,0.0,0.0,0.0,0.0,0.0,0.0,0.0,0.0,0.0,0.0,0.0,0.0,0.0,0.0,0.0,0.0,0.0,0.0,0.0,0.0,0.0,0.0,0.0,0.0,0.0,0.0,0.0,0.0,0.0,0.0,0.0,0.0,0.0,0.0,0.0,2.5458,0.0,0.0,0.0,0.0,0.0,0.0,0.0,0.0,0.0,0.0,0.0,0.0,0.0,0.0,0.0,0.0,0.0,0.0,0.0,0.0,0.0,0.0,0.0,0.0,0.0,0.0,0.0,0.0,0.0,0.0,0.0,0.0,0.0,0.0,0.0,0.0,0.0,0.0,0.0,0.0,0.0,0.0,0.0,0.0,0.0,0.0,0.0,0.0,0.0,0.0,0.0,0.0,0.0,0.0,0.0,0.0,0.0,0.0,0.0,0.0,0.0,0.0,0.0,0.0,0.0,0.0,0.0,0.0,0.0,0.0,0.0,0.0,0.0,0.0,0.0,0.0,0.0,0.0,0.0,0.0,0.0,0.0,0.0,0.0,0.0,0.0,0.0,0.0,0.0,0.0,0.0,0.0,0.0,0.0,0.0,0.0,0.0,0.0,0.0,0.0,0.0,0.0,0.0,0.0,0.0,0.0,0.0,0.0,0.0,0.0,2.81,2.6006,3.1119,3.1119,2.5172,0.0,0.0,0.0,0.0,0.0,0.0,0.0,0.0,0.0,0.0,0.0,0.0,0.0,0.0,0.0,0.0,0.0,0.0,0.0,0.0,0.0,0.0,0.0,0.0,0.0,0.0,0.0,0.0,0.0,0.0,0.0,0.0,0.0,0.0,0.0,0.0,0.0,0.0,0.0,0.0,0.0,0.0,0.0,0.0,0.0,0.0,0.0,0.0,0.0,0.0,0.0,0.0,0.0,0.0,0.0,0.0,0.0,0.0,0.0,0.0,0.0,0.0,0.0,0.0,0.0,0.0,0.0,0.0,0.0,0.0,0.0,0.0,0.0,0.0,0.0,0.0,0.0,0.0,0.0,0.0,0.0,0.0,0.0,0.0,0.0,0.0,0.0,0.0,0.0,0.0,0.0,0.0,0.0,0.0,0.0,0.0,0.0,0.0,0.0,0.0,0.0,0.0,0.0,0.0,0.0,0.0,0.0,0.0,0.0,0.0,0.0,0.0,3.1061,3.0915,2.5984,0.0,0.0,0.0,0.0,0.0,0.0,0.0,0.0,0.0,0.0,0.0,0.0,0.0,0.0,0.0,0.0,0.0,0.0,0.0,0.0,0.0,0.0,0.0,0.0,0.0,0.0,0.0,0.0,0.0,0.0,0.0,0.0,0.0,0.0,0.0,0.0,0.0,0.0,0.0,0.0,0.0,0.0,0.0,0.0,0.0,0.0,0.0,0.0,0.0,0.0,0.0,0.0,0.0,0.0,0.0,0.0,0.0,0.0,0.0,0.0,0.0,0.0,0.0,0.0,0.0,0.0,0.0,0.0,0.0,0.0,0.0,0.0,0.0,0.0,0.0,0.0,0.0,0.0,0.0,0.0,0.0,0.0,0.0,0.0,0.0,0.0,0.0,0.0,0.0,0.0,0.0,0.0,0.0,0.0,0.0,0.0,0.0,0.0,0.0,0.0,0.0,0.0,0.0,0.0,0.0,0.0,0.0,0.0,0.0,0.0,2.743,3.0075,3.0103,0.0,2.8389,0.0,0.0,0.0,0.0,0.0,0.0,0.0,0.0,0.0,0.0,0.0,0.0,0.0,0.0,0.0,0.0,0.0,0.0,0.0,0.0,0.0,0.0,0.0,0.0,0.0,0.0,0.0,0.0,0.0,0.0,0.0,0.0,0.0,0.0,0.0,0.0,0.0,0.0,0.0,0.0,0.0,0.0,0.0,0.0,0.0,0.0,0.0,0.0,0.0,0.0,0.0,0.0,0.0,0.0,0.0,0.0,0.0,0.0,0.0,0.0,0.0,0.0,0.0,0.0,0.0,0.0,0.0,0.0,0.0,0.0,0.0,0.0,0.0,0.0,0.0,0.0,0.0,0.0,0.0,0.0,0.0,0.0,0.0,0.0,0.0,0.0,0.0,0.0,0.0,0.0,0.0,0.0,0.0,0.0,0.0,0.0,0.0,0.0,0.0,0.0,0.0,0.0,0.0,0.0,0.0,0.0,0.0,0.0,0.0,0.0,2.81,3.0539,3.0306,2.9552,0.0,0.0,0.0,0.0,0.0,0.0,0.0,0.0,0.0,0.0,0.0,0.0,0.0,0.0,0.0,0.0,0.0,0.0,0.0,0.0,0.0,0.0,0.0,0.0,0.0,0.0,0.0,0.0,0.0,0.0,0.0,0.0,0.0,0.0,0.0,0.0,0.0,0.0,0.0,0.0,0.0,0.0,0.0,0.0,0.0,0.0,0.0,0.0,0.0,0.0,0.0,0.0,0.0,0.0,0.0,0.0,0.0,0.0,0.0,0.0,0.0,0.0,0.0,0.0,0.0,0.0,0.0,0.0,0.0,0.0,0.0,0.0,0.0,0.0,0.0,0.0,0.0,0.0,0.0,0.0,0.0,0.0,0.0,0.0,0.0,0.0,0.0,0.0,0.0,0.0,0.0,0.0,0.0,0.0,0.0,0.0,0.0,0.0,0.0,0.0,0.0,0.0,0.0,0.0,0.0,0.0,0.0,0.0,0.0,0.0,2.8623,2.9523,3.1469,3.0627,2.9552,2.8536,0.0,0.0,0.0,0.0,0.0,0.0,0.0,0.0,0.0,0.0,0.0,0.0,0.0,0.0,0.0,0.0,0.0,0.0,0.0,0.0,0.0,0.0,0.0,0.0,0.0,0.0,0.0,0.0,0.0,0.0,0.0,0.0,0.0,0.0,0.0,0.0,0.0,0.0,0.0,0.0,0.0,0.0,0.0,0.0,0.0,0.0,0.0,0.0,0.0,0.0,0.0,0.0,0.0,0.0,0.0,0.0,0.0,0.0,0.0,0.0,0.0,0.0,0.0,0.0,0.0,0.0,0.0,0.0,0.0,0.0,0.0,0.0,0.0,0.0,0.0,0.0,0.0,0.0,0.0,0.0,0.0,0.0,0.0,0.0,0.0,0.0,0.0,0.0,0.0,0.0,0.0,0.0,0.0,0.0,0.0,0.0,0.0,0.0,0.0,0.0,0.0,0.0,0.0,0.0,0.0,0.0,0.0,0.0,3.3417,3.164,3.1671,3.3993,3.0713,2.9319,0.0,0.0,0.0,0.0,0.0,0.0,0.0,0.0,0.0,0.0,0.0,0.0,0.0,0.0,0.0,0.0,0.0,0.0,0.0,0.0,0.0,0.0,0.0,0.0,0.0,0.0,0.0,0.0,0.0,0.0,0.0,0.0,0.0,0.0,0.0,0.0,0.0,0.0,0.0,0.0,0.0,0.0,0.0,0.0,0.0,0.0,0.0,0.0,0.0,0.0,0.0,0.0,0.0,0.0,0.0,0.0,0.0,0.0,0.0,0.0,0.0,0.0,0.0,0.0,0.0,0.0,0.0,0.0,0.0,0.0,0.0,0.0,0.0,0.0,0.0,0.0,0.0,0.0,0.0,0.0,0.0,0.0,0.0,0.0,0.0,0.0,0.0,0.0,0.0,0.0,0.0,0.0,0.0,0.0,0.0,0.0,0.0,0.0,0.0,0.0,0.0,0.0,0.0,0.0,0.0,0.0,0.0,0.0,0.0,2.929,3.2101,3.347,3.3177,3.3038,3.2428,0.0,0.0,0.0,0.0,0.0,0.0,0.0,0.0,0.0,0.0,0.0,0.0,0.0,0.0,0.0,0.0,0.0,0.0,0.0,0.0,0.0,0.0,0.0,0.0,0.0,0.0,0.0,0.0,0.0,0.0,0.0,0.0,0.0,0.0,0.0,0.0,0.0,0.0,0.0,0.0,0.0,0.0,0.0,0.0,0.0,0.0,0.0,0.0,0.0,0.0,0.0,0.0,0.0,0.0,0.0,0.0,0.0,0.0,0.0,0.0,0.0,0.0,0.0,0.0,0.0,0.0,0.0,0.0,0.0,0.0,0.0,0.0,0.0,0.0,0.0,0.0,0.0,0.0,0.0,0.0,0.0,0.0,0.0,0.0,0.0,0.0,0.0,0.0,0.0,0.0,0.0,0.0,0.0,0.0,0.0,0.0,0.0,0.0,0.0,0.0,0.0,0.0,0.0,0.0,0.0,0.0,0.0,0.0,0.0,2.9376,0.0,3.6206,3.4714,3.4516,3.3412,0.0,0.0,0.0,0.0,0.0,0.0,0.0,0.0,0.0,0.0,0.0,0.0,0.0,0.0,0.0,0.0,0.0,0.0,0.0,0.0,0.0,0.0,0.0,0.0,0.0,0.0,0.0,0.0,0.0,0.0,0.0,0.0,0.0,0.0,0.0,0.0,0.0,0.0,0.0,0.0,0.0,0.0,0.0,0.0,0.0,0.0,0.0,0.0,0.0,0.0,0.0,0.0,0.0,0.0,0.0,0.0,0.0,0.0,0.0,0.0,0.0,0.0,0.0,0.0,0.0,0.0,0.0,0.0,0.0,0.0,0.0,0.0,0.0,0.0,0.0,0.0,0.0,0.0,0.0,0.0,0.0,0.0,0.0,0.0,0.0,0.0,0.0,0.0,0.0,0.0,0.0,0.0,0.0,0.0,0.0,0.0,0.0,0.0,0.0,0.0,0.0,0.0,0.0,0.0,0.0,0.0,0.0,0.0,2.9139,3.486,3.8243,3.9625,3.9102,3.498,3.2048,0.0,0.0,0.0,0.0,0.0,0.0,0.0,0.0,0.0,0.0,0.0,0.0,0.0,0.0,0.0,0.0,0.0,0.0,0.0,0.0,0.0,0.0,0.0,0.0,0.0,0.0,0.0,0.0,0.0,0.0,0.0,0.0,0.0,0.0,0.0,0.0,0.0,0.0,0.0,0.0,0.0,0.0,0.0,0.0,0.0,0.0,0.0,0.0,0.0,0.0,0.0,0.0,0.0,0.0,0.0,0.0,0.0,0.0,0.0,0.0,0.0,0.0,0.0,0.0,0.0,0.0,0.0,0.0,0.0,0.0,0.0,0.0,0.0,0.0,0.0,0.0,0.0,0.0,0.0,0.0,0.0,0.0,0.0,0.0,0.0,0.0,0.0,0.0,0.0,0.0,0.0,0.0,0.0,0.0,0.0,0.0,0.0,0.0,0.0,0.0,0.0,0.0,0.0,0.0,0.0,0.0,0.0,0.0,0.0,3.3463,3.8223,4.0466,3.9741,3.678,3.4748,0.0,0.0,0.0,0.0,0.0,0.0,0.0,0.0,0.0,0.0,0.0,0.0,0.0,0.0,0.0,0.0,0.0,0.0,0.0,0.0,0.0,0.0,0.0,0.0,0.0,0.0,0.0,0.0,0.0,0.0,0.0,0.0,0.0,0.0,0.0,0.0,0.0,0.0,0.0,0.0,0.0,0.0,0.0,0.0,0.0,0.0,0.0,0.0,0.0,0.0,0.0,0.0,0.0,0.0,0.0,0.0,0.0,0.0,0.0,0.0,0.0,0.0,0.0,0.0,0.0,0.0,0.0,0.0,0.0,0.0,0.0,0.0,0.0,0.0,0.0,0.0,0.0,0.0,0.0,0.0,0.0,0.0,0.0,0.0,0.0,0.0,0.0,0.0,0.0,0.0,0.0,0.0,0.0,0.0,0.0,0.0,0.0,0.0,0.0,0.0,0.0,0.0,0.0,0.0,0.0,0.0,0.0,0.0,0.0,3.6628,4.0641,4.2557,4.1889,3.8522,3.6373,3.5654,0.0,0.0,0.0,0.0,0.0,0.0,0.0,0.0,0.0,0.0,0.0,0.0,0.0,0.0,0.0,0.0,0.0,0.0,0.0,0.0,0.0,0.0,0.0,0.0,0.0,0.0,0.0,0.0,0.0,0.0,0.0,0.0,0.0,0.0,0.0,0.0,0.0,0.0,0.0,0.0,0.0,0.0,0.0,0.0,0.0,0.0,0.0,0.0,0.0,0.0,0.0,0.0,0.0,0.0,0.0,0.0,0.0,0.0,0.0,0.0,0.0,0.0,0.0,0.0,0.0,0.0,0.0,0.0,0.0,0.0,0.0,0.0,0.0,0.0,0.0,0.0,0.0,0.0,0.0,0.0,0.0,0.0,0.0,0.0,0.0,0.0,0.0,0.0,0.0,0.0,0.0,0.0,0.0,0.0,0.0,0.0,0.0,0.0,0.0,0.0,0.0,0.0,0.0,0.0,0.0,0.0,0.0,0.0,4.3108,4.5053,4.5692,4.4908,4.0031,3.7041,0.0,0.0,0.0,0.0,0.0,0.0,0.0,0.0,0.0,0.0,0.0,0.0,0.0,0.0,0.0,0.0,0.0,0.0,0.0,0.0,0.0,0.0,0.0,0.0,0.0,0.0,0.0,0.0,0.0,0.0,0.0,0.0,0.0,0.0,0.0,0.0,0.0,0.0,0.0,0.0,0.0,0.0,0.0,0.0,0.0,0.0,0.0,0.0,0.0,0.0,0.0,0.0,0.0,0.0,0.0,0.0,0.0,0.0,0.0,0.0,0.0,0.0,0.0,0.0,0.0,0.0,0.0,0.0,0.0,0.0,0.0,0.0,0.0,0.0,0.0,0.0,0.0,0.0,0.0,0.0,0.0,0.0,0.0,0.0,0.0,0.0,0.0,0.0,0.0,0.0,0.0,0.0,0.0,0.0,0.0,0.0,0.0,0.0,0.0,0.0,0.0,0.0,0.0,0.0,0.0,0.0,0.0,0.0,0.0,4.4773,4.6906,4.7433,4.6243,4.0902,3.768,0.0,0.0,0.0,0.0,0.0,0.0,0.0,0.0,0.0,0.0,0.0,0.0,0.0,0.0,0.0,0.0,0.0,0.0,0.0,0.0,0.0,0.0,0.0,0.0,0.0,0.0,0.0,0.0,0.0,0.0,0.0,0.0,0.0,0.0,0.0,0.0,0.0,0.0,0.0,0.0,0.0,0.0,0.0,0.0,0.0,0.0,0.0,0.0,0.0,0.0,0.0,0.0,0.0,0.0,0.0,0.0,0.0,0.0,0.0,0.0,0.0,0.0,0.0,0.0,0.0,0.0,0.0,0.0,0.0,0.0,0.0,0.0,0.0,0.0,0.0,0.0,0.0,0.0,0.0,0.0,0.0,0.0,0.0,0.0,0.0,0.0,0.0,0.0,0.0,0.0,0.0,0.0,0.0,0.0,0.0,0.0,0.0,0.0,0.0,0.0,0.0,0.0,0.0,0.0,0.0,0.0,0.0,0.0,4.2653,4.7218,4.8779,4.9204,4.8449,4.3921,4.0234,0.0,0.0,0.0,0.0,0.0,0.0,0.0,0.0,0.0,0.0,0.0,0.0,0.0,0.0,0.0,0.0,0.0,0.0,0.0,0.0,0.0,0.0,0.0,0.0,0.0,0.0,0.0,0.0,0.0,0.0,0.0,0.0,0.0,0.0,0.0,0.0,0.0,0.0,0.0,0.0,0.0,0.0,0.0,0.0,0.0,0.0,0.0,0.0,0.0,0.0,0.0,0.0,0.0,0.0,0.0,0.0,0.0,0.0,0.0,0.0,0.0,0.0,0.0,0.0,0.0,0.0,0.0,0.0,0.0,0.0,0.0,0.0,0.0,0.0,0.0,0.0,0.0,0.0,0.0,0.0,0.0,0.0,0.0,0.0,0.0,0.0,0.0,0.0,0.0,0.0,0.0,0.0,0.0,0.0,0.0,0.0,0.0,0.0,0.0,0.0,0.0,0.0,0.0,0.0,0.0,0.0,0.0,0.0,4.4451,4.9823,5.0627,5.0946,5.0822,4.7579,4.3456,0.0,0.0,0.0,0.0,0.0,0.0,0.0,0.0,0.0,0.0,0.0,0.0,0.0,0.0,0.0,0.0,0.0,0.0,0.0,0.0,0.0,0.0,0.0,0.0,0.0,0.0,0.0,0.0,0.0,0.0,0.0,0.0,0.0,0.0,0.0,0.0,0.0,0.0,0.0,0.0,0.0,0.0,0.0,0.0,0.0,0.0,0.0,0.0,0.0,0.0,0.0,0.0,0.0,0.0,0.0,0.0,0.0,0.0,0.0,0.0,0.0,0.0,0.0,0.0,0.0,0.0,0.0,0.0,0.0,0.0,0.0,0.0,0.0,0.0,0.0,0.0,0.0,0.0,0.0,0.0,0.0,0.0,0.0,0.0,0.0,0.0,0.0,0.0,0.0,0.0,0.0,0.0,0.0,0.0,0.0,0.0,0.0,0.0,0.0,0.0,0.0,0.0,0.0,0.0,0.0,0.0,0.0,0.0,4.6379,5.1817,5.2601,5.2659,5.2165,4.7579,4.3484,0.0,0.0,0.0,0.0,0.0,0.0,0.0,0.0,0.0,0.0,0.0,0.0,0.0,0.0,0.0,0.0,0.0,0.0,0.0,0.0,0.0,0.0,0.0,0.0,0.0,0.0,0.0,0.0,0.0,0.0,0.0,0.0,0.0,0.0,0.0,0.0,0.0,0.0,0.0,0.0,0.0,0.0,0.0,0.0,0.0,0.0,0.0,0.0,3.4349,0.0,0.0,0.0,0.0,0.0,0.0,0.0,0.0,0.0,0.0,0.0,0.0,0.0,0.0,0.0,0.0,0.0,0.0,0.0,0.0,0.0,0.0,0.0,0.0,0.0,0.0,0.0,0.0,0.0,0.0,0.0,0.0,0.0,0.0,0.0,0.0,0.0,0.0,0.0,0.0,0.0,0.0,0.0,0.0,0.0,0.0,0.0,0.0,0.0,0.0,0.0,0.0,0.0,0.0,0.0,0.0,0.0,0.0,0.0,4.8192,5.1991,5.3326,5.353,5.2565,4.9174,4.5157,0.0,0.0,0.0,0.0,0.0,0.0,0.0,0.0,0.0,0.0,0.0,0.0,0.0,0.0,0.0,0.0,0.0,0.0,0.0,0.0,0.0,0.0,0.0,0.0,0.0,0.0,0.0,0.0,0.0,0.0,0.0,0.0,0.0,0.0,0.0,0.0,0.0,0.0,0.0,0.0,0.0,0.0,0.0,0.0,0.0,0.0,0.0,0.0,0.0,0.0,0.0,0.0,0.0,0.0,0.0,0.0,0.0,0.0,0.0,0.0,0.0,0.0,0.0,0.0,0.0,0.0,0.0,0.0,0.0,0.0,0.0,0.0,0.0,0.0,0.0,0.0,0.0,0.0,0.0,0.0,0.0,0.0,0.0,0.0,0.0,0.0,0.0,0.0,0.0,0.0,0.0,0.0,0.0,0.0,0.0,0.0,0.0,0.0,0.0,0.0,0.0,0.0,0.0,0.0,0.0,0.0,0.0,4.5372,4.9337,5.1824,5.3704,5.4023,5.2798,5.1041,4.7206,4.1017,0.0,0.0,0.0,0.0,0.0,0.0,0.0,0.0,0.0,0.0,0.0,0.0,0.0,0.0,0.0,0.0,0.0,0.0,0.0,0.0,0.0,0.0,0.0,0.0,0.0,0.0,0.0,0.0,0.0,0.0,0.0,0.0,0.0,0.0,0.0,0.0,0.0,0.0,3.3137,3.6704,0.0,0.0,0.0,0.0,0.0,0.0,0.0,0.0,3.7508,0.0,0.0,0.0,0.0,0.0,0.0,0.0,0.0,0.0,0.0,0.0,0.0,0.0,0.0,0.0,0.0,0.0,0.0,0.0,0.0,0.0,0.0,0.0,0.0,0.0,0.0,0.0,0.0,0.0,0.0,0.0,0.0,0.0,0.0,0.0,0.0,0.0,0.0,0.0,0.0,0.0,0.0,0.0,0.0,0.0,0.0,0.0,0.0,0.0,0.0,0.0,0.0,0.0,0.0,0.0,0.0,4.1894,4.5006,4.8701,5.3042,5.4546,5.4633,5.3355,5.1423,4.7799,4.2526,0.0,0.0,0.0,0.0,0.0,0.0,0.0,0.0,0.0,0.0,0.0,0.0,0.0,0.0,0.0,0.0,0.0,0.0,0.0,0.0,0.0,0.0,0.0,0.0,0.0,0.0,0.0,0.0,0.0,0.0,0.0,0.0,0.0,0.0,0.0,0.0,0.0,0.0,0.0,4.0357,4.1504,0.0,0.0,0.0,0.0,0.0,0.0,0.0,0.0,3.8935,0.0,0.0,0.0,0.0,0.0,0.0,0.0,0.0,0.0,0.0,0.0,0.0,0.0,0.0,0.0,0.0,0.0,0.0,0.0,0.0,0.0,0.0,0.0,0.0,0.0,0.0,0.0,0.0,0.0,0.0,0.0,0.0,0.0,0.0,0.0,0.0,0.0,0.0,0.0,0.0,0.0,0.0,0.0,0.0,0.0,0.0,0.0,0.0,0.0,0.0,0.0,0.0,0.0,0.0,0.0,4.241,4.6771,5.0312,5.2949,5.4284,5.4221,5.2778,5.1551,4.8378,0.0,0.0,0.0,0.0,0.0,0.0,0.0,0.0,0.0,0.0,0.0,0.0,0.0,0.0,0.0,0.0,0.0,0.0,0.0,0.0,0.0,0.0,0.0,0.0,0.0,0.0,0.0,0.0,0.0,0.0,0.0,0.0,0.0,0.0,0.0,0.0,0.0,0.0,0.0,0.0,4.2321,4.3532,4.4381,0.0,0.0,0.0,0.0,0.0,0.0,3.9723,3.9369,0.0,0.0,0.0,0.0,0.0,0.0,0.0,0.0,0.0,0.0,0.0,0.0,0.0,0.0,0.0,0.0,0.0,0.0,0.0,0.0,0.0,0.0,0.0,0.0,0.0,0.0,0.0,0.0,0.0,0.0,0.0,0.0,0.0,0.0,0.0,0.0,0.0,0.0,0.0,0.0,0.0,0.0,0.0,0.0,0.0,0.0,0.0,0.0,0.0,0.0,0.0,0.0,0.0,0.0,0.0,4.284,4.8172,5.1563,5.2746,5.3844,5.3658,5.2251,5.1562,4.8647,0.0,0.0,0.0,0.0,0.0,0.0,0.0,0.0,0.0,0.0,0.0,0.0,0.0,0.0,0.0,0.0,0.0,0.0,0.0,0.0,0.0,0.0,0.0,0.0,0.0,0.0,0.0,0.0,0.0,0.0,0.0,0.0,0.0,0.0,0.0,0.0,0.0,0.0,0.0,0.0,0.0,4.527,4.609,4.5106,0.0,0.0,0.0,0.0,4.106,4.1354,0.0,0.0,0.0,0.0,0.0,0.0,0.0,0.0,0.0,0.0,0.0,0.0,0.0,0.0,0.0,0.0,0.0,0.0,0.0,0.0,0.0,0.0,0.0,0.0,0.0,0.0,0.0,0.0,0.0,0.0,0.0,0.0,0.0,0.0,0.0,0.0,0.0,0.0,0.0,0.0,0.0,0.0,0.0,0.0,0.0,0.0,0.0,0.0,0.0,0.0,0.0,0.0,0.0,0.0,0.0,0.0,4.3531,4.7037,5.0332,5.3239,5.3768,5.3633,5.2895,5.1581,4.8385,0.0,0.0,0.0,0.0,0.0,0.0,0.0,0.0,0.0,0.0,0.0,0.0,0.0,0.0,0.0,0.0,0.0,0.0,0.0,0.0,0.0,0.0,0.0,0.0,0.0,0.0,0.0,0.0,0.0,0.0,0.0,0.0,0.0,0.0,0.0,0.0,0.0,0.0,0.0,0.0,0.0,4.6716,4.4844,4.4419,4.4158,0.0,0.0,4.4255,4.5662,4.6979,0.0,0.0,0.0,0.0,0.0,0.0,0.0,0.0,0.0,0.0,0.0,0.0,0.0,0.0,0.0,0.0,0.0,0.0,0.0,0.0,0.0,0.0,0.0,0.0,0.0,0.0,0.0,0.0,0.0,0.0,0.0,0.0,0.0,0.0,0.0,0.0,0.0,0.0,0.0,0.0,0.0,0.0,0.0,0.0,0.0,0.0,0.0,0.0,0.0,0.0,0.0,0.0,0.0,0.0,0.0,4.0999,4.4209,4.7872,5.0933,5.3384,5.3442,5.3151,5.2658,5.1797,4.8773,0.0,0.0,0.0,0.0,0.0,0.0,0.0,0.0,0.0,0.0,0.0,0.0,0.0,0.0,0.0,0.0,0.0,0.0,0.0,0.0,0.0,0.0,0.0,0.0,0.0,0.0,0.0,0.0,0.0,0.0,0.0,0.0,0.0,0.0,0.0,0.0,0.0,0.0,0.0,0.0,0.0,0.0,4.8827,4.777,0.0,0.0,0.0,4.7736,4.675,0.0,0.0,0.0,0.0,0.0,0.0,0.0,0.0,0.0,0.0,0.0,0.0,0.0,0.0,0.0,0.0,0.0,0.0,0.0,0.0,0.0,0.0,0.0,0.0,0.0,0.0,0.0,0.0,0.0,0.0,0.0,0.0,0.0,0.0,0.0,0.0,0.0,0.0,0.0,0.0,0.0,0.0,0.0,0.0,0.0,0.0,0.0,0.0,0.0,0.0,0.0,0.0,0.0,0.0,0.0,0.0,0.0,4.4731,4.8808,5.1614,5.2949,5.2683,5.2381,5.2131,5.1954,0.0,0.0,0.0,0.0,0.0,0.0,0.0,0.0,0.0,0.0,0.0,0.0,0.0,0.0,0.0,0.0,0.0,0.0,0.0,0.0,0.0,0.0,0.0,0.0,0.0,0.0,0.0,3.1001,0.0,0.0,0.0,0.0,0.0,0.0,0.0,0.0,0.0,0.0,0.0,0.0,0.0,0.0,4.9817,5.1541,5.0281,4.942,0.0,0.0,5.0177,4.8494,5.0276,5.0806,0.0,0.0,0.0,0.0,0.0,0.0,0.0,0.0,0.0,0.0,0.0,0.0,0.0,0.0,0.0,0.0,0.0,0.0,0.0,0.0,0.0,0.0,0.0,0.0,0.0,0.0,0.0,0.0,0.0,0.0,0.0,0.0,0.0,0.0,0.0,0.0,0.0,0.0,0.0,0.0,0.0,0.0,0.0,0.0,0.0,0.0,0.0,0.0,0.0,0.0,0.0,0.0,0.0,0.0,0.0,4.4995,4.9291,5.1614,5.173,5.132,5.1238,5.1473,5.1717,4.9459,0.0,0.0,0.0,0.0,0.0,0.0,0.0,0.0,0.0,0.0,0.0,0.0,0.0,0.0,0.0,0.0,0.0,0.0,0.0,0.0,0.0,0.0,0.0,0.0,0.0,0.0,0.0,0.0,0.0,0.0,0.0,0.0,0.0,0.0,0.0,0.0,0.0,0.0,0.0,0.0,0.0,4.9981,5.0113,5.0014,5.0907,0.0,0.0,5.0709,5.2633,5.3662,5.3728,5.2175,0.0,0.0,0.0,0.0,0.0,0.0,0.0,0.0,0.0,0.0,0.0,0.0,0.0,0.0,0.0,0.0,0.0,0.0,0.0,0.0,0.0,0.0,0.0,0.0,0.0,0.0,0.0,0.0,0.0,0.0,0.0,0.0,0.0,0.0,0.0,0.0,0.0,0.0,0.0,0.0,0.0,0.0,0.0,0.0,0.0,0.0,0.0,0.0,0.0,0.0,0.0,0.0,0.0,4.45,4.6098,4.9727,5.2042,5.2975,5.2113,5.2012,5.2842,5.2585,5.0649,0.0,0.0,0.0,0.0,0.0,0.0,0.0,0.0,0.0,0.0,0.0,0.0,0.0,0.0,0.0,0.0,0.0,0.0,0.0,0.0,0.0,0.0,0.0,0.0,0.0,0.0,0.0,0.0,3.82,3.8754,3.7492,0.0,0.0,0.0,0.0,0.0,0.0,0.0,0.0,0.0,0.0,5.2068,5.2068,5.25,0.0,0.0,5.4291,5.4254,5.4688,5.4986,5.4821,5.3864,5.3169,0.0,0.0,0.0,0.0,0.0,0.0,0.0,0.0,0.0,0.0,0.0,0.0,0.0,0.0,0.0,0.0,0.0,0.0,0.0,0.0,0.0,0.0,0.0,0.0,0.0,0.0,0.0,0.0,0.0,0.0,0.0,0.0,0.0,0.0,0.0,0.0,0.0,0.0,0.0,0.0,0.0,0.0,0.0,0.0,0.0,0.0,0.0,0.0,0.0,0.0,0.0,0.0,4.5062,4.6778,5.024,5.2544,5.3597,5.2674,5.2544,5.3466,5.3228,5.175,0.0,0.0,0.0,0.0,0.0,0.0,0.0,0.0,0.0,0.0,0.0,0.0,0.0,0.0,0.0,0.0,0.0,0.0,0.0,0.0,0.0,0.0,0.0,0.0,0.0,0.0,0.0,0.0,4.0262,4.0447,3.9801,0.0,0.0,0.0,0.0,0.0,0.0,0.0,0.0,0.0,0.0,5.3808,5.4059,5.449,5.4887,5.5156,5.5852,5.6117,5.5383,5.5251,5.5019,5.4258,0.0,0.0,0.0,0.0,0.0,0.0,0.0,0.0,0.0,0.0,0.0,0.0,0.0,0.0,0.0,0.0,0.0,0.0,0.0,0.0,0.0,0.0,0.0,0.0,0.0,0.0,0.0,0.0,0.0,0.0,3.414,0.0,0.0,0.0,0.0,0.0,0.0,0.0,0.0,0.0,0.0,0.0,0.0,0.0,0.0,0.0,0.0,0.0,0.0,0.0,0.0,0.0,0.0,4.5974,4.6807,5.0845,5.2983,5.3041,5.2591,5.2566,5.2902,5.3436,5.2662,5.0226,0.0,0.0,0.0,0.0,0.0,0.0,0.0,0.0,0.0,0.0,0.0,0.0,0.0,0.0,0.0,0.0,0.0,0.0,0.0,0.0,0.0,0.0,0.0,0.0,0.0,0.0,3.7769,3.8231,3.9739,0.0,0.0,0.0,0.0,0.0,0.0,0.0,0.0,0.0,0.0,5.4492,5.4829,5.5407,5.5549,5.5852,5.6481,5.6084,5.5383,5.4688,5.4556,5.4258,0.0,0.0,0.0,0.0,0.0,0.0,0.0,0.0,0.0,0.0,0.0,0.0,0.0,0.0,0.0,0.0,0.0,0.0,0.0,0.0,0.0,0.0,0.0,0.0,0.0,0.0,0.0,3.6951,3.6849,0.0,0.0,0.0,0.0,0.0,0.0,0.0,0.0,0.0,0.0,0.0,4.641,4.7054,0.0,0.0,0.0,0.0,0.0,0.0,0.0,0.0,0.0,0.0,0.0,0.0,4.6686,4.7841,5.1029,5.3187,5.4141,5.3267,5.3322,5.4341,5.4428,5.3327,5.0913,0.0,0.0,0.0,0.0,0.0,0.0,0.0,0.0,0.0,0.0,0.0,0.0,0.0,0.0,0.0,0.0,0.0,0.0,0.0,0.0,0.0,0.0,0.0,0.0,0.0,4.1715,0.0,0.0,0.0,0.0,0.0,0.0,0.0,0.0,0.0,0.0,0.0,5.1862,5.3613,5.4667,5.5353,5.5582,5.6017,5.6415,0.0,0.0,0.0,0.0,0.0,0.0,0.0,0.0,0.0,0.0,0.0,0.0,0.0,0.0,5.1305,5.081,5.0347,5.005,5.005,0.0,0.0,0.0,0.0,0.0,0.0,0.0,0.0,0.0,0.0,0.0,0.0,0.0,0.0,4.0278,0.0,3.9233,0.0,0.0,0.0,0.0,0.0,0.0,0.0,0.0,4.5524,4.6895,4.8103,4.8801,4.9232,0.0,5.0266,4.9331,0.0,0.0,0.0,0.0,0.0,0.0,0.0,0.0,4.813,4.9267,5.2084,5.4068,5.5019,5.4458,5.4582,5.5508,5.5147,5.4082,5.2306,5.078,4.9134,0.0,0.0,0.0,0.0,0.0,0.0,0.0,0.0,0.0,0.0,0.0,0.0,0.0,0.0,0.0,0.0,0.0,0.0,0.0,0.0,0.0,0.0,0.0,4.491,0.0,0.0,0.0,0.0,0.0,0.0,0.0,0.0,0.0,4.996,5.1486,5.3108,5.4435,5.5044,5.5581,5.6272,0.0,0.0,0.0,0.0,0.0,0.0,0.0,5.6382,5.6382,5.5752,5.5521,5.6249,5.6382,5.6448,5.6713,0.0,0.0,5.3997,5.3434,5.3135,5.3135,5.3407,5.3814,5.4353,5.4762,5.5071,0.0,0.0,0.0,0.0,0.0,0.0,0.0,0.0,4.4511,4.4694,0.0,4.2971,0.0,0.0,0.0,0.0,0.0,4.1354,0.0,0.0,4.7105,4.8551,4.9502,5.0327,5.109,5.1656,5.1745,5.2099,5.2511,5.0657,0.0,0.0,0.0,0.0,0.0,0.0,5.0193,5.116,5.3796,5.5381,5.5664,5.5982,5.6137,5.6158,5.5508,5.488,5.4192,5.2366,5.072,4.9344,4.5106,0.0,0.0,0.0,0.0,0.0,0.0,0.0,0.0,0.0,0.0,0.0,0.0,0.0,0.0,0.0,0.0,0.0,0.0,0.0,0.0,4.6726,0.0,0.0,0.0,0.0,0.0,0.0,0.0,0.0,0.0,0.0,5.3401,5.3039,5.3661,5.6343,0.0,0.0,0.0,0.0,5.6978,5.774,5.7839,5.7806,5.7806,5.7806,5.7806,5.7806,0.0,0.0,5.774,5.7839,5.8071,5.8767,5.7707,5.6316,5.492,5.4655,5.4593,5.4556,5.5123,5.5658,5.5946,5.6449,5.6954,4.7846,0.0,0.0,0.0,0.0,4.486,4.5715,4.714,4.6592,4.634,4.6129,4.5222,0.0,0.0,0.0,0.0,0.0,0.0,4.4701,4.7127,4.6688,4.7656,4.9756,5.006,5.0729,5.177,5.2236,5.2988,5.3897,5.3392,5.1322,4.7869,0.0,0.0,0.0,0.0,5.13,5.1842,5.3906,5.5018,5.507,5.5537,5.5722,5.5478,5.5299,5.5089,5.491,5.4371,5.2995,5.075,4.8955,0.0,0.0,0.0,0.0,0.0,0.0,0.0,0.0,0.0,0.0,0.0,0.0,0.0,0.0,0.0,0.0,0.0,0.0,0.0,4.8791,4.9585,4.9328,0.0,0.0,0.0,0.0,0.0,0.0,0.0,0.0,0.0,5.3553,5.351,5.3839,0.0,0.0,5.5961,5.7556,5.7608,5.774,5.8469,0.0,0.0,0.0,5.8568,5.8568,5.8601,5.8833,5.9131,5.933,5.9363,5.9429,5.9661,5.8899,5.8104,5.7707,5.6746,5.615,5.6084,5.6249,5.6581,5.7122,5.7421,5.7586,5.2077,4.7973,4.7308,4.7434,4.8077,4.8197,4.9022,5.0301,4.9742,4.9508,4.9402,4.842,4.7393,4.6425,4.579,0.0,0.0,0.0,4.6399,4.8747,4.7717,4.8323,5.0341,5.0734,5.1311,5.196,5.3079,5.3784,5.4166,5.4653,5.3569,5.1201,0.0,0.0,5.0191,5.1809,5.2784,5.2989,5.4626,5.5535,5.57,5.6058,5.5952,5.5239,5.5209,5.5209,5.5209,5.5209,5.4461,5.2845,5.1409,4.9912,0.0,0.0,0.0,0.0,0.0,0.0,0.0,0.0,0.0,0.0,0.0,4.2821,4.4417,0.0,0.0,0.0,4.6984,4.8873,5.0621,5.1044,0.0,0.0,0.0,0.0,0.0,0.0,0.0,5.3072,5.2874,5.2966,5.3608,5.3695,5.4049,5.4984,5.5716,5.6661,5.8058,0.0,5.8502,5.9231,5.933,5.9429,5.9728,5.9794,5.9761,5.9761,6.0125,6.0423,6.0456,6.0456,6.0456,6.039,6.0059,5.9794,5.9761,5.9032,5.8204,5.7707,5.7806,5.8171,5.8601,5.8899,5.9098,5.5867,5.4783,5.2766,5.179,5.1714,5.2013,5.2605,5.334,5.3247,5.3397,5.355,5.2027,5.0935,5.0046,4.7873,0.0,4.7701,4.7641,4.8487,5.001,4.9608,5.0078,5.1235,5.2173,5.2457,5.2271,5.4147,5.4637,5.403,5.4979,5.5214,5.4824,5.5396,5.4993,5.382,5.4364,5.4608,5.4517,5.5748,5.6574,5.7094,5.7034,5.6436,5.5209,5.5209,5.5209,5.5209,5.5209,5.5209,5.5119,5.2845,5.1558,5.1439,0.0,0.0,0.0,0.0,0.0,0.0,0.0,0.0,0.0,0.0,0.0,0.0,0.0,0.0,0.0,5.0608,0.0,5.2047,5.1607,0.0,0.0,0.0,5.2964,5.4157,5.3975,5.3699,5.3607,0.0,0.0,5.3521,0.0,5.4261,5.557,5.633,5.7307,5.8705,5.8959,5.9264,5.9993,6.0092,6.0324,6.0854,6.0986,6.0986,6.0986,6.1119,6.1053,6.1053,6.1053,6.1086,6.1053,6.1086,6.1053,6.1086,6.0953,6.0688,5.9297,5.9562,6.0059,6.0059,6.049,6.0887,5.8554,5.8228,5.6754,5.5604,5.4791,5.4454,5.4657,5.5172,5.4511,5.4151,5.4039,5.3657,5.3177,5.266,5.119,5.1061,5.1892,5.1357,5.1409,5.2027,5.1319,5.1408,5.2149,5.2402,5.2793,5.3308,5.4677,5.5701,5.6435,5.6251,5.6581,5.7312,5.7021,5.647,5.5748,5.5884,5.6045,5.6167,5.676,5.7048,5.7094,5.6615,5.6017,5.5209,5.5209,5.5209,5.5209,5.5209,5.5209,5.5179,5.4581,5.4251,5.4221,5.1588,0.0,0.0,0.0,0.0,0.0,0.0,0.0,0.0,0.0,4.7698,4.9209,0.0,5.075,0.0,5.194,5.2785,5.3157,5.3274,0.0,0.0,5.4097,5.4052,5.3899,5.4222,5.4037,5.3067,5.3252,5.3328,5.2984,5.3825,5.4613,5.4941,5.6039,5.7273,5.8647,5.9408,5.9993,6.0655,6.0821,6.092,6.1053,6.1119,6.1119,6.1119,6.1119,6.1119,6.1119,6.1119,6.1119,6.1119,6.1119,6.1119,6.1119,6.1119,6.102,6.0655,6.0721,6.0854,6.0854,6.0986,6.1119,5.9859,5.9759,5.8857,5.8073,5.7359,5.6717,5.6565,5.6624,5.6116,5.57,5.5465,5.5091,5.4799,5.4515,5.3505,5.3119,5.3242,5.2862,5.2796,5.2902,5.2231,5.2232,5.3075,5.3365,5.3618,5.3974,5.564,5.6581,5.6753,5.7189,5.7548,5.7854,5.8205,5.8227,5.7848,5.7173,5.6753,5.6539,5.7266,5.7613,5.7573,5.7214,5.6585,5.5658,5.5628,5.5478,5.5209,5.5209,5.5209,5.5209,5.5209,5.5209,5.5179,5.3803,5.3354,0.0,0.0,0.0,0.0,0.0,0.0,0.0,0.0,0.0,0.0,0.0,5.2097,5.2097,5.2755,5.3301,5.3398,5.3543,5.3778,5.4225,5.4592,5.4677,5.431,5.4481,5.433,5.3283,5.3221,5.3324,5.354,5.3954,5.4603,5.5467,5.6561,5.7551,5.8363,5.9589,6.0556,6.0622,6.0887,6.1119,6.1119,6.1119,6.1119,6.1119,6.1119,6.1119,6.1119,6.1119,6.1119,6.1119,6.1119,6.1119,6.1119,6.1119,6.1119,6.1119,6.1119,6.1119,6.1119,6.1119,6.1119,6.0437,6.0387,5.9759,5.9462,5.9237,5.8646,5.8085,5.756,5.7363,5.7138,5.6881,5.615,5.5845,5.5819,5.5028,5.4283,5.3618,5.3474,5.3515,5.3531,5.2913,5.3085,5.3921,5.4485,5.47,5.4664,5.6734,5.7259,5.639,5.8058,5.8455,5.7825,5.9161,5.9884,5.9681,5.8434,5.7419,5.6651,5.7696,5.8201,5.8141,5.8141,5.7483,5.6256,5.6218,5.5867,5.5239,5.5209,5.5209,5.5209,5.5209,5.5209,5.5209,5.5209,5.494,0.0,5.4341,0.0,0.0,0.0,0.0,0.0,0.0,0.0,0.0,5.3264,5.3324,5.3324,5.3384,5.3443,5.3443,5.3492,5.3732,5.4301,5.4805,5.5117,5.4965,5.4861,5.4529,5.3806,5.3191,5.3282,5.4168,5.4082,5.456,5.6159,5.7371,5.8035,5.8151,5.9661,6.0622,5.9993,6.049,6.092,6.1053,6.1119,6.1119,6.1119,6.1119,6.1119,6.1119,6.1119,6.1119,6.1119,6.1119,6.1119,6.1119,6.1119,6.1119,6.1119,6.1119,6.1119,6.1119,6.1119,6.1119,6.1014,6.0914,5.991,5.951,5.9461,5.9642,5.8827,5.7312,5.6821,5.6468,5.6127,5.5639,5.5634,5.5841,5.5611,5.5537,5.559,5.5465,5.5393,5.5341,5.459,5.4471,5.4914,5.4868,5.5203,5.6005,5.6921,5.779,5.86,5.9437,5.9853,5.9974,6.055,6.0568,6.017,0.0,0.0,0.0,5.8698,5.868,5.8141,5.8141,5.7513,5.6278,5.6218,0.0,5.5239,5.5209,5.5209,5.5209,5.5209,0.0,0.0,0.0,0.0,0.0,0.0,0.0,0.0,0.0,0.0,0.0,5.4221,5.3623,5.3234,5.3683,5.4012,5.4012,5.4491,5.482,5.482,5.499,5.52,5.532,5.5618,5.5652,5.5298,5.518,5.4833,5.3822,5.3576,5.3404,5.3206,5.3868,5.4846,5.5898,5.7593,5.8639,5.8594,5.9562,5.9926,5.933,5.9893,6.0456,6.102,6.1119,6.1119,6.1119,6.1119,6.1119,6.1119,6.1119,6.1119,6.1119,6.1119,6.1119,6.1119,6.1119,6.1119,6.1119,6.1119,6.1119,6.1119,6.1119,6.1119,6.119,0.0,5.996,5.9486,0.0,5.9617,5.8979,5.7789,5.8071,5.7721,5.704,5.6759,5.6657,5.6606,5.6637,5.6364,5.5941,5.5611,5.5289,5.4967,5.4602,5.4603,5.484,5.5168,5.5735,5.673,5.7287,5.8233,5.9408,6.0103,6.0522,6.085,6.1522,6.1692,6.1374,6.1506,6.1048,5.9896,5.9703,5.9428,5.9099,5.877,5.8141,5.7184,0.0,0.0,0.0,0.0,0.0,0.0,0.0,0.0,0.0,0.0,0.0,5.5688,5.5957,5.6137,5.6107,5.5807,5.5777,5.6107,5.5837,5.5209,5.4251,5.4491,5.47,5.47,5.4999,5.5209,5.5179,5.533,5.5381,5.5461,5.5731,5.5755,5.5262,5.535,5.5019,5.3945,5.3714,5.3528,5.325,5.3738,5.4634,5.5679,5.7282,5.828,5.8098,5.9429,6.0357,6.0059,6.0258,6.0688,6.102,6.1119,6.1119,6.1119,6.1119,6.1119,6.1119,6.1119,6.1119,6.1119,6.1119,6.1119,6.1119,6.1119,6.1119,6.1119,6.1119,6.1119,6.1119,6.1119,6.1119,6.119,6.109,5.996,5.9462,5.9364,5.9364,5.8982,5.8491,0.0,0.0,0.0,5.7775,5.7569,5.7282,5.7506,5.697,5.6014,5.5407,5.4821,5.4321,5.4389,5.4536,5.4794,5.5557,5.6422,5.7285,5.7751,5.8587,5.9735,6.0531,6.1044,6.1286,6.2234,6.2673,6.2701,6.2426,6.2002,6.1463,6.0685,6.0206,6.0086,5.9548,5.8919,5.8141,5.8141,5.7812,5.7124,5.6615,5.6346,5.6316,5.5807,5.5538,5.5538,5.6047,5.6368,5.6398,5.6825,5.7094,5.7094,5.7094,5.7094,5.7094,5.7094,5.6645,5.5598,5.5538,5.5538,5.5538,5.5418,5.5359,5.5359,5.5269,5.5209,5.5209,5.5581,5.5637,5.5189,5.5315,5.5142,5.4222,5.4022,5.3804,5.3733,5.3828,5.4326,5.5536,5.6897,5.7683,5.7483,5.8966,6.0357,6.0622,6.0688,6.0887,6.1086,6.1119,6.1119,6.1119,6.1119,6.1119,6.1119,6.1119,6.1119,6.1119,6.1119,6.1119,6.1119,6.1119,6.1119,6.1119,6.1119,6.1119,6.1119,6.1119,6.1119,6.119,6.109,5.996,5.9433,5.946,5.946,5.9359,5.9236,5.7843,5.7128,5.6975,5.6972,5.6946,5.6946,5.7277,5.7369,5.7098,5.6066,5.5527,0.0,5.5397,5.5591,5.5881,5.6422,5.7176,5.8052,5.8407,5.8989,5.9801,6.1195,6.1791,6.1673,6.2526,6.3021,6.3021,6.2989,6.2899,6.278,6.1583,6.0685,6.0116,5.9997,5.9368,5.8201,5.8141,5.7782,5.7124,5.7034,5.6944,5.6974,5.6885,5.6825,5.6825,5.6915,5.6974,5.6974,5.7034,5.7094,5.7094,5.7094,5.7094,5.7094,5.7094,5.7004,5.6855,5.6825,5.6825,5.6795,5.6286,5.6068,5.6038,5.5508,5.5209,5.5179,5.528,5.5451,5.5747,5.5408,5.5193,5.5298,5.4914,5.4299,5.3835,5.4189,5.483,5.5623,5.6464,5.7356,5.821,5.8369,5.8833,5.9827,6.0158,6.0423,6.0953,6.1119,6.1119,6.1119,6.1119,6.1119,6.1119,6.1053,6.102,6.1086,6.102,6.1053,6.1053,6.1119,6.1119,6.1119,6.1119,6.1119,6.1119,6.1119,6.1119,6.119,6.104,5.996,5.9508,5.9508,5.9508,5.9508,5.9382,5.8278,5.7873,5.7823,5.7463,5.7086,5.6962,5.7103,5.7106,5.6841,5.6158,5.5891,5.6029,5.6065,5.6291,5.661,5.6904,5.7555,5.8431,5.8682,5.9355,6.0474,6.1554,6.2234,6.241,6.2875,6.3137,6.3137,6.3137,6.3137,6.3079,6.2151,6.1313,6.0655,6.0266,5.9608,5.868,5.865,5.8501,5.8201,5.7842,5.7663,5.7663,5.7304,5.7094,5.7094,5.7453,5.7633,5.7663,5.7992,5.8201,5.8171,5.8201,5.8171,5.8171,5.8201,5.8171,5.8171,5.7513,5.6944,5.6615,5.6368,5.6017,5.5688,5.5359,5.5209,5.5209,5.5431,5.5731,5.5948,5.603,5.5875,5.5698,5.5438,5.4884,5.3837,5.4598,5.5153,5.5335,5.6027,5.7291,5.8661,5.8634,5.8734,5.9794,6.0324,6.0688,6.1053,6.1119,6.1119,6.1119,6.1119,6.1119,6.1086,6.0854,6.0556,6.049,6.0523,6.0523,6.0556,6.0854,6.1053,6.1119,6.1119,6.1119,6.1119,6.1119,6.1119,6.119,6.109,5.996,5.9508,5.9508,5.9508,5.9433,5.9282,5.9006,5.8755,5.8403,5.7847,5.7341,5.6967,5.7,5.683,5.6559,5.6193,5.6072,5.6211,5.6598,5.6807,5.6797,5.7223,5.7854,5.8655,5.8918,5.9861,6.1168,6.1969,6.2585,6.3079,6.3137,6.3137,6.3137,6.3137,6.3137,6.3107,6.257,6.1942,6.1134,6.0595,5.9937,5.9159,5.9099,5.9099,5.9069,5.862,5.8351,5.8321,5.7842,5.7543,5.7573,5.8052,5.8351,5.8381,5.883,5.9099,5.9099,5.9099,5.9099,5.9099,5.8979,5.889,5.88,5.7782,5.6974,5.6675,5.6526,5.6196,5.5777,5.5508,5.5418,5.5469,5.5842,5.6031,5.6058,5.6421,5.6528,5.6023,5.593,5.5485,5.4667,5.504,5.5463,5.5233,5.6112,5.7403,5.8403,5.8866,5.9429,5.9926,6.0622,6.1053,6.1119,6.1119,6.1119,6.1119,6.1119,6.1119,6.102,6.0622,6.0324,6.0357,6.0324,6.039,6.0357,6.0688,6.1053,6.1119,6.1119,6.1119,6.1119,6.1119,6.1119,6.1165,6.1014,5.996,5.9508,5.9508,5.9508,5.9232,5.8905,5.9232,5.8855,5.7951,5.7695,5.7286,5.683,5.6823,5.6747,5.6794,5.6565,5.6194,5.5941,5.6929,5.6995,5.6542,5.7275,5.7988,5.8711,5.956,6.0537,6.1583,6.2556,6.3021,6.3079,6.3137,6.3137,6.3137,6.3137,6.3137,6.3137,6.3019,6.2391,6.1194,6.1044,6.0416,5.9159,5.9099,5.9099,5.9099,5.9069,5.9009,5.9009,5.8919,5.889,5.889,5.8979,5.9009,5.9009,5.9069,5.9099,5.9099,5.9099,5.9099,5.9069,5.856,5.8261,5.8231,5.7543,5.7363,5.7573,5.7274,5.6855,5.6885,5.6346,5.6008,5.5999,5.6314,5.6395,5.615,5.6274,5.6488,5.6669,5.6625,5.6384,5.5638,5.5682,5.5748,5.5694,5.6606,5.7574,5.8005,5.8966,5.9728,6.0059,6.0622,6.1053,6.1119,6.1119,6.1119,6.1119,6.1119,6.1119,6.1053,6.0986,6.0953,6.0589,6.0821,6.0788,6.0854,6.1086,6.1086,6.1119,6.1119,6.1119,6.1119,6.1119,6.1119,6.0688,6.0588,5.9834,5.9508,5.9508,5.9508,5.9207,5.8755,5.893,5.8428,5.7449,5.7271,5.7118,5.6891,5.6589,5.6583,5.6848,5.7195,5.7461,5.7712,5.867,5.9097,5.9024,5.9027,5.9233,5.9529,6.0308,6.1128,6.199,6.309,6.3438,6.3109,6.3137,6.3137,6.3137,6.3137,6.3137,6.3137,6.3137,6.263,6.1762,6.1313,6.0475,5.9279,5.9099,5.9099,5.9099,5.9099,5.9099,5.9099,5.9099,5.9099,5.9099,5.9099,5.9099,5.9099,5.9099,5.9099,5.9099,5.9099,5.9099,5.9099,5.8501,5.8141,5.8082,5.7483,5.7094,5.6944,5.6705,5.6406,5.6047,5.5748,5.57,5.5852,5.6104,5.6232,5.6286,5.647,5.6664,5.6761,5.681,5.6727,5.6444,5.632,5.6344,5.6362,5.6894,5.7342,5.7773,5.8701,5.9463,5.9993,6.0655,6.1053,6.1119,6.1119,6.1119,6.1119,6.1119,6.1119,6.1086,6.0688,6.0456,6.049,6.0556,6.0556,6.039,6.0887,6.1119,6.1119,6.1119,6.1119,6.1119,6.1119,6.1119,6.0311,6.0236,5.9734,5.9508,5.9483,5.9332,5.8981,5.8529,5.8504,5.7876,5.6872,5.6947,5.6873,5.6771,5.6369,5.6438,5.6993,5.7713,5.8392,5.8981,5.9887,6.0423,6.0507,6.0449,6.0484,6.0813,6.1261,6.1843,6.2435,6.3209,6.3528,6.3139,6.3137,6.3137,6.3137,6.3137,6.3137,6.3137,6.3137,6.275,6.2121,6.1642,6.0745,5.9518,5.9368,5.9279,5.9129,5.9099,5.9099,5.9099,5.9099,5.9099,5.9099,5.9099,5.9099,5.9099,5.9099,5.9099,5.9099,5.9099,5.9099,5.9069,5.8501,5.8141,5.7992,5.7334,5.6675,5.6286,5.6068,5.5718,5.5568,5.5448,5.555,5.5752,5.6053,5.629,5.6305,5.6567,5.6858,5.7019,5.7115,5.7168,5.7349,5.7377,5.7354,5.7093,5.721,5.7442,5.8038,5.8767,5.9496,6.0191,6.0788,6.1053,6.1119,6.1119,6.1119,6.1119,6.1119,6.1119,6.1119,6.0589,6.0324,6.0721,6.0423,6.0357,6.0589,6.0953,6.1119,6.1119,6.1119,6.1119,6.1119,6.1119,6.1161,6.0311,6.0236,5.9734,5.9508,5.9458,5.9006,5.8453,5.8001,5.7951,5.7323,5.642,5.6796,5.6746,5.6294,5.6219,5.6558,5.7282,5.807,5.8587,5.8971,5.9982,6.0097,5.9682,6.0524,6.1458,6.2188,6.2448,6.2676,6.3054,6.3141,6.3109,6.3137,6.3137,6.3137,6.3137,6.3137,6.3137,6.3137,6.3137,6.278,6.2211,6.2091,6.1433,6.0236,6.0027,5.9697,5.9189,5.9099,5.9099,5.9099,5.9099,5.9099,5.9099,5.9099,5.9099,5.9099,5.9099,5.9099,5.9099,5.9099,5.9099,5.9039,5.8501,5.8112,5.7962,5.6974,5.6308,5.6137,5.5598,5.5478,5.5897,5.5918,5.6008,5.6089,5.6526,5.6475,5.6089,5.647,5.7067,5.7511,5.7621,5.7895,5.8572,5.8807,5.8368,5.8032,5.8336,5.8767,5.8899,5.9463,6.0158,6.0721,6.1053,6.1119,6.1119,6.1119,6.1119,6.1119,6.1119,6.1119,6.1119,6.1086,6.102,6.102,6.092,6.092,6.102,6.1086,6.1119,6.1119,6.1119,6.1119,6.1119,6.1119,6.1161,6.0111,5.9784,5.9583,5.9508,5.9483,5.9307,5.873,5.7926,5.7901,5.7273,5.6369,5.642,5.6394,5.6219,5.6219,5.6631,5.7426,5.84,5.9183,6.0061,6.1176,6.1669,6.1779,6.2143,6.2431,6.2853,6.3301,6.3594,6.3739,6.4096,6.3887,6.3169,6.3137,6.3137,6.3137,6.3137,6.3137,6.3137,6.3137,6.2929,6.272,6.272,6.2271,6.1403,6.0535,5.9757,5.9129,5.9099,5.9099,5.9099,5.9099,5.9099,5.9099,5.9099,5.9099,5.9099,5.9099,5.9099,5.9099,5.9099,5.9099,5.9069,5.8501,5.7932,5.7423,5.6675,5.6068,5.5628,5.5359,5.5329,5.5448,5.5538,5.564,5.5791,5.5963,5.6152,5.6237,5.6421,5.6682,5.7115,5.7511,5.8078,5.8734,5.8909,5.8774,5.8587,5.8734,5.9098,5.9529,5.986,6.0291,6.0887,6.1119,6.1119,6.1119,6.1119,6.1119,6.1119,6.1119,6.1119,6.1119,6.1119,6.1053,6.1053,6.1119,6.1119,6.1086,6.1086,6.1119,6.1119,6.1119,6.1119,6.1119,6.1119,6.1127,5.9834,5.9533,5.9508,5.9508,5.9458,5.9131,5.8579,5.7876,5.7499,5.6922,5.6294,5.6365,5.6412,5.6583,5.6703,5.7282,5.807,5.8683,5.9595,6.0865,6.1709,6.2342,6.2735,6.3021,6.3335,6.3682,6.4109,6.4308,6.4008,6.4276,6.3917,6.3139,6.3137,6.3137,6.3137,6.3137,6.2989,6.2839,6.2959,6.2989,6.2839,6.2989,6.275,6.2091,6.1194,6.0416,5.9787,5.9757,5.9757,5.9757,5.9757,5.9668,5.9458,5.9219,5.9099,5.9099,5.9099,5.9099,5.9099,5.9099,5.9099,5.9099,5.871,5.8201,5.7723,5.6974,5.6316,5.5867,5.5359,5.5209,5.5209,5.5209,5.528,5.5481,5.5631,5.588,5.6225,5.6421,5.673,5.7258,5.8041,5.8697,5.9166,5.9455,5.9506,5.9323,5.9264,5.9496,5.9893,6.0026,6.0258,6.0953,6.1119,6.1119,6.1119,6.1119,6.1119,6.1119,6.1119,6.1119,6.1119,6.1119,6.1119,6.1119,6.1119,6.1119,6.1119,6.1119,6.1119,6.1119,6.1119,6.1119,6.1119,6.1119,6.1127,5.9508,5.9508,5.9508,5.9508,5.9382,5.8579,5.8001,5.775,5.6846,5.6445,5.6244,5.6583,5.6946,5.7282,5.7641,5.8497,5.9245,5.8991,5.9691,6.1234,6.1506,6.1912,6.2592,6.3336,6.4167,6.4983,6.4987,6.4665,6.4126,6.3647,6.3258,6.3166,6.3137,6.3137,6.3137,6.3107,6.275,6.2421,6.272,6.269,6.2241,6.26,6.263,6.2151,6.1972,6.1672,6.1134,6.1044,6.0924,6.0984,6.0984,6.0745,6.0116,5.9608,5.9189,5.9279,5.9219,5.9189,5.9159,5.9189,5.9219,5.9099,5.9069,5.8949,5.856,5.7752,5.7004,5.6645,5.5927,5.5239,5.5209,5.5209,5.5209,5.5229,5.5631,5.5929,5.6077,5.647,5.7067,5.7793,5.8818,5.9838,6.0098,6.0332,6.0448,6.0076,5.9993,6.0026,6.0158,6.0191,6.039,6.0887,6.1119,6.1119,6.1119,6.1119,6.1119,6.1119,6.1119,6.1119,6.1119,6.1119,6.1119,6.1119,6.1119,6.1119,6.1119,6.1119,6.1119,6.1119,6.1119,6.1119,6.1119,6.1119,6.121,5.9508,5.9508,5.9508,5.9508,5.9458,5.9131,5.8604,5.7901,5.7499,5.6947,5.6392,5.6656,5.7138,5.7687,5.8115,5.9035,6.0288,6.0177,6.0591,6.1614,6.242,6.2952,6.3553,6.4578,6.5647,6.6204,6.5888,6.5353,6.4695,6.4036,6.3528,6.3169,6.3137,6.3137,6.3137,6.3107,6.275,6.2211,6.2301,6.2061,6.1493,6.1613,6.1822,6.2091,6.2091,6.2181,6.2391,6.1613,6.1134,6.1134,6.1104,6.1014,6.0805,6.0595,6.0505,6.0505,6.0475,6.0236,5.9847,5.9757,5.9548,5.9219,5.9099,5.886,5.8501,5.8082,5.7393,5.6705,5.6077,5.5718,5.5299,5.5209,5.5269,5.5209,5.5531,5.583,5.6077,5.647,5.7306,5.8303,5.8546,5.9133,6.0249,6.0708,6.0534,6.0705,6.0721,6.0721,6.0755,6.0688,6.0788,6.1086,6.1119,6.1119,6.1119,6.1119,6.1119,6.1119,6.1119,6.1119,6.1119,6.1119,6.1119,6.1119,6.1119,6.1119,6.1119,6.1119,6.1119,6.1119,6.1119,6.1119,6.1119,6.1127,6.1252,5.9508,5.9508,5.9508,5.9508,5.9458,5.9436,5.8857,5.8001,5.78,5.7195,5.6392,5.6656,5.7354,5.8232,5.8727,5.9734,6.0975,6.1138,6.1586,6.2326,6.3018,6.3741,6.4361,6.5446,6.6174,6.6458,6.6221,6.5682,6.5024,6.4575,6.3947,6.3228,6.3318,6.3288,6.3166,6.3107,6.269,6.1912,6.1972,6.1642,6.0984,6.0984,6.1313,6.1672,6.1732,6.1942,6.2271,6.1523,6.1343,6.1672,6.1642,6.1493,6.1463,6.1253,6.1104,6.1104,6.1074,6.0775,6.0206,6.0027,5.9787,5.9249,5.9099,5.8949,5.853,5.8321,5.7663,5.7094,5.6645,5.6346,5.5987,5.5897,5.5948,5.608,5.5902,5.596,5.6274,5.6567,5.7098,5.784,5.818,5.894,5.9696,6.0591,6.0506,6.1002,6.1119,6.1119,6.1119,6.1086,6.1119,6.1119,6.1119,6.1119,6.1119,6.1119,6.1119,6.1119,6.1119,6.1119,6.1119,6.1119,6.1119,6.1119,6.1119,6.1119,6.1119,6.1119,6.1119,6.1119,6.1119,6.1119,6.1119,6.121,6.1334,5.9508,5.9508,5.9508,5.9508,5.951,5.9388,5.8858,5.8001,5.7968,5.7483,5.6659,5.6921,5.783,5.9008,5.9498,6.0426,6.1681,6.1884,6.2487,6.3216,6.3675,6.4196,6.5222,6.5915,6.6238,6.625,6.6071,6.5712,6.5203,6.4874,6.4366,6.3348,6.3588,6.3647,6.3169,6.3137,6.245,6.1463,6.1732,6.1343,6.0176,6.0565,6.0984,6.1044,6.1044,6.1134,6.1253,6.1194,6.1702,6.269,6.2361,6.2151,6.2032,6.1553,6.1373,6.1403,6.1253,6.0924,6.0386,6.0266,5.9907,5.9219,5.9099,5.9099,5.8979,5.856,5.8201,5.7902,5.7453,5.7094,5.7004,5.6997,5.7152,5.7411,5.6728,5.6439,5.6774,5.692,5.7163,5.7401,5.8119,5.9043,5.9431,6.042,6.0877,6.1077,6.1119,6.1119,6.1152,6.1185,6.1185,6.1185,6.1218,6.1218,6.1251,6.1119,6.1119,6.1119,6.1119,6.1119,6.1119,6.1119,6.1119,6.1119,6.1119,6.1119,6.1119,6.1119,6.1119,6.1119,6.1119,6.1119,6.1169,6.1293,6.1424,5.9508,5.9508,5.9508,5.9508,5.956,5.9794,5.9262,5.8426,5.9186,5.8807,5.8083,5.7973,5.8938,6.0468,6.0123,6.0906,6.222,6.2582,6.3348,6.439,6.4583,6.5285,6.6228,6.66,6.6695,6.667,6.6281,6.5922,6.5682,6.4844,6.4156,6.3767,6.3498,6.3288,6.3079,6.3137,6.2391,6.1313,6.1253,6.0745,5.9638,5.9548,5.9877,6.0326,6.0356,6.0595,6.1044,6.1104,6.1463,6.2271,6.272,6.281,6.272,6.254,6.2391,6.245,6.245,6.2002,6.1074,6.0805,6.0296,5.9279,5.9129,5.9099,5.9099,5.8949,5.862,5.8261,5.7932,5.7663,5.7326,5.7393,5.7704,5.8014,5.7536,5.7186,5.7377,5.7538,5.7746,5.8349,5.9088,5.9739,6.0292,6.0708,6.1119,6.1119,6.1152,6.1185,6.1318,6.1682,6.1848,6.1516,6.1417,6.1384,6.1351,6.1185,6.1119,6.1119,6.1119,6.1119,6.1119,6.1119,6.1119,6.1119,6.1119,6.1119,6.1119,6.1086,6.1119,6.1161,6.1202,6.121,6.1293,6.1383,6.1588,5.9508,5.9508,5.9508,5.9508,5.9585,6.0125,5.9769,5.9156,5.9934,5.9843,5.9057,5.8903,5.9777,6.1057,6.0742,6.1559,6.315,6.3046,6.3834,6.5285,6.5727,6.629,6.6876,6.6999,6.6999,6.6969,6.661,6.6281,6.5951,6.5173,6.4605,6.4036,6.3647,6.3348,6.3137,6.3107,6.2421,6.1373,6.1074,6.0446,5.9219,5.9099,5.9279,5.9638,5.9668,5.9907,6.0236,6.0505,6.0984,6.1583,6.2032,6.2391,6.266,6.269,6.281,6.3077,6.3137,6.248,6.1433,6.1104,6.0625,5.9727,5.9308,5.9279,5.9368,5.9308,5.886,5.862,5.853,5.8321,5.8135,5.8332,5.875,5.9112,5.8736,5.8243,5.7919,5.7774,5.7965,5.8546,5.9311,6.013,6.0633,6.091,6.1077,6.1185,6.145,6.1516,6.1682,6.2255,6.2553,6.2179,6.1881,6.1848,6.1616,6.1417,6.1152,6.1152,6.1119,6.1119,6.1119,6.1119,6.1119,6.1119,6.1119,6.1119,6.1119,6.1127,6.1252,6.1293,6.1293,6.1375,6.1465,6.1588,6.1756,5.956,5.956,5.956,5.9585,5.9714,6.0329,6.0252,5.9764,6.0755,6.071,6.0101,6.0011,6.0864,6.1574,6.1749,6.2337,6.3973,6.3545,6.439,6.5601,6.6414,6.6937,6.6937,6.6999,6.6999,6.6969,6.6999,6.664,6.6251,6.6011,6.5293,6.4425,6.4066,6.3647,6.3256,6.3137,6.2361,6.1343,6.1104,6.0416,5.9368,5.9099,5.9159,5.9189,5.9219,5.9219,5.9398,5.9727,6.0266,6.0864,6.1014,6.1493,6.1972,6.2002,6.2331,6.278,6.2839,6.2391,6.1493,6.1283,6.0954,6.0266,5.9697,5.9548,5.9967,5.9817,5.9458,5.9219,5.9219,5.9153,5.9165,5.9629,5.9909,6.0093,5.9983,5.9193,5.8504,5.8136,5.8168,5.8354,5.9613,6.0185,6.039,6.0765,6.1251,6.1516,6.1781,6.198,6.2345,6.2941,6.315,6.3017,6.2719,6.2453,6.2047,6.1649,6.1384,6.1185,6.1119,6.1119,6.1119,6.1119,6.1119,6.1119,6.1119,6.1119,6.1086,6.1169,6.1334,6.1383,6.1424,6.1547,6.175,6.1797,6.1917,5.9946,5.9946,5.9946,5.9946,6.0022,6.0482,6.0706,6.0762,6.2172,6.2631,6.2668,6.2522,6.2994,6.3999,6.3225,6.3562,6.4647,6.4583,6.5158,6.5915,6.6661,6.6999,6.6999,6.6999,6.6999,6.6999,6.6999,6.6909,6.667,6.6191,6.5622,6.4904,6.4216,6.3707,6.3199,6.3049,6.245,6.1373,6.1134,6.0446,5.9428,5.9129,5.9099,5.9099,5.9099,5.9099,5.9129,5.9249,5.9398,5.9727,6.0475,6.1074,6.1253,6.1313,6.1642,6.2151,6.2331,6.2181,6.1942,6.1762,6.1613,6.0984,6.0685,6.0745,6.0835,6.0745,6.0356,6.0027,5.9847,5.9771,5.9727,5.988,6.0197,6.0411,6.0188,6.002,6.0233,6.0281,6.0337,6.1071,6.1785,6.2362,6.1801,6.1778,6.1989,6.2022,6.2255,6.252,6.3083,6.367,6.3802,6.3769,6.358,6.3216,6.2378,6.1914,6.1417,6.1285,6.1285,6.1318,6.1318,6.1251,6.1285,6.1218,6.1119,6.1119,6.1086,6.1293,6.1424,6.1506,6.1588,6.179,6.1951,6.1997,6.211,6.0125,6.0125,6.0125,6.0125,6.0201,6.0508,6.1012,6.1647,6.2775,6.3892,6.4374,6.4207,6.452,6.5253,6.4584,6.4589,6.5412,6.579,6.5915,6.6228,6.6661,6.6999,6.6999,6.6999,6.6999,6.6999,6.6999,6.6999,6.6819,6.637,6.5832,6.5413,6.4515,6.3917,6.3468,6.3228,6.257,6.1732,6.1253,6.0595,5.9727,5.9249,5.9099,5.9099,5.9099,5.9099,5.9099,5.9129,5.9129,5.9279,5.9787,6.0356,6.0595,6.0655,6.0984,6.1523,6.1972,6.1882,6.1762,6.1912,6.1942,6.1613,6.1313,6.1343,6.1373,6.1313,6.0775,6.0266,6.0052,5.9981,5.9811,5.9963,6.0197,6.0451,6.0434,6.0749,6.1607,6.1424,6.1299,6.2105,6.2662,6.2878,6.2808,6.2752,6.2752,6.2752,6.3239,6.3547,6.3769,6.4332,6.4597,6.4564,6.4365,6.3835,6.2917,6.2146,6.1417,6.1384,6.1516,6.1649,6.1748,6.1649,6.155,6.1384,6.1218,6.1119,6.1161,6.1334,6.1547,6.1628,6.179,6.1991,6.215,6.2189,6.2263,6.0201,6.0201,6.0278,6.0278,6.0355,6.066,6.1394,6.2264,6.3261,6.4563,6.5552,6.5441,6.5745,6.5815,6.5577,6.5694,6.6165,6.66,6.66,6.6414,6.6723,6.6999,6.6999,6.6999,6.6999,6.6999,6.6999,6.6999,6.6849,6.646,6.6161,6.5802,6.4814,6.4156,6.3887,6.3378,6.272,6.2032,6.1583,6.1014,6.0326,5.9787,5.9548,5.9338,5.9159,5.9129,5.9099,5.9099,5.9099,5.9099,5.9099,5.9398,5.9757,5.9967,6.0326,6.1044,6.1613,6.1822,6.1882,6.2061,6.2271,6.2211,6.1792,6.1732,6.2002,6.1822,6.1224,6.0505,6.0057,5.9747,5.9566,5.9827,6.0092,6.0377,6.0638,6.1531,6.2473,6.2012,6.2017,6.2774,6.3551,6.3825,6.3603,6.3481,6.3481,6.358,6.4111,6.4465,6.4697,6.4862,6.5028,6.5127,6.4895,6.4498,6.3603,6.252,6.1715,6.1914,6.2013,6.2179,6.2345,6.2354,6.2188,6.1592,6.1359,6.126,6.1285,6.1465,6.1669,6.179,6.1951,6.2223,6.2302,6.2415,6.2448,6.0584,6.066,6.1041,6.1193,6.1193,6.1268,6.2145,6.3453,6.4553,6.56,6.6514,6.7123,6.7008,6.6828,6.6711,6.6753,6.6785,6.6937,6.6937,6.6723,6.6937,6.6999,6.6999,6.6999,6.6999,6.6999,6.6999,6.6999,6.6969,6.6849,6.646,6.5951,6.5203,6.4575,6.3947,6.3378,6.281,6.2301,6.1942,6.1493,6.1044,6.0625,6.0176,5.9757,5.9308,5.9129,5.9099,5.9099,5.9099,5.9099,5.9099,5.9189,5.9308,5.9338,5.9907,6.0775,6.1253,6.1613,6.2301,6.272,6.2899,6.2899,6.269,6.266,6.281,6.269,6.1942,6.0924,5.9937,5.9327,5.9506,5.9773,6.0092,6.0377,6.0794,6.1481,6.26,6.2956,6.3171,6.4195,6.4619,6.4763,6.4432,6.42,6.42,6.42,6.4432,6.4829,6.5061,6.5194,6.5293,6.5326,6.5326,6.4862,6.4299,6.3073,6.2212,6.2676,6.2917,6.3017,6.315,6.315,6.2851,6.2463,6.1808,6.1418,6.1483,6.1662,6.175,6.183,6.207,6.2415,6.2448,6.2482,6.2584,6.1041,6.1117,6.1721,6.1695,6.1571,6.2295,6.3232,6.4301,6.5494,6.666,6.7583,6.7894,6.7762,6.7426,6.7083,6.6999,6.6999,6.6999,6.6999,6.6999,6.6999,6.6999,6.6999,6.6999,6.6999,6.6999,6.6999,6.6999,6.6999,6.6969,6.664,6.6011,6.5353,6.4665,6.4006,6.3378,6.2959,6.257,6.2271,6.1972,6.1523,6.1074,6.0266,5.9668,5.9338,5.9129,5.9099,5.9099,5.9099,5.9099,5.9099,5.9099,5.9099,5.9219,5.9548,6.0446,6.0924,6.1523,6.248,6.2839,6.3107,6.3137,6.3137,6.3137,6.3137,6.2929,6.245,6.1253,5.9937,5.9153,5.9261,5.975,6.0039,6.0302,6.0845,6.1885,6.281,6.3388,6.4268,6.5123,6.5171,6.5094,6.5061,6.4929,6.4929,6.4929,6.4895,6.5094,6.5392,6.5425,6.5425,6.5326,6.526,6.4895,6.4465,6.367,6.2941,6.3372,6.3746,6.3846,6.3922,6.3966,6.3909,6.3762,6.2931,6.2116,6.1565,6.1702,6.179,6.1911,6.215,6.2415,6.2516,6.2618,6.2787,6.1495,6.1721,6.2369,6.2369,6.222,6.3259,6.4328,6.5182,6.6104,6.7254,6.853,6.8141,6.7842,6.7653,6.7298,6.6999,6.6999,6.6999,6.6999,6.6999,6.6999,6.6999,6.6999,6.6999,6.6999,6.6999,6.6999,6.6999,6.6999,6.6999,6.67,6.6191,6.5503,6.4814,6.4216,6.3498,6.3228,6.2929,6.26,6.2271,6.1822,6.0954,5.9967,5.9338,5.9189,5.9099,5.9099,5.9099,5.9099,5.9099,5.9099,5.9099,5.9099,5.9099,5.9428,6.0057,6.0745,6.1433,6.2241,6.275,6.3137,6.3137,6.3137,6.3137,6.2989,6.2839,6.2391,6.1343,6.0356,5.9518,5.9567,5.9824,6.0084,6.0197,6.1,6.2085,6.289,6.3578,6.4268,6.4897,6.5213,6.5359,6.526,6.526,6.5194,6.516,6.516,6.516,6.5425,6.5425,6.5359,6.5194,6.5028,6.4796,6.4465,6.4243,6.3835,6.41,6.4442,6.4608,6.4696,6.4783,6.4704,6.46,6.4161,6.3342,6.258,6.1884,6.2112,6.2312,6.233,6.251,6.2854,6.3091,6.3294,6.177,6.2444,6.2815,6.3332,6.3846,6.421,6.505,6.6258,6.6571,6.7122,6.8077,6.7995,6.7712,6.7268,6.7089,6.6999,6.6999,6.6999,6.6999,6.6999,6.6999,6.6999,6.6999,6.6999,6.6999,6.6999,6.6999,6.6999,6.6999,6.6999,6.6879,6.646,6.5562,6.4815,6.4425,6.3528,6.3166,6.3079,6.2989,6.266,6.2061,6.1313,6.0595,5.9967,5.9428,5.9099,5.9099,5.9099,5.9099,5.9099,5.9099,5.9099,5.9099,5.9099,5.9458,6.0057,6.0775,6.1642,6.26,6.2989,6.3137,6.3137,6.3137,6.3137,6.2959,6.257,6.2211,6.2061,6.1194,6.0535,6.0196,6.0482,6.0455,6.0524,6.0917,6.1897,6.2776,6.3578,6.4314,6.4773,6.5213,6.5348,6.5359,6.5392,6.5392,6.5392,6.5425,6.5425,6.5425,6.5425,6.5425,6.526,6.516,6.4895,6.4829,6.4498,6.4498,6.4763,6.4929,6.5172,6.5282,6.5313,6.5311,6.5139,6.4841,6.4388,6.3515,6.3033,6.2784,6.2701,6.264,6.295,6.3328,6.3599,6.3971,6.2518,6.2863,6.348,6.3946,6.4455,6.5649,6.6314,6.6793,6.794,6.8275,6.811,6.8366,6.7986,6.7148,6.6999,6.6999,6.6999,6.6999,6.6999,6.6999,6.6999,6.6999,6.6999,6.6999,6.6999,6.6999,6.6999,6.6999,6.6999,6.6909,6.6729,6.5922,6.5323,6.4545,6.4276,6.3408,6.3196,6.3137,6.3077,6.272,6.2091,6.1463,6.0805,6.0116,5.9458,5.9189,5.9099,5.9099,5.9099,5.9099,5.9099,5.9099,5.9099,5.9189,5.9518,6.0595,6.0924,6.1553,6.2361,6.2839,6.3107,6.3137,6.3137,6.3137,6.2959,6.254,6.2121,6.2091,6.1493,6.1014,6.0766,6.0844,6.1031,6.1111,6.1265,6.1937,6.2897,6.35,6.4221,6.4682,6.5123,6.5258,6.5425,6.5425,6.5425,6.5425,6.5425,6.5425,6.5425,6.5425,6.5425,6.5392,6.5293,6.516,6.516,6.5061,6.4995,6.5127,6.516,6.5415,6.5669,6.5744,6.5784,6.5923,6.5935,6.5337,6.4461,6.3869,6.3411,6.318,6.2944,6.3457,6.4005,6.4681,6.5087,6.3599,6.4038,6.4645,6.4933,6.5264,6.7025,6.7591,6.767,6.8664,6.8931,6.8459,6.8375,6.7837,6.7208,6.6999,6.6999,6.6999,6.6999,6.6999,6.6999,6.6999,6.6999,6.6999,6.6999,6.6999,6.6999,6.6999,6.6999,6.6999,6.6909,6.652,6.5503,6.5533,6.4784,6.3887,6.3468,6.3318,6.3137,6.3137,6.272,6.2151,6.1672,6.0924,6.0236,5.9638,5.9279,5.9129,5.9099,5.9099,5.9099,5.9099,5.9099,5.9099,5.9159,5.9428,6.0296,6.0715,6.1283,6.1972,6.251,6.3017,6.3137,6.3137,6.3137,6.3019,6.257,6.2331,6.2421,6.2061,6.1729,6.1451,6.1418,6.1686,6.1936,6.2121,6.2612,6.3186,6.3837,6.4402,6.4897,6.5258,6.5303,6.5425,6.5425,6.5425,6.5425,6.5425,6.5425,6.5425,6.5425,6.5425,6.5425,6.5359,6.5293,6.5326,6.5392,6.5425,6.547,6.547,6.5647,6.5955,6.6129,6.6201,6.6482,6.6686,6.6154,6.5166,6.4532,6.4005,6.3829,6.3795,6.4208,6.4749,6.5459,6.5933,6.4995,6.6272,6.637,6.679,6.7443,6.7661,6.8486,6.9156,6.8537,6.8546,6.8642,6.7777,6.7238,6.7029,6.6999,6.6999,6.6999,6.6999,6.6999,6.6999,6.6999,6.6999,6.6999,6.6999,6.6999,6.6999,6.6999,6.6999,6.6999,6.6999,6.6909,6.6789,6.6041,6.5503,6.4784,6.4036,6.3498,6.3256,6.3137,6.281,6.2331,6.1912,6.1403,6.0446,6.0057,5.9757,5.9159,5.9129,5.9099,5.9099,5.9099,5.9099,5.9099,5.9099,5.9368,5.9787,6.0655,6.1164,6.1672,6.245,6.3017,6.3137,6.3137,6.3137,6.3107,6.3137,6.3047,6.2899,6.263,6.2622,6.2548,6.2556,6.2439,6.2693,6.2915,6.3308,6.3805,6.4218,6.4799,6.5173,6.5513,6.5778,6.569,6.5757,6.5492,6.5459,6.5425,6.5425,6.5425,6.5425,6.5425,6.5425,6.5425,6.5392,6.5392,6.5425,6.5559,6.5603,6.5647,6.5911,6.6292,6.6464,6.643,6.6601,6.6736,6.6339,6.6,6.5527,6.5087,6.4681,6.4647,6.4952,6.5392,6.6034,6.6406,6.592,6.6622,6.7964,6.847,6.8402,6.894,6.9134,6.9345,6.9589,6.9406,6.8914,6.7657,6.6999,6.6999,6.6999,6.6999,6.6999,6.6999,6.6999,6.6999,6.6999,6.6999,6.6999,6.6999,6.6999,6.6999,6.6999,6.6999,6.6999,6.6999,6.6999,6.6789,6.637,6.5682,6.5024,6.4366,6.3707,6.3258,6.3137,6.2899,6.275,6.2241,6.1852,6.1433,6.0296,6.0057,5.9697,5.9279,5.9159,5.9099,5.9099,5.9099,5.9099,5.9099,5.9279,5.9608,6.0565,6.1104,6.1642,6.245,6.3107,6.3137,6.3137,6.3137,6.3137,6.3137,6.3137,6.3137,6.3137,6.3012,6.315,6.298,6.295,6.3391,6.3795,6.41,6.4507,6.5006,6.5448,6.5982,6.6382,6.6705,6.6407,6.6154,6.5823,6.5525,6.5459,6.5425,6.5425,6.5425,6.5425,6.5425,6.547,6.5514,6.547,6.5559,6.5647,6.578,6.5857,6.6162,6.6464,6.6464,6.655,6.6686,6.6812,6.6576,6.6406,6.6406,6.6068,6.5493,6.5392,6.5595,6.6102,6.6576,6.6711,6.711,6.769,6.9441,6.9803,6.9211,6.9457,6.9607,6.9613,6.9973,6.9901,6.8914,6.7627,6.6999,6.6999,6.6999,6.6999,6.6999,6.6999,6.6999,6.6999,6.6999,6.6999,6.6999,6.6999,6.6999,6.6999,6.6999,6.6999,6.6999,6.6999,6.6999,6.6849,6.652,6.5981,6.5293,6.4425,6.3767,6.3438,6.3139,6.3137,6.2989,6.266,6.2211,6.2032,6.1164,6.0475,6.0116,5.9668,5.9338,5.9189,5.9099,5.9099,5.9099,5.9159,5.9368,5.9847,6.0416,6.1044,6.1583,6.248,6.3077,6.3137,6.3137,6.3137,6.3137,6.3137,6.3137,6.3137,6.3137,6.3222,6.3565,6.3456,6.367,6.4114,6.4737,6.5073,6.5511,6.5992,6.6387,6.6823,6.7089,6.7268,6.7102,6.6738,6.6142,6.579,6.5459,6.5425,6.5425,6.5425,6.5425,6.547,6.5514,6.5514,6.5559,6.5647,6.578,6.6119,6.6206,6.6292,6.6507,6.655,6.6592,6.6728,6.6812,6.6812,6.6745,6.6643,6.6406,6.6136,6.6136,6.617,6.6339,6.6711,6.6745,6.8441,6.9869,7.0498,7.0433,6.9788,6.9253,6.9718,7.0401,6.9598,6.9093,6.8734,6.7537,6.6999,6.6999,6.6999,6.6999,6.6999,6.6999,6.6999,6.6999,6.6999,6.6999,6.6999,6.6999,6.6999,6.6999,6.6999,6.6999,6.6999,6.6999,6.6999,6.6999,6.6819,6.649,6.5892,6.4665,6.4036,6.3917,6.3438,6.3228,6.3169,6.3019,6.263,6.2301,6.1912,6.1224,6.0655,6.0057,5.9697,5.9398,5.9159,5.9129,5.9099,5.9099,5.9189,5.9279,5.9847,6.0206,6.0386,6.2061,6.278,6.3047,6.2989,6.2959,6.3107,6.3137,6.3137,6.3137,6.3137,6.3424,6.3679,6.3989,6.4326,6.4899,6.5486,6.6174,6.6575,6.723,6.7668,6.7918,6.7744,6.7599,6.7599,6.7367,6.6672,6.6109,6.5624,6.5425,6.5459,6.5425,6.5425,6.547,6.5514,6.5603,6.5692,6.5736,6.5911,6.6292,6.6464,6.6507,6.6601,6.6686,6.6728,6.6812,6.6812,6.6812,6.6812,6.6812,6.6609,6.6474,6.6609,6.6677,6.6812,6.6812,6.6812,6.9441,6.9936,7.0629,7.0789,7.0474,6.9957,7.0141,7.059,6.9602,6.8734,6.8196,6.7328,6.6999,6.6999,6.6999,6.6999,6.6999,6.6999,6.6999,6.6999,6.6999,6.6999,6.6999,6.6999,6.6999,6.6999,6.6999,6.6999,6.6999,6.6999,6.6999,6.6999,6.6939,6.664,6.6101,6.5413,6.5203,6.4635,6.4096,6.3677,6.3647,6.3318,6.2959,6.269,6.2331,6.1852,6.1253,6.0655,6.0116,5.9727,5.9488,5.9189,5.9159,5.9159,5.9099,5.9219,5.9727,6.0565,6.0984,6.1972,6.2181,6.254,6.272,6.269,6.2959,6.3137,6.3137,6.3137,6.3252,6.3538,6.3849,6.4188,6.4604,6.5584,6.6365,6.7164,6.7795,6.8617,6.9145,6.9192,6.9069,6.8606,6.844,6.8142,6.7433,6.6837,6.6386,6.579,6.5657,6.5492,6.5425,6.547,6.5559,6.5692,6.578,6.5867,6.6086,6.6421,6.655,6.655,6.6643,6.677,6.6812,6.6812,6.6812,6.6812,6.6812,6.6812,6.6812,6.6812,6.6812,6.6812,6.6812,6.6812,6.6812,6.995,6.9939,7.0395,7.044,7.0201,6.9812,6.9782,6.9752,6.9004,6.8375,6.7897,6.7298,6.6999,6.6999,6.6999,6.6999,6.6999,6.6999,6.6999,6.6999,6.6999,6.6999,6.6999,6.6999,6.6999,6.6999,6.6999,6.6999,6.6999,6.6999,6.6999,6.6999,6.6999,6.6789,6.637,6.6071,6.5742,6.5144,6.4575,6.3947,6.3767,6.3468,6.3137,6.2929,6.269,6.2301,6.1912,6.1343,6.0655,6.0326,5.9877,5.9458,5.9398,5.9219,5.9159,5.9279,5.9518,6.0326,6.0864,6.0655,6.1074,6.2091,6.2091,6.2331,6.272,6.2899,6.3107,6.3194,6.3306,6.3622,6.3932,6.4183,6.4795,6.5768,6.6753,6.7497,6.8104,6.8846,6.9637,6.9765,6.9732,6.9368,6.9136,6.8771,6.8307,6.7744,6.7181,6.6552,6.5922,6.569,6.5525,6.5614,6.567,6.5725,6.5901,6.5965,6.6215,6.6516,6.6635,6.6677,6.6686,6.6812,6.6812,6.6812,6.6812,6.6812,6.6812,6.6812,6.6812,6.6812,6.6812,6.6812,6.6812,6.6812,6.6812,6.9945,7.0021,6.9961,6.9602,6.9093,6.9034,6.8615,6.8016,6.8078,6.7986,6.7867,6.7208,6.6999,6.6999,6.6999,6.6999,6.6999,6.6999,6.6999,6.6999,6.6999,6.6999,6.6999,6.6999,6.6999,6.6999,6.6999,6.6999,6.6999,6.6999,6.6999,6.6999,6.6999,6.6909,6.67,6.643,6.6101,6.5592,6.4844,6.4246,6.3917,6.3408,6.3196,6.3019,6.2929,6.266,6.2331,6.1912,6.1553,6.1104,6.0446,6.0146,5.9847,5.9428,5.9219,5.9129,5.9189,5.9787,6.0236,5.9967,6.0326,6.1523,6.1822,6.2002,6.2151,6.2421,6.251,6.2714,6.2912,6.3407,6.3841,6.4178,6.4568,6.5575,6.6565,6.724,6.7783,6.8535,6.9478,6.9798,6.9798,6.9633,6.9599,6.9334,6.8871,6.8407,6.7844,6.7459,6.6796,6.5955,6.5868,6.5813,6.5836,6.5836,6.5945,6.6129,6.6345,6.6643,6.6686,6.6728,6.677,6.6812,6.6812,6.6812,6.6812,6.6812,6.6812,6.6812,6.6812,6.6812,6.6812,6.6812,6.6812,6.6812,6.6812,7.0012,6.9931,6.9482,6.9183,6.8944,6.8465,6.7897,6.7358,6.7779,6.7747,6.7238,6.7089,6.6999,6.6999,6.6999,6.6999,6.6999,6.6999,6.6999,6.6999,6.6999,6.6999,6.6999,6.6999,6.6999,6.6999,6.6999,6.6999,6.6999,6.6999,6.6999,6.6999,6.6999,6.6999,6.6909,6.6789,6.643,6.5892,6.5054,6.4545,6.3977,6.3438,6.3199,6.3137,6.3137,6.2869,6.275,6.2331,6.2002,6.1732,6.0685,6.0116,6.0027,5.9488,5.9129,5.9189,5.9548,6.0086,6.0565,6.0206,6.0326,6.1224,6.1553,6.1373,6.1463,6.1613,6.1792,6.2055,6.2367,6.2768,6.329,6.3745,6.434,6.5312,6.6333,6.7292,6.7885,6.8765,6.9655,6.9798,6.9798,6.9798,6.9798,6.9732,6.9301,6.8904,6.8553,6.8102,6.7505,6.663,6.6422,6.6445,6.6257,6.629,6.6253,6.6412,6.655,6.6728,6.677,6.6812,6.6812,6.6812,6.6812,6.6812,6.6812,6.6812,6.6812,6.6812,6.6812,6.6812,6.6812,6.6812,6.6812,6.6812,6.6812,6.9453,6.9153,6.8764,6.8465,6.8166,6.7777,6.7328,6.7089,6.7418,6.7328,6.7029,6.6999,6.6999,6.6999,6.6999,6.6999,6.6999,6.6999,6.6999,6.6999,6.6999,6.6999,6.6999,6.6999,6.6999,6.6999,6.6999,6.6999,6.6999,6.6999,6.6999,6.6999,6.6999,6.6999,6.6969,6.6909,6.661,6.6011,6.5353,6.4844,6.4246,6.3588,6.3199,6.3166,6.3166,6.3166,6.3107,6.257,6.251,6.2301,6.1194,6.0505,6.0386,5.9907,5.9787,5.9907,6.0266,6.0655,6.0924,6.0745,6.1044,6.1313,6.1194,6.0805,6.0864,6.1044,6.1194,6.1339,6.17,6.2062,6.2616,6.325,6.4135,6.4986,6.6238,6.7446,6.8286,6.914,6.9526,6.9751,6.9798,6.9798,6.9798,6.9798,6.9599,6.9036,6.8619,6.8347,6.775,6.6974,6.7089,6.7413,6.7035,6.6812,6.6785,6.6718,6.6702,6.6762,6.677,6.6812,6.6812,6.6812,6.6812,6.6812,6.6812,6.6812,6.6812,6.6812,6.6812,6.6812,6.6812,6.6812,6.6812,6.6812,6.6812,6.8555,6.8016,6.7989,6.7597,6.7059,6.7029,6.7029,6.6999,6.7029,6.6999,6.6999,6.6999,6.6999,6.6999,6.6999,6.6999,6.6999,6.6999,6.6999,6.6999,6.6999,6.6999,6.6999,6.6999,6.6999,6.6999,6.6999,6.6999,6.6999,6.6999,6.6999,6.6999,6.6999,6.6999,6.6999,6.6999,6.6729,6.6281,6.5652,6.5114,6.4725,6.3977,6.3199,6.3199,6.3199,6.3169,6.3166,6.3107,6.3137,6.263,6.2061,6.1253,6.0805,6.0715,6.0745,6.0805,6.1044,6.1194,6.1313,6.1253,6.1313,6.1224,6.0685,6.0595,6.0805,6.0475,6.0475,6.071,6.1042,6.1528,6.2135,6.2554,6.3256,6.4524,6.5816,6.6914,6.7798,6.8649,6.9258,6.9401,6.9401,6.9467,6.9798,6.9798,6.9827,6.915,6.8765,6.8559,6.8432,6.7721,6.769,6.8272,6.8138,6.7736,6.7295,6.7174,6.6846,6.6829,6.6838,6.6812,6.6812,6.6812,6.6812,6.6812,6.6812,6.6812,6.6812,6.6846,6.6846,6.6812,6.6812,6.6812,6.6846,6.6948,6.688,6.8106,6.7926,6.7448,6.7119,6.6999,6.6999,6.6999,6.6999,6.6999,6.6999,6.6999,6.6999,6.6999,6.6999,6.6999,6.6999,6.6999,6.6999,6.6999,6.6999,6.6999,6.6999,6.6999,6.6999,6.6999,6.6999,6.6999,6.6999,6.6999,6.6999,6.6999,6.6999,6.6999,6.6999,6.6999,6.6999,6.6819,6.658,6.6131,6.5562,6.5144,6.4874,6.4395,6.4006,6.3767,6.3468,6.3318,6.3079,6.3137,6.2869,6.2301,6.1672,6.1134,6.1403,6.1403,6.1283,6.1642,6.1792,6.1852,6.1912,6.2032,6.2181,6.1912,6.1373,6.0864,6.0086,5.9787,6.0136,6.0541,6.1116,6.1655,6.2011,6.2671,6.4152,6.554,6.6497,6.7424,6.8159,6.8956,6.897,6.897,6.9202,6.9533,6.9746,6.9841,6.9556,6.9184,6.9123,6.9553,6.9231,6.8607,6.8965,6.9278,6.8919,6.8331,6.7766,6.7539,6.7133,6.7075,6.6981,6.6846,6.6812,6.6812,6.6812,6.6812,6.6948,6.7015,6.688,6.688,6.6981,6.7184,6.7354,6.7354,6.7455,6.7184,6.7537,6.7478,6.7148,6.6999,6.6999,6.6999,6.6999,6.6999,6.6999,6.6999,6.6999,6.6999,6.6999,6.6999,6.6999,6.6999,6.6999,6.6999,6.6999,6.6999,6.6999,6.6999,6.6999,6.6999,6.6999,6.6999,6.6999,6.6999,6.6999,6.6999,6.6999,6.6999,6.6999,6.6999,6.6999,6.6999,6.6999,6.6939,6.655,6.6221,6.5712,6.5383,6.4964,6.4485,6.4126,6.3857,6.3558,6.3288,6.3079,6.2899,6.2391,6.2032,6.1702,6.1822,6.2032,6.2151,6.2361,6.254,6.251,6.254,6.266,6.275,6.248,6.1702,6.1553,6.0835,6.0176,6.0411,6.0842,6.1388,6.1959,6.2378,6.3294,6.4632,6.598,6.7167,6.7851,6.8474,6.8572,6.8208,6.8241,6.8274,6.8639,6.9036,6.9163,6.9409,6.9104,6.9382,6.9879,7.0421,6.9906,6.9614,6.985,6.9872,6.9363,6.8799,6.8359,6.7963,6.7455,6.7218,6.7083,6.6914,6.6812,6.7151,6.7354,6.7354,6.7354,6.7421,6.7387,6.7523,6.776,6.7996,6.7996,6.803,6.7996,6.6999,6.6999,6.6999,6.6999,6.6999,6.6999,6.6999,6.6999,6.6999,6.6999,6.6999,6.6999,6.6999,6.6999,6.6999,6.6999,6.6999,6.6999,6.6999,6.6999,6.6999,6.6999,6.6999,6.6999,6.6999,6.6999,6.6999,6.6999,6.6999,6.6999,6.6999,6.6999,6.6999,6.6999,6.6999,6.6999,6.6999,6.6999,6.6849,6.6939,6.646,6.5922,6.5473,6.5024,6.4635,6.4246,6.3977,6.3617,6.3288,6.2989,6.272,6.2421,6.2271,6.2331,6.254,6.272,6.2839,6.2929,6.3047,6.3017,6.3077,6.2929,6.245,6.2151,6.2002,6.1672,6.1014,6.0971,6.1348,6.1745,6.2263,6.2737,6.3741,6.5125,6.6435,6.7698,6.8256,6.8672,6.8241,6.7777,6.7632,6.7665,6.791,6.8307,6.8619,6.8865,6.9251,6.9549,6.9925,7.05,7.058,7.0355,7.0389,7.0309,7.0094,6.9722,6.9147,6.8673,6.8199,6.7726,6.7421,6.7624,6.7793,6.7929,6.8064,6.8098,6.8199,6.8368,6.8301,6.8233,6.8267,6.8538,6.8707,6.8774,6.8977,6.6999,6.6999,6.6999,6.6999,6.6999,6.6999,6.6999,6.6999,6.6999,6.6999,6.6999,6.6999,6.6999,6.6999,6.6999,6.6999,6.6999,6.6999,6.6999,6.6999,6.6999,6.6999,6.6999,6.6999,6.6999,6.6999,6.6999,6.6999,6.6999,6.6999,6.6999,6.6999,6.6999,6.6999,6.6999,6.6999,6.6999,6.6999,6.6999,6.6999,6.6999,6.658,6.634,6.5981,6.5712,6.5293,6.4844,6.4156,6.3917,6.3647,6.3228,6.2899,6.278,6.278,6.2899,6.2959,6.3137,6.3137,6.3137,6.3137,6.3137,6.3137,6.269,6.254,6.248,6.254,6.2115,6.198,6.2208,6.2395,6.2762,6.2768,6.351,6.544,6.7018,6.7899,6.863,6.8606,6.8341,6.7943,6.7599,6.7533,6.7499,6.791,6.8334,6.8692,6.9323,6.9654,7.0318,7.0748,7.112,7.1019,7.085,7.0591,7.0297,7.0297,6.9857,6.9383,6.8977,6.8571,6.847,6.8707,6.8842,6.8842,6.8876,6.891,6.9045,6.9451,6.935,6.9282,6.9011,6.9045,6.9316,6.9654,6.9992]}]]